[[{"header":{"parameterUnit":"m.s-1","parameterCategory":1,"la1":31.0,"la2":29.5877,"lo1":-88.7671,"lo2":-86.6584,"dy":0.0162,"dx":0.0185,"nx":115,"ny":88,"refTime":"2023-08-24T12:00:00:Z","depth":0,"parameterNumber":2,"parameterNumberName":"U-component_of_WINDS"},"data":[0.0,0.0,0.0,0.0,0.0,0.0,0.0,0.0,0.0,0.0,0.0,0.0,0.0,0.0,0.0,0.0,0.0,0.0,0.0,0.0,0.0,0.0,0.0,0.0,0.0,0.0,0.0,0.0,0.0,0.0,0.0,0.0,0.0,0.0,0.0,0.0,0.0,0.0,0.0,0.0,0.0,0.0,0.0,0.0,0.0,0.0,0.0,0.0,0.0,0.0,0.0,0.0,0.0,0.0,0.0,0.0,0.0,0.0,0.0,0.0,0.0,0.0,0.0,0.0,0.0,0.0,0.0,0.0,0.0,0.0,0.0,0.0,0.0,0.0,0.0,0.0,0.0,0.0,0.0,0.0,0.0,0.0,0.0,0.0,0.0,0.0,0.0,0.0,0.0,0.0,0.0,0.0,0.0,0.0,0.0,0.0,0.0,0.0,0.0,0.0,0.0,0.0,0.0,0.0,0.0,0.0,0.0,0.0,0.0,0.0,0.0,0.0,0.0,0.0,0.0,0.0,0.0,0.0,0.0,0.0,0.0,0.0,0.0,0.0,0.0,0.0,0.0,0.0,0.0,0.0,0.0,0.0,0.0,0.0,0.0,0.0,0.0,0.0,0.0,0.0,0.0,0.0,0.0,0.0,0.0,0.0,0.0,0.0,0.0,0.0,0.0,0.0,0.0,0.0,0.0,0.0,0.0,0.0,0.0,0.0,0.0,0.0,0.0,0.0,0.0,0.0,0.0,0.0,0.0,0.0,0.0,0.0,0.0,0.0,0.0,0.0,0.0,0.0,0.0,0.0,0.0,0.0,0.0,0.0,0.0,0.0,0.0,0.0,0.0,0.0,0.0,0.0,0.0,0.0,0.0,0.0,0.0,0.0,0.0,0.0,0.0,0.0,0.0,0.0,0.0,0.0,0.0,0.0,0.0,0.0,0.0,0.0,0.0,0.0,0.0,0.0,0.0,0.0,0.0,0.0,0.0,0.0,0.0,0.0,0.0,0.0,0.0,0.0,0.0,0.0,0.0,0.0,0.0,0.0,0.0,0.0,0.0,0.0,0.0,0.0,0.0,0.0,0.0,0.0,0.0,0.0,0.0,0.0,0.0,0.0,0.0,0.0,0.0,0.0,0.0,0.0,0.0,0.0,0.0,0.0,0.0,0.0,0.0,0.0,0.0,0.0,0.0,0.0,0.0,0.0,0.0,0.0,0.0,0.0,0.0,0.0,0.0,0.0,0.0,0.0,0.0,0.0,0.0,0.0,0.0,0.0,0.0,0.0,0.0,0.0,0.0,0.0,0.0,0.0,0.0,0.0,0.0,0.0,0.0,0.0,0.0,0.0,0.0,0.0,0.0,0.0,0.0,0.0,0.0,0.0,0.0,0.0,0.0,0.0,0.0,0.0,0.0,0.0,0.0,0.0,0.0,0.0,0.0,0.0,0.0,0.0,0.0,0.0,0.0,0.0,0.0,0.0,0.0,0.0,0.0,0.0,0.0,0.0,0.0,0.0,0.0,0.0,0.0,0.0,0.0,0.0,0.0,0.0,0.0,0.0,0.0,0.0,0.0,0.0,0.0,0.0,0.0,0.0,0.0,0.0,0.0,0.0,0.0,0.0,0.0,0.0,0.0,0.0,0.0,0.0,0.0,0.0,0.0,0.0,0.0,0.0,0.0,0.0,0.0,0.0,0.0,0.0,0.0,0.0,0.0,0.0,0.0,0.0,0.0,0.0,0.0,0.0,0.0,0.0,0.0,0.0,0.0,0.0,0.0,0.0,0.0,0.0,0.0,0.0,0.0,0.0,0.0,0.0,0.0,0.0,0.0,0.0,0.0,0.0,0.0,0.0,0.0,0.0,0.0,0.0,0.0,0.0,0.0,0.0,0.0,0.0,0.0,0.0,0.0,0.0,0.0,0.0,0.0,0.0,0.0,0.0,0.0,0.0,0.0,0.0,0.0,0.0,0.0,0.0,0.0,0.0,0.0,0.0,0.0,0.0,0.0,0.0,0.0,0.0,0.0,0.0,0.0,0.0,0.0,0.0,0.0,0.0,0.0,0.0,0.0,0.0,0.0,0.0,0.0,0.0,0.0,0.0,0.0,0.0,0.0,0.0,0.0,0.0,0.0,0.0,0.0,0.0,0.0,0.0,0.0,0.0,0.0,0.0,0.0,0.0,0.0,0.0,0.0,0.0,0.0,0.0,0.0,0.0,0.0,0.0,0.0,0.0,0.0,0.0,0.0,0.0,0.0,0.0,0.0,0.0,0.0,0.0,0.0,0.0,0.0,0.0,0.0,0.0,0.0,0.0,0.0,0.0,0.0,0.0,0.0,0.0,0.0,0.0,0.0,0.0,0.0,0.0,0.0,0.0,0.0,0.0,0.0,0.0,0.0,0.0,0.0,0.0,0.0,0.0,0.0,0.0,0.0,0.0,0.0,0.0,0.0,0.0,0.0,0.0,0.0,0.0,0.0,0.0,0.0,0.0,0.0,0.0,0.0,0.0,0.0,0.0,0.0,0.0,0.0,0.0,0.0,0.0,0.0,0.0,0.0,0.0,0.0,0.0,0.0,0.0,0.0,0.0,0.0,0.0,0.0,0.0,0.0,0.0,0.0,0.0,0.0,0.0,0.0,0.0,0.0,0.0,0.0,0.0,0.0,0.0,0.0,0.0,0.0,0.0,0.0,0.0,0.0,0.0,0.0,0.0,0.0,0.0,0.0,0.0,0.0,0.0,0.0,0.0,0.0,0.0,0.0,0.0,0.0,0.0,0.0,0.0,0.0,0.0,0.0,0.0,0.0,0.0,0.0,0.0,0.0,0.0,0.0,0.0,0.0,0.0,0.0,0.0,0.0,0.0,0.0,0.0,0.0,0.0,0.0,0.0,0.0,0.0,0.0,0.0,0.0,0.0,0.0,0.0,0.0,0.0,0.0,0.0,0.0,0.0,0.0,0.0,0.0,0.0,0.0,0.0,0.0,0.0,0.0,0.0,0.0,0.0,0.0,0.0,0.0,0.0,0.0,0.0,0.0,0.0,0.0,0.0,0.0,0.0,0.0,0.0,0.0,0.0,0.0,0.0,0.0,0.0,0.0,0.0,0.0,0.0,0.0,0.0,0.0,0.0,0.0,0.0,0.0,0.0,0.0,0.0,0.0,0.0,0.0,0.0,0.0,0.0,0.0,0.0,0.0,0.0,0.0,0.0,0.0,0.0,0.0,0.0,0.0,0.0,0.0,0.0,0.0,0.0,0.0,0.0,0.0,0.0,0.0,0.0,0.0,0.0,0.0,0.0,0.0,0.0,0.0,0.0,0.0,0.0,0.0,0.0,0.0,0.0,0.0,0.0,0.0,0.0,0.0,0.0,0.0,0.0,0.0,0.0,0.0,0.0,0.0,0.0,0.0,0.0,0.0,0.0,0.0,0.0,0.0,0.0,0.0,0.0,0.0,0.0,0.0,0.0,0.0,0.0,0.0,0.0,0.0,0.0,0.0,0.0,0.0,0.0,0.0,0.0,0.0,0.0,0.0,0.0,0.0,0.0,0.0,0.0,0.0,0.0,0.0,0.0,0.0,0.0,0.0,0.0,0.0,0.0,0.0,0.0,0.0,0.0,0.0,0.0,0.0,0.0,0.0,0.0,0.0,0.0,0.0,0.0,0.0,0.0,0.0,0.0,0.0,0.0,0.0,0.0,0.0,0.0,0.0,0.0,0.0,0.0,0.0,0.0,0.0,0.0,0.0,0.0,0.0,0.0,0.0,0.0,0.0,0.0,0.0,0.0,0.0,0.0,0.0,0.0,0.0,0.0,0.0,0.0,0.0,0.0,0.0,0.0,0.0,0.0,0.0,0.0,0.0,0.0,0.0,0.0,0.0,0.0,0.0,0.0,0.0,0.0,0.0,0.0,0.0,0.0,0.0,0.0,0.0,0.0,0.0,0.0,0.0,0.0,0.0,0.0,0.0,0.0,0.0,0.0,0.0,0.0,0.0,0.0,0.0,0.0,0.0,0.0,0.0,0.0,0.0,0.0,0.0,0.0,0.0,0.0,0.0,0.0,0.0,0.0,0.0,0.0,0.0,0.0,0.0,0.0,0.0,0.0,0.0,0.0,0.0,0.0,0.0,0.0,0.0,0.0,0.0,0.0,0.0,0.0,0.0,0.0,0.0,0.0,0.0,0.0,0.0,0.0,0.0,0.0,0.0,0.0,0.0,0.0,0.0,0.0,0.0,0.0,0.0,0.0,0.0,0.0,0.0,0.0,0.0,0.0,0.0,0.0,0.0,0.0,-1.5174,0.0,0.0,0.0,0.0,0.0,0.0,0.0,0.0,0.0,0.0,0.0,0.0,0.0,0.0,0.0,0.0,0.0,0.0,0.0,0.0,0.0,0.0,0.0,0.0,0.0,0.0,0.0,0.0,0.0,0.0,0.0,0.0,0.0,0.0,0.0,0.0,0.0,0.0,0.0,0.0,0.0,0.0,0.0,0.0,0.0,0.0,0.0,0.0,0.0,0.0,0.0,0.0,0.0,0.0,0.0,0.0,0.0,0.0,0.0,0.0,0.0,0.0,0.0,0.0,0.0,0.0,0.0,0.0,0.0,0.0,0.0,0.0,0.0,0.0,0.0,0.0,0.0,0.0,0.0,0.0,0.0,0.0,0.0,0.0,0.0,0.0,0.0,0.0,0.0,0.0,0.0,0.0,0.0,0.0,0.0,0.0,0.0,0.0,0.0,0.0,0.0,0.0,0.0,0.0,0.0,0.0,0.0,0.0,0.0,0.0,-1.5107,-1.5107,-1.5137,-1.5167,-1.519,0.0,0.0,0.0,0.0,0.0,0.0,0.0,0.0,0.0,0.0,0.0,0.0,0.0,0.0,0.0,0.0,0.0,0.0,0.0,0.0,0.0,0.0,0.0,0.0,0.0,0.0,0.0,0.0,0.0,0.0,0.0,0.0,0.0,0.0,0.0,0.0,0.0,0.0,0.0,0.0,0.0,0.0,0.0,0.0,0.0,0.0,0.0,0.0,0.0,0.0,0.0,0.0,0.0,0.0,0.0,0.0,0.0,0.0,0.0,0.0,0.0,0.0,0.0,0.0,0.0,0.0,0.0,0.0,0.0,0.0,0.0,0.0,0.0,0.0,0.0,0.0,0.0,0.0,0.0,0.0,0.0,0.0,0.0,0.0,0.0,0.0,0.0,0.0,0.0,0.0,0.0,0.0,0.0,0.0,0.0,0.0,0.0,0.0,0.0,0.0,0.0,0.0,0.0,0.0,0.0,0.0,0.0,0.0,0.0,0.0,0.0,0.0,-1.5171,-1.5206,-1.5238,0.0,0.0,0.0,0.0,0.0,0.0,0.0,0.0,0.0,0.0,0.0,0.0,0.0,0.0,0.0,0.0,0.0,0.0,0.0,0.0,0.0,0.0,0.0,0.0,0.0,0.0,0.0,0.0,0.0,0.0,0.0,0.0,0.0,0.0,0.0,0.0,0.0,0.0,0.0,0.0,0.0,0.0,0.0,0.0,0.0,0.0,0.0,0.0,0.0,0.0,0.0,0.0,0.0,0.0,0.0,0.0,0.0,0.0,0.0,0.0,0.0,0.0,0.0,0.0,0.0,0.0,0.0,0.0,0.0,0.0,0.0,0.0,0.0,0.0,0.0,0.0,0.0,0.0,0.0,0.0,0.0,0.0,0.0,0.0,0.0,0.0,0.0,0.0,0.0,0.0,0.0,0.0,0.0,0.0,0.0,0.0,0.0,0.0,0.0,0.0,0.0,0.0,0.0,0.0,0.0,0.0,0.0,0.0,0.0,0.0,-1.5185,-1.5196,-1.5198,0.0,-1.5286,0.0,0.0,0.0,0.0,0.0,0.0,0.0,0.0,0.0,0.0,0.0,0.0,0.0,0.0,0.0,0.0,0.0,0.0,0.0,0.0,0.0,0.0,0.0,0.0,0.0,0.0,0.0,0.0,0.0,0.0,0.0,0.0,0.0,0.0,0.0,0.0,0.0,0.0,0.0,0.0,0.0,0.0,0.0,0.0,0.0,0.0,0.0,0.0,0.0,0.0,0.0,0.0,0.0,0.0,0.0,0.0,0.0,0.0,0.0,0.0,0.0,0.0,0.0,0.0,0.0,0.0,0.0,0.0,0.0,0.0,0.0,0.0,0.0,0.0,0.0,0.0,0.0,0.0,0.0,0.0,0.0,0.0,0.0,0.0,0.0,0.0,0.0,0.0,0.0,0.0,0.0,0.0,0.0,0.0,0.0,0.0,0.0,0.0,0.0,0.0,0.0,0.0,0.0,0.0,0.0,0.0,0.0,0.0,0.0,0.0,-1.5253,-1.5268,-1.5261,-1.5278,0.0,0.0,0.0,0.0,0.0,0.0,0.0,0.0,0.0,0.0,0.0,0.0,0.0,0.0,0.0,0.0,0.0,0.0,0.0,0.0,0.0,0.0,0.0,0.0,0.0,0.0,0.0,0.0,0.0,0.0,0.0,0.0,0.0,0.0,0.0,0.0,0.0,0.0,0.0,0.0,0.0,0.0,0.0,0.0,0.0,0.0,0.0,0.0,0.0,0.0,0.0,0.0,0.0,0.0,0.0,0.0,0.0,0.0,0.0,0.0,0.0,0.0,0.0,0.0,0.0,0.0,0.0,0.0,0.0,0.0,0.0,0.0,0.0,0.0,0.0,0.0,0.0,0.0,0.0,0.0,0.0,0.0,0.0,0.0,0.0,0.0,0.0,0.0,0.0,0.0,0.0,0.0,0.0,0.0,0.0,0.0,0.0,0.0,0.0,0.0,0.0,0.0,0.0,0.0,0.0,0.0,0.0,0.0,0.0,0.0,-1.5886,-1.591,-1.5677,-1.5679,-1.5589,-1.5409,0.0,0.0,0.0,0.0,0.0,0.0,0.0,0.0,0.0,0.0,0.0,0.0,0.0,0.0,0.0,0.0,0.0,0.0,0.0,0.0,0.0,0.0,0.0,0.0,0.0,0.0,0.0,0.0,0.0,0.0,0.0,0.0,0.0,0.0,0.0,0.0,0.0,0.0,0.0,0.0,0.0,0.0,0.0,0.0,0.0,0.0,0.0,0.0,0.0,0.0,0.0,0.0,0.0,0.0,0.0,0.0,0.0,0.0,0.0,0.0,0.0,0.0,0.0,0.0,0.0,0.0,0.0,0.0,0.0,0.0,0.0,0.0,0.0,0.0,0.0,0.0,0.0,0.0,0.0,0.0,0.0,0.0,0.0,0.0,0.0,0.0,0.0,0.0,0.0,0.0,0.0,0.0,0.0,0.0,0.0,0.0,0.0,0.0,0.0,0.0,0.0,0.0,0.0,0.0,0.0,0.0,0.0,0.0,-1.656,-1.734,-1.7387,-1.6592,-1.6603,-1.6246,0.0,0.0,0.0,0.0,0.0,0.0,0.0,0.0,0.0,0.0,0.0,0.0,0.0,0.0,0.0,0.0,0.0,0.0,0.0,0.0,0.0,0.0,0.0,0.0,0.0,0.0,0.0,0.0,0.0,0.0,0.0,0.0,0.0,0.0,0.0,0.0,0.0,0.0,0.0,0.0,0.0,0.0,0.0,0.0,0.0,0.0,0.0,0.0,0.0,0.0,0.0,0.0,0.0,0.0,0.0,0.0,0.0,0.0,0.0,0.0,0.0,0.0,0.0,0.0,0.0,0.0,0.0,0.0,0.0,0.0,0.0,0.0,0.0,0.0,0.0,0.0,0.0,0.0,0.0,0.0,0.0,0.0,0.0,0.0,0.0,0.0,0.0,0.0,0.0,0.0,0.0,0.0,0.0,0.0,0.0,0.0,0.0,0.0,0.0,0.0,0.0,0.0,0.0,0.0,0.0,0.0,0.0,0.0,0.0,-1.7418,-1.7732,-1.7759,-1.7445,-1.6951,-1.6555,0.0,0.0,0.0,0.0,0.0,0.0,0.0,0.0,0.0,0.0,0.0,0.0,0.0,0.0,0.0,0.0,0.0,0.0,0.0,0.0,0.0,0.0,0.0,0.0,0.0,0.0,0.0,0.0,0.0,0.0,0.0,0.0,0.0,0.0,0.0,0.0,0.0,0.0,0.0,0.0,0.0,0.0,0.0,0.0,0.0,0.0,0.0,0.0,0.0,0.0,0.0,0.0,0.0,0.0,0.0,0.0,0.0,0.0,0.0,0.0,0.0,0.0,0.0,0.0,0.0,0.0,0.0,0.0,0.0,0.0,0.0,0.0,0.0,0.0,0.0,0.0,0.0,0.0,0.0,0.0,0.0,0.0,0.0,0.0,0.0,0.0,0.0,0.0,0.0,0.0,0.0,0.0,0.0,0.0,0.0,0.0,0.0,0.0,0.0,0.0,0.0,0.0,0.0,0.0,0.0,0.0,0.0,0.0,0.0,-1.8712,0.0,-1.8601,-1.832,-1.755,-1.6995,0.0,0.0,0.0,0.0,0.0,0.0,0.0,0.0,0.0,0.0,0.0,0.0,0.0,0.0,0.0,0.0,0.0,0.0,0.0,0.0,0.0,0.0,0.0,0.0,0.0,0.0,0.0,0.0,0.0,0.0,0.0,0.0,0.0,0.0,0.0,0.0,0.0,0.0,0.0,0.0,0.0,0.0,0.0,0.0,0.0,0.0,0.0,0.0,0.0,0.0,0.0,0.0,0.0,0.0,0.0,0.0,0.0,0.0,0.0,0.0,0.0,0.0,0.0,0.0,0.0,0.0,0.0,0.0,0.0,0.0,0.0,0.0,0.0,0.0,0.0,0.0,0.0,0.0,0.0,0.0,0.0,0.0,0.0,0.0,0.0,0.0,0.0,0.0,0.0,0.0,0.0,0.0,0.0,0.0,0.0,0.0,0.0,0.0,0.0,0.0,0.0,0.0,0.0,0.0,0.0,0.0,0.0,0.0,-1.9639,-2.0459,-2.05,-2.0113,-1.926,-1.8476,-1.7643,0.0,0.0,0.0,0.0,0.0,0.0,0.0,0.0,0.0,0.0,0.0,0.0,0.0,0.0,0.0,0.0,0.0,0.0,0.0,0.0,0.0,0.0,0.0,0.0,0.0,0.0,0.0,0.0,0.0,0.0,0.0,0.0,0.0,0.0,0.0,0.0,0.0,0.0,0.0,0.0,0.0,0.0,0.0,0.0,0.0,0.0,0.0,0.0,0.0,0.0,0.0,0.0,0.0,0.0,0.0,0.0,0.0,0.0,0.0,0.0,0.0,0.0,0.0,0.0,0.0,0.0,0.0,0.0,0.0,0.0,0.0,0.0,0.0,0.0,0.0,0.0,0.0,0.0,0.0,0.0,0.0,0.0,0.0,0.0,0.0,0.0,0.0,0.0,0.0,0.0,0.0,0.0,0.0,0.0,0.0,0.0,0.0,0.0,0.0,0.0,0.0,0.0,0.0,0.0,0.0,0.0,0.0,0.0,0.0,-2.14,-2.1971,-2.1878,-2.1003,-2.0205,-1.9095,0.0,0.0,0.0,0.0,0.0,0.0,0.0,0.0,0.0,0.0,0.0,0.0,0.0,0.0,0.0,0.0,0.0,0.0,0.0,0.0,0.0,0.0,0.0,0.0,0.0,0.0,0.0,0.0,0.0,0.0,0.0,0.0,0.0,0.0,0.0,0.0,0.0,0.0,0.0,0.0,0.0,0.0,0.0,0.0,0.0,0.0,0.0,0.0,0.0,0.0,0.0,0.0,0.0,0.0,0.0,0.0,0.0,0.0,0.0,0.0,0.0,0.0,0.0,0.0,0.0,0.0,0.0,0.0,0.0,0.0,0.0,0.0,0.0,0.0,0.0,0.0,0.0,0.0,0.0,0.0,0.0,0.0,0.0,0.0,0.0,0.0,0.0,0.0,0.0,0.0,0.0,0.0,0.0,0.0,0.0,0.0,0.0,0.0,0.0,0.0,0.0,0.0,0.0,0.0,0.0,0.0,0.0,0.0,0.0,-2.2762,-2.2999,-2.2982,-2.2771,-2.1365,-1.994,-1.8535,0.0,0.0,0.0,0.0,0.0,0.0,0.0,0.0,0.0,0.0,0.0,0.0,0.0,0.0,0.0,0.0,0.0,0.0,0.0,0.0,0.0,0.0,0.0,0.0,0.0,0.0,0.0,0.0,0.0,0.0,0.0,0.0,0.0,0.0,0.0,0.0,0.0,0.0,0.0,0.0,0.0,0.0,0.0,0.0,0.0,0.0,0.0,0.0,0.0,0.0,0.0,0.0,0.0,0.0,0.0,0.0,0.0,0.0,0.0,0.0,0.0,0.0,0.0,0.0,0.0,0.0,0.0,0.0,0.0,0.0,0.0,0.0,0.0,0.0,0.0,0.0,0.0,0.0,0.0,0.0,0.0,0.0,0.0,0.0,0.0,0.0,0.0,0.0,0.0,0.0,0.0,0.0,0.0,0.0,0.0,0.0,0.0,0.0,0.0,0.0,0.0,0.0,0.0,0.0,0.0,0.0,0.0,0.0,-2.4528,-2.3747,-2.367,-2.4297,-2.2031,-2.0312,0.0,0.0,0.0,0.0,0.0,0.0,0.0,0.0,0.0,0.0,0.0,0.0,0.0,0.0,0.0,0.0,0.0,0.0,0.0,0.0,0.0,0.0,0.0,0.0,0.0,0.0,0.0,0.0,0.0,0.0,0.0,0.0,0.0,0.0,0.0,0.0,0.0,0.0,0.0,0.0,0.0,0.0,0.0,0.0,0.0,0.0,0.0,0.0,0.0,0.0,0.0,0.0,0.0,0.0,0.0,0.0,0.0,0.0,0.0,0.0,0.0,0.0,0.0,0.0,0.0,0.0,0.0,0.0,0.0,0.0,0.0,0.0,0.0,0.0,0.0,0.0,0.0,0.0,0.0,0.0,0.0,0.0,0.0,0.0,0.0,0.0,0.0,0.0,0.0,0.0,0.0,0.0,0.0,0.0,0.0,0.0,0.0,0.0,0.0,0.0,0.0,0.0,0.0,0.0,0.0,0.0,0.0,0.0,0.0,-2.6208,-2.6093,-2.5469,-2.4434,-2.3144,-2.1756,0.0,0.0,0.0,0.0,0.0,0.0,0.0,0.0,0.0,0.0,0.0,0.0,0.0,0.0,0.0,0.0,0.0,0.0,0.0,0.0,0.0,0.0,0.0,0.0,0.0,0.0,0.0,0.0,0.0,0.0,0.0,0.0,0.0,0.0,0.0,0.0,0.0,0.0,0.0,0.0,0.0,0.0,0.0,0.0,0.0,0.0,0.0,0.0,0.0,0.0,0.0,0.0,0.0,0.0,0.0,0.0,0.0,0.0,0.0,0.0,0.0,0.0,0.0,0.0,0.0,0.0,0.0,0.0,0.0,0.0,0.0,0.0,0.0,0.0,0.0,0.0,0.0,0.0,0.0,0.0,0.0,0.0,0.0,0.0,0.0,0.0,0.0,0.0,0.0,0.0,0.0,0.0,0.0,0.0,0.0,0.0,0.0,0.0,0.0,0.0,0.0,0.0,0.0,0.0,0.0,0.0,0.0,0.0,-2.4375,-2.6933,-2.664,-2.6151,-2.5503,-2.466,-2.3215,0.0,0.0,0.0,0.0,0.0,0.0,0.0,0.0,0.0,0.0,0.0,0.0,0.0,0.0,0.0,0.0,0.0,0.0,0.0,0.0,0.0,0.0,0.0,0.0,0.0,0.0,0.0,0.0,0.0,0.0,0.0,0.0,0.0,0.0,0.0,0.0,0.0,0.0,0.0,0.0,0.0,0.0,0.0,0.0,0.0,0.0,0.0,0.0,0.0,0.0,0.0,0.0,0.0,0.0,0.0,0.0,0.0,0.0,0.0,0.0,0.0,0.0,0.0,0.0,0.0,0.0,0.0,0.0,0.0,0.0,0.0,0.0,0.0,0.0,0.0,0.0,0.0,0.0,0.0,0.0,0.0,0.0,0.0,0.0,0.0,0.0,0.0,0.0,0.0,0.0,0.0,0.0,0.0,0.0,0.0,0.0,0.0,0.0,0.0,0.0,0.0,0.0,0.0,0.0,0.0,0.0,0.0,0.0,-2.4509,-2.7069,-2.6364,-2.6358,-2.7063,-2.6109,-2.4434,0.0,0.0,0.0,0.0,0.0,0.0,0.0,0.0,0.0,0.0,0.0,0.0,0.0,0.0,0.0,0.0,0.0,0.0,0.0,0.0,0.0,0.0,0.0,0.0,0.0,0.0,0.0,0.0,0.0,0.0,0.0,0.0,0.0,0.0,0.0,0.0,0.0,0.0,0.0,0.0,0.0,0.0,0.0,0.0,0.0,0.0,0.0,0.0,0.0,0.0,0.0,0.0,0.0,0.0,0.0,0.0,0.0,0.0,0.0,0.0,0.0,0.0,0.0,0.0,0.0,0.0,0.0,0.0,0.0,0.0,0.0,0.0,0.0,0.0,0.0,0.0,0.0,0.0,0.0,0.0,0.0,0.0,0.0,0.0,0.0,0.0,0.0,0.0,0.0,0.0,0.0,0.0,0.0,0.0,0.0,0.0,0.0,0.0,0.0,0.0,0.0,0.0,0.0,0.0,0.0,0.0,0.0,0.0,-2.5388,-2.7947,-2.7829,-2.7822,-2.7936,-2.5828,-2.4107,0.0,0.0,0.0,0.0,0.0,0.0,0.0,0.0,0.0,0.0,0.0,0.0,0.0,0.0,0.0,0.0,0.0,0.0,0.0,0.0,0.0,0.0,0.0,0.0,0.0,0.0,0.0,0.0,0.0,0.0,0.0,0.0,0.0,0.0,0.0,0.0,0.0,0.0,0.0,0.0,0.0,0.0,0.0,0.0,0.0,0.0,0.0,0.0,-1.4486,0.0,0.0,0.0,0.0,0.0,0.0,0.0,0.0,0.0,0.0,0.0,0.0,0.0,0.0,0.0,0.0,0.0,0.0,0.0,0.0,0.0,0.0,0.0,0.0,0.0,0.0,0.0,0.0,0.0,0.0,0.0,0.0,0.0,0.0,0.0,0.0,0.0,0.0,0.0,0.0,0.0,0.0,0.0,0.0,0.0,0.0,0.0,0.0,0.0,0.0,0.0,0.0,0.0,0.0,0.0,0.0,0.0,0.0,0.0,-2.505,-2.7566,-2.7249,-2.7215,-2.7474,-2.5477,-2.3953,0.0,0.0,0.0,0.0,0.0,0.0,0.0,0.0,0.0,0.0,0.0,0.0,0.0,0.0,0.0,0.0,0.0,0.0,0.0,0.0,0.0,0.0,0.0,0.0,0.0,0.0,0.0,0.0,0.0,0.0,0.0,0.0,0.0,0.0,0.0,0.0,0.0,0.0,0.0,0.0,0.0,0.0,0.0,0.0,0.0,0.0,0.0,0.0,0.0,0.0,0.0,0.0,0.0,0.0,0.0,0.0,0.0,0.0,0.0,0.0,0.0,0.0,0.0,0.0,0.0,0.0,0.0,0.0,0.0,0.0,0.0,0.0,0.0,0.0,0.0,0.0,0.0,0.0,0.0,0.0,0.0,0.0,0.0,0.0,0.0,0.0,0.0,0.0,0.0,0.0,0.0,0.0,0.0,0.0,0.0,0.0,0.0,0.0,0.0,0.0,0.0,0.0,0.0,0.0,0.0,0.0,0.0,-2.3343,-2.4623,-2.6837,-2.622,-2.6154,-2.6829,-2.5202,-2.3875,-2.2981,0.0,0.0,0.0,0.0,0.0,0.0,0.0,0.0,0.0,0.0,0.0,0.0,0.0,0.0,0.0,0.0,0.0,0.0,0.0,0.0,0.0,0.0,0.0,0.0,0.0,0.0,0.0,0.0,0.0,0.0,0.0,0.0,0.0,0.0,0.0,0.0,0.0,0.0,-1.571,-1.6503,0.0,0.0,0.0,0.0,0.0,0.0,0.0,0.0,-1.5609,0.0,0.0,0.0,0.0,0.0,0.0,0.0,0.0,0.0,0.0,0.0,0.0,0.0,0.0,0.0,0.0,0.0,0.0,0.0,0.0,0.0,0.0,0.0,0.0,0.0,0.0,0.0,0.0,0.0,0.0,0.0,0.0,0.0,0.0,0.0,0.0,0.0,0.0,0.0,0.0,0.0,0.0,0.0,0.0,0.0,0.0,0.0,0.0,0.0,0.0,0.0,0.0,0.0,0.0,0.0,0.0,-2.3087,-2.4466,-2.5744,-2.6887,-2.6764,-2.6721,-2.678,-2.5175,-2.3873,-2.291,0.0,0.0,0.0,0.0,0.0,0.0,0.0,0.0,0.0,0.0,0.0,0.0,0.0,0.0,0.0,0.0,0.0,0.0,0.0,0.0,0.0,0.0,0.0,0.0,0.0,0.0,0.0,0.0,0.0,0.0,0.0,0.0,0.0,0.0,0.0,0.0,0.0,0.0,0.0,-1.831,-1.8651,0.0,0.0,0.0,0.0,0.0,0.0,0.0,0.0,-1.6098,0.0,0.0,0.0,0.0,0.0,0.0,0.0,0.0,0.0,0.0,0.0,0.0,0.0,0.0,0.0,0.0,0.0,0.0,0.0,0.0,0.0,0.0,0.0,0.0,0.0,0.0,0.0,0.0,0.0,0.0,0.0,0.0,0.0,0.0,0.0,0.0,0.0,0.0,0.0,0.0,0.0,0.0,0.0,0.0,0.0,0.0,0.0,0.0,0.0,0.0,0.0,0.0,0.0,0.0,0.0,-2.308,-2.3905,-2.4925,-2.616,-2.6193,-2.5942,-2.5466,-2.4668,-2.3601,0.0,0.0,0.0,0.0,0.0,0.0,0.0,0.0,0.0,0.0,0.0,0.0,0.0,0.0,0.0,0.0,0.0,0.0,0.0,0.0,0.0,0.0,0.0,0.0,0.0,0.0,0.0,0.0,0.0,0.0,0.0,0.0,0.0,0.0,0.0,0.0,0.0,0.0,0.0,0.0,-1.8363,-1.8472,-1.8066,0.0,0.0,0.0,0.0,0.0,0.0,-1.6803,-1.6931,0.0,0.0,0.0,0.0,0.0,0.0,0.0,0.0,0.0,0.0,0.0,0.0,0.0,0.0,0.0,0.0,0.0,0.0,0.0,0.0,0.0,0.0,0.0,0.0,0.0,0.0,0.0,0.0,0.0,0.0,0.0,0.0,0.0,0.0,0.0,0.0,0.0,0.0,0.0,0.0,0.0,0.0,0.0,0.0,0.0,0.0,0.0,0.0,0.0,0.0,0.0,0.0,0.0,0.0,0.0,-2.3279,-2.3657,-2.4549,-2.601,-2.5871,-2.5397,-2.4702,-2.4517,-2.3632,0.0,0.0,0.0,0.0,0.0,0.0,0.0,0.0,0.0,0.0,0.0,0.0,0.0,0.0,0.0,0.0,0.0,0.0,0.0,0.0,0.0,0.0,0.0,0.0,0.0,0.0,0.0,0.0,0.0,0.0,0.0,0.0,0.0,0.0,0.0,0.0,0.0,0.0,0.0,0.0,0.0,-1.8232,-1.8261,-1.8259,0.0,0.0,0.0,0.0,-1.7046,-1.7398,0.0,0.0,0.0,0.0,0.0,0.0,0.0,0.0,0.0,0.0,0.0,0.0,0.0,0.0,0.0,0.0,0.0,0.0,0.0,0.0,0.0,0.0,0.0,0.0,0.0,0.0,0.0,0.0,0.0,0.0,0.0,0.0,0.0,0.0,0.0,0.0,0.0,0.0,0.0,0.0,0.0,0.0,0.0,0.0,0.0,0.0,0.0,0.0,0.0,0.0,0.0,0.0,0.0,0.0,0.0,0.0,-2.4172,-2.5572,-2.6738,-2.7629,-2.6945,-2.6476,-2.6304,-2.5633,-2.4452,0.0,0.0,0.0,0.0,0.0,0.0,0.0,0.0,0.0,0.0,0.0,0.0,0.0,0.0,0.0,0.0,0.0,0.0,0.0,0.0,0.0,0.0,0.0,0.0,0.0,0.0,0.0,0.0,0.0,0.0,0.0,0.0,0.0,0.0,0.0,0.0,0.0,0.0,0.0,0.0,0.0,-1.9076,-1.914,-1.9159,-1.9411,0.0,0.0,-1.7945,-1.778,-1.7243,0.0,0.0,0.0,0.0,0.0,0.0,0.0,0.0,0.0,0.0,0.0,0.0,0.0,0.0,0.0,0.0,0.0,0.0,0.0,0.0,0.0,0.0,0.0,0.0,0.0,0.0,0.0,0.0,0.0,0.0,0.0,0.0,0.0,0.0,0.0,0.0,0.0,0.0,0.0,0.0,0.0,0.0,0.0,0.0,0.0,0.0,0.0,0.0,0.0,0.0,0.0,0.0,0.0,0.0,0.0,-2.2903,-2.4232,-2.5379,-2.6348,-2.7161,-2.6881,-2.5971,-2.4485,-2.5071,-2.4122,0.0,0.0,0.0,0.0,0.0,0.0,0.0,0.0,0.0,0.0,0.0,0.0,0.0,0.0,0.0,0.0,0.0,0.0,0.0,0.0,0.0,0.0,0.0,0.0,0.0,0.0,0.0,0.0,0.0,0.0,0.0,0.0,0.0,0.0,0.0,0.0,0.0,0.0,0.0,0.0,0.0,0.0,-1.9296,-1.9296,0.0,0.0,0.0,-1.888,-1.9357,0.0,0.0,0.0,0.0,0.0,0.0,0.0,0.0,0.0,0.0,0.0,0.0,0.0,0.0,0.0,0.0,0.0,0.0,0.0,0.0,0.0,0.0,0.0,0.0,0.0,0.0,0.0,0.0,0.0,0.0,0.0,0.0,0.0,0.0,0.0,0.0,0.0,0.0,0.0,0.0,0.0,0.0,0.0,0.0,0.0,0.0,0.0,0.0,0.0,0.0,0.0,0.0,0.0,0.0,0.0,0.0,0.0,-2.4142,-2.496,-2.5865,-2.6856,-2.6728,-2.5625,-2.3529,-2.4471,0.0,0.0,0.0,0.0,0.0,0.0,0.0,0.0,0.0,0.0,0.0,0.0,0.0,0.0,0.0,0.0,0.0,0.0,0.0,0.0,0.0,0.0,0.0,0.0,0.0,0.0,0.0,-1.4133,0.0,0.0,0.0,0.0,0.0,0.0,0.0,0.0,0.0,0.0,0.0,0.0,0.0,0.0,-1.9384,-1.9842,-1.9746,-1.959,0.0,0.0,-1.9765,-2.0193,-1.8984,-1.8496,0.0,0.0,0.0,0.0,0.0,0.0,0.0,0.0,0.0,0.0,0.0,0.0,0.0,0.0,0.0,0.0,0.0,0.0,0.0,0.0,0.0,0.0,0.0,0.0,0.0,0.0,0.0,0.0,0.0,0.0,0.0,0.0,0.0,0.0,0.0,0.0,0.0,0.0,0.0,0.0,0.0,0.0,0.0,0.0,0.0,0.0,0.0,0.0,0.0,0.0,0.0,0.0,0.0,0.0,0.0,-2.4056,-2.4899,-2.6091,-2.762,-2.6935,-2.6072,-2.5165,-2.446,-2.3562,0.0,0.0,0.0,0.0,0.0,0.0,0.0,0.0,0.0,0.0,0.0,0.0,0.0,0.0,0.0,0.0,0.0,0.0,0.0,0.0,0.0,0.0,0.0,0.0,0.0,0.0,0.0,0.0,0.0,0.0,0.0,0.0,0.0,0.0,0.0,0.0,0.0,0.0,0.0,0.0,0.0,-1.9802,-2.1406,-2.0937,-2.0428,0.0,0.0,-2.0234,-1.9434,-1.8588,-1.8311,-1.9237,0.0,0.0,0.0,0.0,0.0,0.0,0.0,0.0,0.0,0.0,0.0,0.0,0.0,0.0,0.0,0.0,0.0,0.0,0.0,0.0,0.0,0.0,0.0,0.0,0.0,0.0,0.0,0.0,0.0,0.0,0.0,0.0,0.0,0.0,0.0,0.0,0.0,0.0,0.0,0.0,0.0,0.0,0.0,0.0,0.0,0.0,0.0,0.0,0.0,0.0,0.0,0.0,0.0,-2.3096,-2.4803,-2.5627,-2.6356,-2.6947,-2.6665,-2.5592,-2.367,-2.3821,-2.3253,0.0,0.0,0.0,0.0,0.0,0.0,0.0,0.0,0.0,0.0,0.0,0.0,0.0,0.0,0.0,0.0,0.0,0.0,0.0,0.0,0.0,0.0,0.0,0.0,0.0,0.0,0.0,0.0,-1.4331,-1.5222,-1.6325,0.0,0.0,0.0,0.0,0.0,0.0,0.0,0.0,0.0,0.0,-2.0839,-2.0995,-2.0702,0.0,0.0,-2.0566,-2.0641,-2.0798,-1.9668,-1.9277,-2.0623,-1.9642,0.0,0.0,0.0,0.0,0.0,0.0,0.0,0.0,0.0,0.0,0.0,0.0,0.0,0.0,0.0,0.0,0.0,0.0,0.0,0.0,0.0,0.0,0.0,0.0,0.0,0.0,0.0,0.0,0.0,0.0,0.0,0.0,0.0,0.0,0.0,0.0,0.0,0.0,0.0,0.0,0.0,0.0,0.0,0.0,0.0,0.0,0.0,0.0,0.0,0.0,0.0,0.0,-2.3414,-2.4878,-2.5425,-2.5832,-2.6076,-2.6076,-2.4975,-2.2751,-2.3187,-2.2804,0.0,0.0,0.0,0.0,0.0,0.0,0.0,0.0,0.0,0.0,0.0,0.0,0.0,0.0,0.0,0.0,0.0,0.0,0.0,0.0,0.0,0.0,0.0,0.0,0.0,0.0,0.0,0.0,-1.499,-1.6157,-1.768,0.0,0.0,0.0,0.0,0.0,0.0,0.0,0.0,0.0,0.0,-2.1381,-2.1287,-2.1269,-2.1288,-2.1347,-2.1562,-2.1834,-2.2148,-2.1211,-2.0762,-2.164,0.0,0.0,0.0,0.0,0.0,0.0,0.0,0.0,0.0,0.0,0.0,0.0,0.0,0.0,0.0,0.0,0.0,0.0,0.0,0.0,0.0,0.0,0.0,0.0,0.0,0.0,0.0,0.0,0.0,0.0,-1.613,0.0,0.0,0.0,0.0,0.0,0.0,0.0,0.0,0.0,0.0,0.0,0.0,0.0,0.0,0.0,0.0,0.0,0.0,0.0,0.0,0.0,0.0,-2.307,-2.3957,-2.3994,-2.432,-2.5145,-2.5139,-2.4346,-2.2696,-2.2633,-2.2151,-2.113,0.0,0.0,0.0,0.0,0.0,0.0,0.0,0.0,0.0,0.0,0.0,0.0,0.0,0.0,0.0,0.0,0.0,0.0,0.0,0.0,0.0,0.0,0.0,0.0,0.0,0.0,-1.7244,-1.6823,-1.6732,0.0,0.0,0.0,0.0,0.0,0.0,0.0,0.0,0.0,0.0,-2.1593,-2.1161,-2.2773,-2.3027,-2.2949,-2.2984,-2.3691,-2.4003,-2.3156,-2.3012,-2.275,0.0,0.0,0.0,0.0,0.0,0.0,0.0,0.0,0.0,0.0,0.0,0.0,0.0,0.0,0.0,0.0,0.0,0.0,0.0,0.0,0.0,0.0,0.0,0.0,0.0,0.0,0.0,-1.9339,-1.8821,0.0,0.0,0.0,0.0,0.0,0.0,0.0,0.0,0.0,0.0,0.0,-2.2644,-2.3321,0.0,0.0,0.0,0.0,0.0,0.0,0.0,0.0,0.0,0.0,0.0,0.0,-2.4049,-2.5387,-2.4943,-2.5063,-2.585,-2.5329,-2.4525,-2.3427,-2.2797,-2.2023,-2.1066,0.0,0.0,0.0,0.0,0.0,0.0,0.0,0.0,0.0,0.0,0.0,0.0,0.0,0.0,0.0,0.0,0.0,0.0,0.0,0.0,0.0,0.0,0.0,0.0,0.0,-1.7079,0.0,0.0,0.0,0.0,0.0,0.0,0.0,0.0,0.0,0.0,0.0,-2.2212,-2.2232,-2.2724,-2.3091,-2.3113,-2.3097,-2.2902,0.0,0.0,0.0,0.0,0.0,0.0,0.0,0.0,0.0,0.0,0.0,0.0,0.0,0.0,-1.9043,-1.7336,-1.6531,-1.6079,-1.6022,0.0,0.0,0.0,0.0,0.0,0.0,0.0,0.0,0.0,0.0,0.0,0.0,0.0,0.0,-2.0893,0.0,-2.0622,0.0,0.0,0.0,0.0,0.0,0.0,0.0,0.0,-2.2693,-2.375,-2.4652,-2.5013,-2.5448,0.0,-2.5411,-2.4487,0.0,0.0,0.0,0.0,0.0,0.0,0.0,0.0,-2.4946,-2.6571,-2.5594,-2.5423,-2.6217,-2.5423,-2.4555,-2.3714,-2.2758,-2.1736,-2.062,-2.1014,-2.1328,0.0,0.0,0.0,0.0,0.0,0.0,0.0,0.0,0.0,0.0,0.0,0.0,0.0,0.0,0.0,0.0,0.0,0.0,0.0,0.0,0.0,0.0,0.0,-1.8173,0.0,0.0,0.0,0.0,0.0,0.0,0.0,0.0,0.0,-2.1878,-2.2526,-2.2964,-2.2697,-2.3135,-2.3472,-2.3507,0.0,0.0,0.0,0.0,0.0,0.0,0.0,-2.3647,-2.3923,-2.322,-2.2358,-2.1509,-2.0873,-2.0507,-2.0508,0.0,0.0,-1.8248,-1.7537,-1.7078,-1.7055,-1.6962,-1.7053,-1.7666,-1.7779,-1.8126,0.0,0.0,0.0,0.0,0.0,0.0,0.0,0.0,-2.2221,-2.2208,0.0,-2.2795,0.0,0.0,0.0,0.0,0.0,-2.09,0.0,0.0,-2.5402,-2.626,-2.6953,-2.6905,-2.6856,-2.6864,-2.6741,-2.6224,-2.5324,-2.4078,0.0,0.0,0.0,0.0,0.0,0.0,-2.5721,-2.7399,-2.5758,-2.5331,-2.6346,-2.5456,-2.449,-2.3516,-2.254,-2.1328,-1.9982,-2.1102,-2.1456,-2.0725,-2.1233,0.0,0.0,0.0,0.0,0.0,0.0,0.0,0.0,0.0,0.0,0.0,0.0,0.0,0.0,0.0,0.0,0.0,0.0,0.0,0.0,-1.9145,0.0,0.0,0.0,0.0,0.0,0.0,0.0,0.0,0.0,0.0,-2.4033,-2.3543,-2.3356,-2.4161,0.0,0.0,0.0,0.0,-2.3723,-2.5266,-2.5565,-2.5541,-2.551,-2.487,-2.4103,-2.3313,0.0,0.0,-2.0704,-2.053,-2.0516,-2.0501,-1.9898,-1.959,-2.0312,-2.021,-2.0169,-2.0194,-2.0014,-2.0231,-2.0245,-1.9869,-2.0028,-2.6872,0.0,0.0,0.0,0.0,-2.4744,-2.488,-2.4476,-2.6141,-2.5839,-2.42,-2.4409,0.0,0.0,0.0,0.0,0.0,0.0,-2.3967,-2.5328,-2.6614,-2.738,-2.772,-2.8157,-2.8357,-2.8375,-2.8349,-2.7886,-2.7097,-2.6704,-2.5854,-2.4596,0.0,0.0,0.0,0.0,-2.6435,-2.792,-2.6539,-2.6446,-2.7913,-2.6426,-2.4884,-2.3395,-2.2486,-2.1518,-2.0477,-2.0185,-2.0192,-2.0523,-2.015,0.0,0.0,0.0,0.0,0.0,0.0,0.0,0.0,0.0,0.0,0.0,0.0,0.0,0.0,0.0,0.0,0.0,0.0,0.0,-1.988,-1.9748,-1.9804,0.0,0.0,0.0,0.0,0.0,0.0,0.0,0.0,0.0,-2.4802,-2.4238,-2.3892,0.0,0.0,-2.4838,-2.6006,-2.4895,-2.4146,-2.4613,-2.4155,0.0,-2.2927,-2.3686,-2.4237,-2.3992,-2.3223,-2.239,-2.156,-2.0915,-2.0507,-2.0516,-2.0325,-2.0239,-2.0371,-1.951,-1.8823,-1.8698,-1.871,-1.868,-1.8689,-1.8679,-1.8884,-2.9704,-2.7658,-2.6984,-2.6457,-2.6169,-2.7017,-2.7123,-2.6761,-2.8183,-2.776,-2.6084,-2.6416,-2.5641,-2.4044,-2.3305,0.0,0.0,0.0,-2.5326,-2.6551,-2.7382,-2.7985,-2.8418,-2.8767,-2.8905,-2.8935,-2.8935,-2.8484,-2.7686,-2.7997,-2.7537,-2.6337,0.0,0.0,-2.6916,-2.6442,-2.7047,-2.8596,-2.7147,-2.6987,-2.8305,-2.6616,-2.4889,-2.3243,-2.2935,-2.2125,-2.072,-2.037,-2.0268,-2.0451,-2.0231,-2.0363,0.0,0.0,0.0,0.0,0.0,0.0,0.0,0.0,0.0,0.0,0.0,-1.7421,0.0,0.0,0.0,0.0,-1.8137,-1.9287,-1.9958,-2.0181,0.0,0.0,0.0,0.0,0.0,0.0,0.0,-2.4207,-2.4492,-2.4575,-2.4623,-2.4574,-2.4454,-2.4198,-2.4318,-2.4897,-2.6155,0.0,-2.439,-2.4713,-2.4324,-2.3795,-2.3295,-2.3814,-2.4067,-2.3363,-2.2846,-2.2213,-2.1412,-2.085,-2.0521,-2.051,-2.0515,-2.0506,-2.0507,-1.9676,-1.9001,-1.8984,-1.8982,-1.8999,-1.8994,-1.8989,-1.9137,-3.2192,-3.1354,-2.9808,-2.9094,-2.8986,-2.8985,-2.8997,-2.8986,-2.9028,-2.8537,-2.7761,-2.8512,-2.7949,-2.6367,-2.5695,0.0,-2.6622,-2.5905,-2.6486,-2.8057,-2.7864,-2.8208,-2.8971,-2.8863,-2.8816,-2.8816,-2.8816,-2.8391,-2.7682,-2.8355,-2.8288,-2.7506,-2.7152,-2.6979,-2.7031,-2.6942,-2.7693,-2.9289,-2.7732,-2.7259,-2.7943,-2.636,-2.4743,-2.3235,-2.3645,-2.2886,-2.0819,-2.1259,-2.1188,-2.0375,-2.0944,-2.1015,-2.0382,0.0,0.0,0.0,0.0,0.0,0.0,0.0,0.0,0.0,0.0,0.0,0.0,0.0,0.0,0.0,-2.0339,0.0,-1.936,-2.0635,0.0,0.0,0.0,-2.201,-2.2072,-2.2241,-2.2749,-2.3755,0.0,0.0,-2.3942,-2.4666,-2.49,-2.4167,-2.3387,-2.3551,-2.5329,-2.4737,-2.4404,-2.5271,-2.533,-2.5237,-2.4843,-2.4555,-2.3782,-2.2311,-2.1798,-2.1558,-2.0757,-2.0536,-2.0504,-2.0508,-2.0513,-2.0505,-2.0515,-2.0444,-2.05,-2.0429,-2.0449,-2.0449,-2.039,-2.0368,-2.0364,-3.457,-3.3763,-3.3371,-3.221,-3.0675,-3.1233,-3.1116,-3.0602,-3.1143,-3.059,-2.9272,-2.9461,-2.8982,-2.7984,-2.7296,-2.7731,-2.9046,-2.8287,-2.8511,-2.9442,-2.8827,-2.8651,-2.8839,-2.881,-2.8816,-2.8816,-2.8816,-2.8694,-2.8512,-2.8724,-2.8366,-2.7526,-2.8634,-2.9205,-2.9138,-2.8647,-2.884,-2.9812,-2.8986,-2.8319,-2.7827,-2.6838,-2.5795,-2.4712,-2.3603,-2.2463,-2.1352,-2.1443,-2.0862,-1.9536,-2.0146,-2.0454,-2.0255,-2.0974,0.0,0.0,0.0,0.0,0.0,0.0,0.0,0.0,0.0,-1.9435,-1.9785,0.0,-2.1262,0.0,-1.965,-2.0046,-2.1716,-2.1662,0.0,0.0,-2.2913,-2.3565,-2.3575,-2.3712,-2.4399,-2.5947,-2.5629,-2.5098,-2.4583,-2.4731,-2.4636,-2.3908,-2.3753,-2.4365,-2.5999,-2.4465,-2.3662,-2.4921,-2.437,-2.3508,-2.3593,-2.3914,-2.3873,-2.2782,-2.2611,-2.2122,-2.0672,-2.0473,-2.0502,-2.0511,-2.0504,-2.0511,-2.0515,-2.0515,-2.0506,-2.051,-2.0511,-2.0502,-2.0505,-2.0506,-2.0507,-3.553,-3.5035,-3.5051,-3.4289,-3.3085,-3.2879,-3.253,-3.215,-3.2556,-3.2035,-3.0853,-3.0491,-3.0066,-2.9592,-2.8842,-2.905,-2.9821,-2.9113,-2.8998,-2.9392,-2.8961,-2.8931,-2.9221,-2.8876,-2.8894,-2.9252,-2.9239,-2.9239,-2.9252,-2.9289,-2.9003,-2.8435,-2.9023,-2.9471,-2.975,-2.9782,-2.9984,-3.0389,-2.9709,-2.8809,-2.7648,-2.6837,-2.6162,-2.5608,-2.436,-2.3438,-2.295,-2.2968,-2.2533,-2.1618,-2.1704,-2.1758,-2.165,-2.2257,-2.2276,0.0,0.0,0.0,0.0,0.0,0.0,0.0,0.0,0.0,0.0,0.0,-2.221,-2.1675,-2.1039,-2.1359,-2.3077,-2.2813,-2.2567,-2.2714,-2.3212,-2.3498,-2.3478,-2.3667,-2.4283,-2.5542,-2.5435,-2.5105,-2.4706,-2.4746,-2.4662,-2.4229,-2.3986,-2.4309,-2.5483,-2.4642,-2.4187,-2.5046,-2.451,-2.3913,-2.389,-2.4319,-2.4412,-2.3616,-2.3123,-2.2472,-2.1214,-2.0681,-2.0456,-2.0466,-2.0458,-2.0467,-2.0467,-2.0491,-2.0517,-2.0506,-2.0508,-2.051,-2.0501,-2.0511,-2.0516,-3.5923,-3.575,-3.575,-3.5663,-3.54,-3.4174,-3.3617,-3.3508,-3.3385,-3.2965,-3.226,-3.1464,-3.1147,-3.1131,-3.0419,-3.0178,-3.029,-2.9517,-2.9154,-2.9154,-2.9045,-2.9346,-2.9911,-2.9233,-2.9282,-2.9947,-2.9934,-2.9952,-2.9934,-2.9952,-2.9913,-2.9796,-2.916,-2.912,-2.9759,-3.0488,-3.0872,-3.0882,-3.0089,-2.9047,-2.7724,-2.6977,-2.6561,-2.6477,-2.5637,-2.5063,-2.4855,-2.4897,-2.4777,-2.445,-2.4038,-2.3632,-2.3315,-2.3963,-2.3679,0.0,-2.3242,0.0,0.0,0.0,0.0,0.0,0.0,0.0,0.0,-2.2478,-2.2943,-2.3786,-2.3303,-2.32,-2.3721,-2.38,-2.3474,-2.2718,-2.2796,-2.2902,-2.2872,-2.3208,-2.3684,-2.4257,-2.4623,-2.4852,-2.4746,-2.4826,-2.4926,-2.4844,-2.4275,-2.4131,-2.477,-2.4848,-2.4833,-2.5096,-2.5164,-2.4971,-2.5028,-2.5173,-2.4971,-2.4176,-2.369,-2.2872,-2.1975,-2.1359,-2.0867,-2.0654,-2.0743,-2.0717,-2.0473,-2.0541,-2.0604,-2.0531,-2.0482,-2.0495,-2.0499,-2.05,-2.051,-3.7106,-3.6513,-3.6495,-3.6101,-3.5473,-3.5218,-3.4731,-3.4083,-3.3435,-3.3075,-3.2877,-3.2154,-3.2139,-3.261,-3.1978,-3.204,-3.2614,-3.1876,-3.1542,-3.1505,-3.0849,-3.0636,-3.0745,-3.0604,-3.0622,-3.0767,-3.0731,-3.0703,-3.0685,-3.0744,-3.0703,-3.0578,-3.0504,-3.0476,-3.0496,0.0,0.0,0.0,-3.0048,-2.9463,-2.9175,-2.8891,-2.8701,-2.8669,-2.7326,0.0,-2.5643,-2.5597,-2.4991,-2.3726,-2.4094,0.0,0.0,0.0,0.0,0.0,0.0,0.0,0.0,0.0,0.0,0.0,-2.2705,-2.2576,-2.2367,-2.3441,-2.4278,-2.4556,-2.4472,-2.4213,-2.3765,-2.3703,-2.3437,-2.2726,-2.3206,-2.363,-2.3697,-2.4344,-2.4899,-2.5077,-2.5735,-2.5952,-2.5337,-2.5402,-2.552,-2.5435,-2.4879,-2.4506,-2.4657,-2.4346,-2.4246,-2.4803,-2.5,-2.5069,-2.5115,-2.516,-2.4927,-2.4164,-2.4504,-2.412,-2.2829,-2.2985,-2.2751,-2.1643,-2.1916,-2.193,-2.074,-2.097,-2.1277,-2.0554,-2.0443,-2.0417,-2.0489,-2.0508,-2.0517,-3.7612,0.0,-3.7218,-3.6932,0.0,-3.6109,-3.5715,-3.5285,-3.4578,-3.404,-3.3595,-3.287,-3.2745,-3.3003,-3.234,-3.2277,-3.2637,-3.187,-3.1524,-3.1488,-3.1091,-3.1109,-3.147,-3.1073,-3.1109,-3.1488,-3.1445,-3.1448,-3.1448,-3.1477,-3.1416,-3.1278,-3.0585,-3.0176,-3.0105,-2.9683,-2.9707,-3.02,-2.9767,-2.9372,-2.9008,-2.8528,-2.8443,-2.8772,-2.7665,0.0,0.0,0.0,0.0,0.0,0.0,0.0,0.0,-2.4445,0.0,-2.3872,-2.4083,-2.4072,-2.3741,-2.3689,-2.355,-2.3276,-2.3277,-2.3147,-2.2833,-2.3602,-2.4117,-2.4205,-2.4239,-2.4105,-2.3743,-2.3718,-2.3549,-2.3228,-2.3541,-2.3821,-2.3925,-2.4613,-2.5149,-2.5228,-2.563,-2.5784,-2.5411,-2.5465,-2.555,-2.5578,-2.5644,-2.5494,-2.5147,-2.4601,-2.4398,-2.4773,-2.4912,-2.4953,-2.4948,-2.5038,-2.4973,-2.4561,-2.4498,-2.4208,-2.3447,-2.3357,-2.3088,-2.2358,-2.2597,-2.2562,-2.1939,-2.1993,-2.2148,-2.1694,-2.1282,-2.101,-2.1017,-2.0728,-2.0456,-3.7793,-3.7703,-3.7703,-3.7649,-3.7541,-3.6899,-3.6613,-3.6559,0.0,0.0,0.0,-3.3741,-3.3382,-3.3176,-3.2627,-3.2313,-3.2152,-3.1502,-3.1196,-3.1214,-3.1229,-3.1556,-3.2131,-3.1534,-3.157,-3.2167,-3.2185,-3.217,-3.217,-3.217,-3.2122,-3.1879,-3.0482,-2.9572,-2.9267,-2.8649,-2.8649,-2.9235,-2.9396,-2.9177,-2.8569,-2.804,-2.8036,-2.8643,-2.7875,-2.7714,-2.8244,-2.8211,-2.8112,-2.7996,-2.7441,-2.7046,-2.6827,-2.6185,-2.5689,-2.5473,-2.5355,-2.5044,-2.4489,-2.4436,-2.4249,-2.3803,-2.3839,-2.3732,-2.3372,-2.3494,-2.3573,-2.3585,-2.3641,-2.3667,-2.3667,-2.3674,-2.3667,-2.3696,-2.3721,-2.3772,-2.384,-2.4422,-2.4827,-2.4885,-2.5108,-2.5254,-2.5262,-2.5336,-2.5387,-2.5479,-2.5897,-2.639,-2.5894,-2.5171,-2.4657,-2.4749,-2.4809,-2.4827,-2.4813,-2.4851,-2.494,-2.4845,-2.455,-2.4234,-2.4075,-2.371,-2.3323,-2.305,-2.3139,-2.3124,-2.2921,-2.2902,-2.2983,-2.2872,-2.2308,-2.1778,-2.1751,-2.1291,-2.0797,-3.7631,-3.7613,-3.7613,-3.7595,-3.7595,-3.7488,-3.7434,-3.7309,-3.5898,-3.5167,-3.506,-3.4953,-3.4542,-3.3953,-3.391,-3.3512,-3.2867,-3.2801,-3.2778,-3.276,-3.276,-3.2832,-3.2939,-3.285,-3.2832,-3.2924,-3.288,-3.2867,-3.2849,-3.2849,-3.2834,-3.2637,-3.1288,-2.9812,-2.8477,-2.8276,-2.8276,-2.8388,-2.8994,-2.928,-2.9187,-2.963,-2.9892,-2.9981,-2.9216,-2.8865,-2.8942,-2.8347,-2.8011,-2.8014,-2.7801,-2.7462,-2.6921,-2.6721,-2.6353,-2.5711,-2.5644,-2.5565,-2.542,-2.542,-2.538,-2.53,-2.5346,-2.4864,-2.3595,-2.3494,-2.3499,-2.3517,-2.3564,-2.3528,-2.3522,-2.3539,-2.3562,-2.3607,-2.3618,-2.3674,-2.3783,-2.3934,-2.4046,-2.4059,-2.4675,-2.5099,-2.5066,-2.5215,-2.5295,-2.5334,-2.556,-2.5815,-2.6152,-2.5464,-2.47,-2.4631,-2.4621,-2.4663,-2.4703,-2.4707,-2.4753,-2.4727,-2.53,-2.5332,-2.4709,-2.5018,-2.4904,-2.3845,-2.414,-2.4062,-2.3097,-2.3217,-2.3372,-2.3005,-2.2676,-2.256,-2.2596,-2.2436,-2.1957,-3.7503,-3.7337,-3.7318,-3.7223,-3.7089,-3.7225,-3.7318,-3.7265,-3.6573,-3.6078,-3.5811,-3.5383,-3.5008,-3.4686,-3.4309,-3.3932,-3.3575,-3.3176,-3.2993,-3.2993,-3.2977,-3.2993,-3.2995,-3.2977,-3.2977,-3.2977,-3.2963,-3.2948,-3.293,-3.2932,-3.2948,-3.2858,-3.1757,-3.0558,-2.9438,-2.9349,-2.9136,-2.8692,-2.8706,-2.8713,-2.8713,-2.9016,-2.915,-2.9168,-2.8795,-2.86,-2.8557,-2.8234,-2.8042,-2.8014,-2.794,-2.7777,-2.7496,-2.7044,-2.664,-2.6242,-2.5835,-2.5561,-2.5482,-2.5522,-2.5566,-2.5605,-2.5631,-2.5374,-2.4702,-2.4699,-2.4587,-2.4212,-2.4147,-2.3951,-2.3559,-2.3505,-2.3499,-2.3522,-2.3573,-2.3618,-2.3685,-2.3761,-2.3797,-2.3836,-2.415,-2.4381,-2.4399,-2.4855,-2.5199,-2.5192,-2.5275,-2.555,-2.5949,-2.5485,-2.5059,-2.5184,-2.5201,-2.5022,-2.4735,-2.4647,-2.4637,-2.4663,-2.5016,-2.5145,-2.4783,-2.5222,-2.5064,-2.4613,-2.4771,-2.4702,-2.3914,-2.4193,-2.4218,-2.4052,-2.3528,-2.337,-2.3315,-2.3035,-2.2469,-3.7421,-3.7108,-3.7013,-3.6836,-3.6635,-3.6876,-3.6974,-3.6974,-3.6974,-3.6775,-3.6379,-3.5776,-3.5457,-3.5314,-3.4745,-3.444,-3.4259,-3.3703,-3.3435,-3.3435,-3.3435,-3.3418,-3.3435,-3.3418,-3.3435,-3.3418,-3.3418,-3.3418,-3.3418,-3.3418,-3.3205,-3.2832,-3.2022,-3.1146,-3.0325,-3.0307,-2.9973,-2.9369,-2.8919,-2.851,-2.8172,-2.8154,-2.8154,-2.8154,-2.8172,-2.8144,-2.8085,-2.8085,-2.8056,-2.7996,-2.7982,-2.7982,-2.7965,-2.737,-2.701,-2.6884,-2.6331,-2.5942,-2.59,-2.5952,-2.601,-2.6037,-2.6078,-2.6109,-2.6091,-2.6193,-2.5905,-2.5104,-2.4908,-2.4658,-2.4207,-2.4076,-2.4005,-2.4022,-2.3908,-2.3907,-2.3882,-2.3822,-2.3761,-2.3783,-2.3779,-2.38,-2.3911,-2.4378,-2.4846,-2.507,-2.5199,-2.5299,-2.5502,-2.5583,-2.5675,-2.5625,-2.5773,-2.5633,-2.4996,-2.4864,-2.4806,-2.4665,-2.4626,-2.4693,-2.4692,-2.4678,-2.4716,-2.4806,-2.4861,-2.4842,-2.4876,-2.4877,-2.4858,-2.4707,-2.4334,-2.4043,-2.403,-2.3683,-2.3177,-3.7466,-3.7085,-3.6809,-3.6615,-3.6591,-3.6615,-3.6635,-3.6635,-3.6652,-3.6638,-3.6539,-3.6501,-3.6206,-3.5855,-3.5752,-3.5456,-3.508,-3.5008,-3.4919,-3.4919,-3.4989,-3.4972,-3.4883,-3.4936,-3.4989,-3.4919,-3.4901,-3.4848,-3.4848,-3.4865,-3.4225,-3.2876,-3.1945,-3.1154,-3.0415,-3.0344,-3.0274,-3.0185,-3.013,-2.942,-2.8117,-2.8028,-2.8028,-2.8028,-2.8028,-2.8014,-2.8014,-2.8014,-2.7996,-2.8014,-2.7982,-2.7982,-2.7968,-2.7808,-2.7683,-2.7607,-2.7467,-2.739,-2.7372,-2.7446,-2.7391,-2.7437,-2.7484,-2.7542,-2.7449,-2.7646,-2.716,-2.5998,-2.5638,-2.5588,-2.5579,-2.5503,-2.5413,-2.5354,-2.4938,-2.4611,-2.4605,-2.4037,-2.3641,-2.37,-2.3855,-2.3732,-2.384,-2.3923,-2.4273,-2.4882,-2.4969,-2.5193,-2.5765,-2.5998,-2.5865,-2.5629,-2.5986,-2.6216,-2.5699,-2.5597,-2.5382,-2.4845,-2.4655,-2.4777,-2.486,-2.4765,-2.4639,-2.4896,-2.4679,-2.4676,-2.4684,-2.4665,-2.4734,-2.4757,-2.4662,-2.4674,-2.4788,-2.4689,-2.4456,-3.8165,-3.7827,-3.721,-3.659,-3.6079,-3.622,-3.6287,-3.6287,-3.6287,-3.6287,-3.6284,-3.6092,-3.6115,-3.6269,-3.5985,-3.5731,-3.5525,-3.5279,-3.5153,-3.5153,-3.5187,-3.5204,-3.5204,-3.5204,-3.5204,-3.5186,-3.517,-3.5153,-3.5047,-3.4639,-3.4003,-3.3315,-3.2504,-3.1889,-3.1557,-3.1557,-3.1312,-3.0853,-3.0835,-3.0307,-2.9319,-2.8862,-2.8658,-2.8605,-2.823,-2.7971,-2.7929,-2.7946,-2.7914,-2.7836,-2.7821,-2.7824,-2.7766,-2.7704,-2.7659,-2.7567,-2.7539,-2.7542,-2.7524,-2.7554,-2.7587,-2.7559,-2.7602,-2.7632,-2.7585,-2.7692,-2.7464,-2.6989,-2.656,-2.6215,-2.5854,-2.576,-2.5755,-2.5752,-2.5533,-2.5354,-2.5361,-2.5129,-2.4843,-2.4477,-2.4751,-2.466,-2.3974,-2.3732,-2.3909,-2.4263,-2.4357,-2.4614,-2.4867,-2.5281,-2.5495,-2.5371,-2.5931,-2.6164,-2.5724,-2.6012,-2.6023,-2.5885,-2.5829,-2.5838,-2.5709,-2.5402,-2.5206,-2.5232,-2.4876,-2.4649,-2.4623,-2.4604,-2.4637,-2.4645,-2.4695,-2.4757,-2.4779,-2.4856,-2.4922,-3.805,-3.7688,-3.7028,-3.6315,-3.5622,-3.5854,-3.5963,-3.5946,-3.5963,-3.5963,-3.5941,-3.5694,-3.5871,-3.6236,-3.6003,-3.5972,-3.6057,-3.5789,-3.5651,-3.5705,-3.5759,-3.5776,-3.5776,-3.5723,-3.5723,-3.5741,-3.5615,-3.5579,-3.5509,-3.4712,-3.4269,-3.4092,-3.3196,-3.2599,-3.2493,-3.2354,-3.1952,-3.1359,-3.1358,-3.1096,-3.0452,-2.9591,-2.9103,-2.8994,-2.8317,-2.7896,-2.7842,-2.7845,-2.7783,-2.7672,-2.7674,-2.763,-2.7587,-2.7574,-2.7529,-2.7467,-2.7467,-2.7483,-2.7465,-2.7496,-2.7496,-2.7465,-2.7481,-2.7496,-2.7481,-2.7526,-2.7572,-2.7497,-2.7163,-2.6669,-2.645,-2.634,-2.6348,-2.6378,-2.6236,-2.6088,-2.6083,-2.5997,-2.5593,-2.5237,-2.5488,-2.547,-2.4374,-2.4217,-2.4377,-2.3934,-2.3999,-2.3967,-2.3901,-2.4371,-2.4747,-2.4784,-2.5474,-2.5818,-2.5503,-2.5755,-2.6236,-2.6108,-2.5916,-2.612,-2.6423,-2.5938,-2.5921,-2.5875,-2.5235,-2.4889,-2.4925,-2.4876,-2.4646,-2.4626,-2.4687,-2.4738,-2.4684,-2.4753,-2.5032,-3.6633,-3.6199,-3.5829,-3.5729,-3.5622,-3.5644,-3.5644,-3.565,-3.5627,-3.5627,-3.5627,-3.56,-3.5622,-3.5711,-3.5942,-3.6381,-3.686,-3.6814,-3.6858,-3.7011,-3.7102,-3.7173,-3.719,-3.7018,-3.6983,-3.6939,-3.654,-3.6531,-3.6726,-3.5908,-3.5518,-3.5376,-3.3846,-3.2964,-3.271,-3.2255,-3.1802,-3.162,-3.1717,-3.1682,-3.1253,-2.9949,-2.9143,-2.8958,-2.814,-2.7771,-2.7721,-2.7662,-2.7617,-2.7619,-2.7557,-2.7511,-2.7496,-2.7454,-2.7376,-2.7329,-2.736,-2.7392,-2.7392,-2.7419,-2.7419,-2.7407,-2.7388,-2.745,-2.7359,-2.7404,-2.7371,-2.7228,-2.7173,-2.7272,-2.7589,-2.7536,-2.7667,-2.7681,-2.715,-2.684,-2.6841,-2.6308,-2.5801,-2.574,-2.5795,-2.5588,-2.4903,-2.5428,-2.5051,-2.4383,-2.4406,-2.4626,-2.4064,-2.3937,-2.4002,-2.4114,-2.4591,-2.5175,-2.5254,-2.5672,-2.5297,-2.5262,-2.5744,-2.5636,-2.5785,-2.5979,-2.6313,-2.6435,-2.5763,-2.5394,-2.5375,-2.5179,-2.4859,-2.4762,-2.4779,-2.4785,-2.4661,-2.4674,-2.4845,-3.7136,-3.6554,-3.6435,-3.6079,-3.5616,-3.5616,-3.5616,-3.5583,-3.5566,-3.5543,-3.5543,-3.5543,-3.5543,-3.5543,-3.5711,-3.598,-3.6343,-3.6568,-3.671,-3.6809,-3.6814,-3.6853,-3.6816,-3.6774,-3.6774,-3.6811,-3.665,-3.6547,-3.6443,-3.5726,-3.5342,-3.5149,-3.4145,-3.353,-3.3392,-3.27,-3.2282,-3.2248,-3.191,-3.1579,-3.1416,-3.0458,-2.9863,-2.973,-2.8773,-2.8161,-2.8099,-2.8274,-2.8109,-2.7559,-2.7511,-2.7481,-2.7438,-2.7376,-2.7313,-2.7299,-2.7202,-2.7121,-2.7121,-2.7038,-2.6972,-2.6957,-2.6973,-2.7006,-2.6973,-2.7022,-2.7021,-2.6955,-2.7021,-2.7181,-2.734,-2.7557,-2.7689,-2.7695,-2.7635,-2.7525,-2.7567,-2.7319,-2.7009,-2.6561,-2.6137,-2.5867,-2.6058,-2.6029,-2.566,-2.5261,-2.5345,-2.5135,-2.4642,-2.4431,-2.4266,-2.3898,-2.4024,-2.4284,-2.4327,-2.5426,-2.5928,-2.5847,-2.5978,-2.6033,-2.6146,-2.5776,-2.5925,-2.6019,-2.5665,-2.5521,-2.5392,-2.5856,-2.5467,-2.5253,-2.5262,-2.5092,-2.4632,-2.4808,-2.4758,-3.6774,-3.6352,-3.6302,-3.5998,-3.5503,-3.5503,-3.5503,-3.5487,-3.5469,-3.5423,-3.5446,-3.5446,-3.5446,-3.5446,-3.5481,-3.5577,-3.58,-3.6148,-3.636,-3.6423,-3.6489,-3.6492,-3.6492,-3.643,-3.643,-3.6451,-3.6339,-3.6212,-3.6054,-3.557,-3.533,-3.5278,-3.4396,-3.398,-3.3857,-3.3148,-3.2652,-3.2326,-3.1905,-3.1565,-3.1162,-3.0429,-3.0137,-3.0173,-2.9396,-2.8785,-2.8579,-2.8539,-2.8275,-2.7709,-2.7384,-2.7231,-2.7185,-2.7361,-2.7448,-2.7449,-2.7555,-2.7487,-2.7283,-2.7114,-2.6945,-2.6708,-2.6674,-2.6674,-2.6691,-2.6725,-2.6725,-2.6708,-2.6741,-2.6808,-2.6808,-2.7006,-2.7246,-2.7402,-2.7567,-2.7689,-2.7733,-2.7716,-2.751,-2.7183,-2.6863,-2.677,-2.6836,-2.6637,-2.6276,-2.59,-2.5818,-2.5575,-2.5219,-2.4878,-2.4662,-2.4199,-2.4404,-2.4455,-2.455,-2.5369,-2.5426,-2.5321,-2.5761,-2.5987,-2.5969,-2.5604,-2.55,-2.5557,-2.5507,-2.5431,-2.5673,-2.6229,-2.6222,-2.5947,-2.5958,-2.5866,-2.5458,-2.5058,-2.5066,-3.5381,-3.5381,-3.5325,-3.5381,-3.5331,-3.5337,-3.5314,-3.5331,-3.5291,-3.5291,-3.5291,-3.5291,-3.5308,-3.5308,-3.5337,-3.5314,-3.5435,-3.5817,-3.6062,-3.6195,-3.6237,-3.6237,-3.6216,-3.6062,-3.6045,-3.6195,-3.5971,-3.5734,-3.5627,-3.556,-3.5543,-3.5414,-3.4739,-3.4269,-3.404,-3.3498,-3.273,-3.2117,-3.2018,-3.1562,-3.0584,-2.9938,-2.9834,-3.027,-2.9882,-2.9486,-2.9119,-2.8456,-2.81,-2.7861,-2.7199,-2.6742,-2.6928,-2.747,-2.7807,-2.7908,-2.8431,-2.8448,-2.789,-2.7754,-2.7381,-2.6876,-2.6674,-2.6639,-2.659,-2.6556,-2.6504,-2.6418,-2.6401,-2.6365,-2.6311,-2.6502,-2.6742,-2.694,-2.7086,-2.7166,-2.7213,-2.7213,-2.7321,-2.7539,-2.7589,-2.761,-2.7266,-2.7254,-2.7039,-2.618,-2.5915,-2.5888,-2.5688,-2.5323,-2.4926,-2.4879,-2.5004,-2.5057,-2.5165,-2.5249,-2.4781,-2.4493,-2.511,-2.5528,-2.5361,-2.5092,-2.5307,-2.5394,-2.534,-2.5275,-2.5768,-2.624,-2.6326,-2.62,-2.6386,-2.6296,-2.5873,-2.544,-2.5551,-3.576,-3.5325,-3.5308,-3.5308,-3.5308,-3.5308,-3.5308,-3.5308,-3.5222,-3.5158,-3.5158,-3.5158,-3.5175,-3.5198,-3.5261,-3.5308,-3.5314,-3.5475,-3.5549,-3.56,-3.5622,-3.5622,-3.5616,-3.5571,-3.5532,-3.5594,-3.5503,-3.5435,-3.5406,-3.5389,-3.5406,-3.5299,-3.504,-3.4877,-3.4787,-3.4068,-3.3422,-3.3217,-3.223,-3.1551,-3.1153,-3.0471,-3.0166,-3.0225,-3.0112,-2.9968,-2.9838,-2.9437,-2.8945,-2.8401,-2.7662,-2.7259,-2.7376,-2.7946,-2.833,-2.8345,-2.84,-2.8443,-2.8208,-2.7997,-2.7642,-2.7011,-2.6829,-2.6599,-2.629,-2.6188,-2.6136,-2.6118,-2.6136,-2.61,-2.6099,-2.6221,-2.645,-2.6708,-2.6875,-2.6989,-2.7021,-2.7133,-2.7228,-2.7338,-2.7539,-2.7507,-2.7414,-2.7565,-2.7355,-2.6967,-2.6804,-2.6664,-2.6205,-2.5934,-2.5605,-2.5275,-2.55,-2.5681,-2.5614,-2.567,-2.5491,-2.5093,-2.5314,-2.5306,-2.5054,-2.4825,-2.505,-2.507,-2.5049,-2.5306,-2.5818,-2.6146,-2.6258,-2.6041,-2.586,-2.578,-2.5765,-2.574,-2.5686,-3.6235,-3.5585,-3.5552,-3.5385,-3.5152,-3.5152,-3.5135,-3.5152,-3.5065,-3.5018,-3.5018,-3.5018,-3.5018,-3.5041,-3.5128,-3.5135,-3.5152,-3.5135,-3.5152,-3.5175,-3.5268,-3.5308,-3.5308,-3.5308,-3.5268,-3.5222,-3.5205,-3.5198,-3.5152,-3.5152,-3.5152,-3.5128,-3.5081,-3.5065,-3.5118,-3.4545,-3.415,-3.3798,-3.294,-3.2139,-3.1539,-3.1061,-3.0575,-3.0211,-3.0124,-3.0119,-3.007,-2.9906,-2.9526,-2.881,-2.808,-2.7699,-2.7732,-2.8362,-2.8777,-2.8807,-2.8927,-2.8929,-2.8662,-2.8516,-2.8092,-2.747,-2.7035,-2.6746,-2.6344,-2.6094,-2.5864,-2.5954,-2.5956,-2.5972,-2.5972,-2.6043,-2.6185,-2.6364,-2.6572,-2.6708,-2.6741,-2.6907,-2.7005,-2.7053,-2.7214,-2.7324,-2.7371,-2.7373,-2.7355,-2.7353,-2.7145,-2.7076,-2.6606,-2.6454,-2.6034,-2.5857,-2.619,-2.6174,-2.5949,-2.603,-2.6233,-2.5999,-2.5819,-2.5478,-2.5116,-2.4748,-2.4712,-2.4484,-2.4383,-2.4906,-2.54,-2.5979,-2.6235,-2.5819,-2.5439,-2.585,-2.6031,-2.5603,-2.5513,-3.6738,-3.6108,-3.6059,-3.5718,-3.5171,-3.5089,-3.5072,-3.5006,-3.4899,-3.4923,-3.4923,-3.5055,-3.4989,-3.4932,-3.5063,-3.5079,-3.4923,-3.4947,-3.4947,-3.4994,-3.5128,-3.5245,-3.5222,-3.5222,-3.5175,-3.5105,-3.5105,-3.5018,-3.497,-3.4947,-3.4899,-3.4947,-3.4947,-3.4899,-3.493,-3.4883,-3.4542,-3.4028,-3.3756,-3.296,-3.1797,-3.1561,-3.1068,-3.0196,-3.0141,-3.0065,-2.9946,-2.9908,-2.9647,-2.9066,-2.8469,-2.8207,-2.8203,-2.8743,-2.9157,-2.919,-2.9812,-2.966,-2.9283,-2.9132,-2.8805,-2.8065,-2.7463,-2.6889,-2.6904,-2.6474,-2.6162,-2.6255,-2.6225,-2.6159,-2.6176,-2.6079,-2.6102,-2.6008,-2.6205,-2.6311,-2.6347,-2.6555,-2.6674,-2.6725,-2.6907,-2.7069,-2.7101,-2.707,-2.7069,-2.7016,-2.6655,-2.6606,-2.6758,-2.6631,-2.639,-2.6457,-2.6621,-2.6612,-2.6348,-2.6479,-2.6633,-2.6501,-2.6255,-2.5829,-2.5323,-2.4916,-2.4463,-2.4194,-2.4076,-2.4569,-2.483,-2.5257,-2.5543,-2.5276,-2.5422,-2.6103,-2.6027,-2.5444,-2.5413,-3.7483,-3.6837,-3.682,-3.6704,-3.6456,-3.5976,-3.5711,-3.5628,-3.5131,-3.4998,-3.5015,-3.5479,-3.5429,-3.4998,-3.5479,-3.5446,-3.5048,-3.4899,-3.4899,-3.4899,-3.497,-3.5018,-3.4994,-3.5018,-3.4994,-3.497,-3.4987,-3.4963,-3.4923,-3.4899,-3.4899,-3.4899,-3.4899,-3.4899,-3.4899,-3.4899,-3.4816,-3.4551,-3.3928,-3.3472,-3.2912,-3.2279,-3.157,-3.0762,-3.0642,-3.0383,-2.9961,-2.9896,-2.9578,-2.9004,-2.9269,-2.9139,-2.8733,-2.9253,-2.9632,-2.9697,-2.9843,-2.9941,-2.9724,-2.968,-2.9318,-2.8679,-2.8322,-2.8078,-2.7639,-2.7367,-2.7237,-2.7329,-2.7365,-2.7316,-2.7271,-2.6888,-2.647,-2.6034,-2.6094,-2.6202,-2.6222,-2.6313,-2.6418,-2.6418,-2.6572,-2.6657,-2.6691,-2.6708,-2.6691,-2.6674,-2.6573,-2.6421,-2.6639,-2.6707,-2.6464,-2.6568,-2.6705,-2.6786,-2.6834,-2.695,-2.6982,-2.6897,-2.6628,-2.6281,-2.5764,-2.5265,-2.4765,-2.4307,-2.4196,-2.4513,-2.4076,-2.3998,-2.4181,-2.4544,-2.4536,-2.4755,-2.5102,-2.4904,-2.5247,-3.8245,-3.7557,-3.754,-3.7358,-3.7085,-3.6655,-3.6456,-3.639,-3.6025,-3.5761,-3.5852,-3.6233,-3.6175,-3.5803,-3.5869,-3.5679,-3.529,-3.496,-3.4763,-3.4739,-3.4804,-3.4851,-3.4899,-3.4923,-3.4899,-3.4899,-3.4899,-3.4923,-3.4899,-3.4899,-3.4899,-3.4899,-3.4899,-3.4875,-3.4804,-3.4828,-3.4804,-3.4649,-3.4182,-3.3807,-3.3312,-3.2874,-3.221,-3.1445,-3.1098,-3.0581,-2.9944,-2.9808,-2.9626,-2.9443,-2.9653,-2.9686,-2.9362,-2.9637,-2.9896,-2.9896,-2.9896,-2.9896,-2.9896,-2.9896,-2.9702,-2.9281,-2.9054,-2.867,-2.8269,-2.7952,-2.7741,-2.7749,-2.7818,-2.7818,-2.7725,-2.7235,-2.6738,-2.6381,-2.6167,-2.6112,-2.6114,-2.6152,-2.6189,-2.6259,-2.6346,-2.6433,-2.6416,-2.6451,-2.6485,-2.6502,-2.6537,-2.647,-2.652,-2.6537,-2.6554,-2.6589,-2.664,-2.6708,-2.6741,-2.6825,-2.6925,-2.6891,-2.6854,-2.6523,-2.6146,-2.564,-2.5262,-2.4832,-2.4524,-2.4185,-2.3814,-2.347,-2.3442,-2.3614,-2.3389,-2.3554,-2.4028,-2.4355,-2.4753,-3.8907,-3.8328,-3.8328,-3.7947,-3.7433,-3.7226,-3.7193,-3.7193,-3.6994,-3.6868,-3.6851,-3.7034,-3.69,-3.6823,-3.6346,-3.6,-3.5852,-3.5358,-3.5046,-3.4988,-3.5013,-3.5094,-3.5018,-3.4925,-3.4875,-3.4875,-3.4875,-3.4851,-3.4828,-3.4851,-3.4851,-3.4828,-3.4828,-3.4804,-3.4691,-3.4683,-3.4618,-3.4546,-3.4431,-3.4047,-3.3559,-3.3315,-3.2901,-3.2181,-3.1438,-3.0858,-3.028,-2.9977,-2.9893,-2.9972,-2.9923,-2.9798,-2.9804,-2.9852,-2.9852,-2.983,-2.983,-2.983,-2.9852,-2.983,-2.983,-2.9653,-2.9184,-2.8882,-2.8779,-2.8419,-2.8149,-2.8202,-2.7948,-2.8082,-2.7871,-2.7364,-2.7095,-2.6903,-2.6442,-2.6192,-2.6151,-2.6105,-2.6043,-2.615,-2.6224,-2.6259,-2.6294,-2.6364,-2.6415,-2.6276,-2.6311,-2.6329,-2.6363,-2.638,-2.6415,-2.6433,-2.6486,-2.6555,-2.6606,-2.664,-2.6725,-2.6775,-2.6825,-2.6653,-2.6426,-2.6035,-2.5781,-2.5475,-2.5138,-2.4587,-2.3976,-2.3628,-2.336,-2.3102,-2.3163,-2.3241,-2.3389,-2.3554,-2.385,-3.9216,-3.9083,-3.9056,-3.8984,-3.8725,-3.8228,-3.7954,-3.7921,-3.7239,-3.7056,-3.7021,-3.737,-3.7236,-3.6708,-3.6987,-3.7006,-3.643,-3.6151,-3.6168,-3.6151,-3.6151,-3.5858,-3.549,-3.5192,-3.4861,-3.478,-3.4756,-3.4707,-3.4618,-3.4618,-3.4611,-3.4643,-3.4734,-3.4603,-3.4644,-3.4718,-3.4562,-3.4489,-3.4431,-3.4308,-3.4112,-3.3867,-3.3494,-3.2805,-3.2101,-3.1713,-3.1408,-3.0838,-3.0525,-3.038,-2.9974,-2.9688,-2.9624,-2.9608,-2.9608,-2.9608,-2.9608,-2.9608,-2.9586,-2.9608,-2.9586,-2.9576,-2.9454,-2.9361,-2.9361,-2.9273,-2.9204,-2.9274,-2.9345,-2.9011,-2.8574,-2.8454,-2.8017,-2.7563,-2.7308,-2.7237,-2.7271,-2.6566,-2.6065,-2.6069,-2.604,-2.6007,-2.6007,-2.6059,-2.6096,-2.6043,-2.6079,-2.6115,-2.6169,-2.6239,-2.6257,-2.6258,-2.6293,-2.6397,-2.6683,-2.6703,-2.6723,-2.6657,-2.6674,-2.6742,-2.6487,-2.6416,-2.6154,-2.5961,-2.5752,-2.5126,-2.4468,-2.396,-2.37,-2.3345,-2.3079,-2.3309,-2.344,-2.3265,-2.336,-3.9218,-3.9067,-3.9148,-3.9121,-3.9017,-3.8628,-3.848,-3.8414,-3.7988,-3.7771,-3.7756,-3.809,-3.784,-3.7221,-3.7253,-3.6999,-3.6745,-3.6527,-3.6698,-3.6822,-3.6708,-3.648,-3.6466,-3.5883,-3.5399,-3.4791,-3.4594,-3.4546,-3.4521,-3.4562,-3.4718,-3.4988,-3.5021,-3.5274,-3.5362,-3.5337,-3.5426,-3.5268,-3.4841,-3.4653,-3.4679,-3.4171,-3.3611,-3.3055,-3.2539,-3.2265,-3.1758,-3.1389,-3.1125,-3.0886,-3.0336,-2.977,-2.9544,-2.9496,-2.9496,-2.9496,-2.9496,-2.9496,-2.9518,-2.9496,-2.9518,-2.9496,-2.9496,-2.9496,-2.9496,-2.9563,-2.9586,-2.9608,-2.9589,-2.951,-2.9134,-2.8699,-2.8415,-2.8183,-2.7812,-2.7676,-2.762,-2.6922,-2.6531,-2.6637,-2.6395,-2.6313,-2.6229,-2.6225,-2.6012,-2.6102,-2.602,-2.604,-2.6007,-2.6059,-2.6043,-2.6061,-2.6081,-2.6267,-2.6652,-2.6809,-2.6764,-2.6633,-2.6417,-2.652,-2.6488,-2.6522,-2.6522,-2.6317,-2.6091,-2.5743,-2.5133,-2.4616,-2.4187,-2.4055,-2.3908,-2.3784,-2.376,-2.3836,-2.3984,-3.9067,-3.8805,-3.8914,-3.8914,-3.8805,-3.8772,-3.8756,-3.8772,-3.8777,-3.8531,-3.8572,-3.8639,-3.8157,-3.7799,-3.7294,-3.7026,-3.7084,-3.7002,-3.7319,-3.7575,-3.7219,-3.7091,-3.7135,-3.6731,-3.5964,-3.4815,-3.4914,-3.4939,-3.4914,-3.4816,-3.5223,-3.5617,-3.5698,-3.5817,-3.6234,-3.6354,-3.6198,-3.6022,-3.5538,-3.5311,-3.5208,-3.4494,-3.3726,-3.3148,-3.3271,-3.2867,-3.2312,-3.1886,-3.1709,-3.1556,-3.0911,-3.0258,-2.9763,-2.9482,-2.9428,-2.9428,-2.9405,-2.9389,-2.9389,-2.9428,-2.9428,-2.945,-2.9428,-2.9428,-2.9428,-2.945,-2.9457,-2.948,-2.9486,-2.9525,-2.9432,-2.9076,-2.8768,-2.8635,-2.8153,-2.7906,-2.7833,-2.7433,-2.7525,-2.7614,-2.7117,-2.6804,-2.679,-2.679,-2.6433,-2.6122,-2.6075,-2.6026,-2.6042,-2.593,-2.5983,-2.5952,-2.599,-2.6286,-2.6687,-2.6592,-2.6601,-2.6651,-2.637,-2.6325,-2.6414,-2.6417,-2.6436,-2.6556,-2.6368,-2.6009,-2.5665,-2.5152,-2.4846,-2.4795,-2.4313,-2.3773,-2.3924,-2.4372,-2.4347,-3.886,-3.8805,-3.8832,-3.8805,-3.8805,-3.8805,-3.8777,-3.8777,-3.8655,-3.8616,-3.8548,-3.8151,-3.7924,-3.7737,-3.7805,-3.8013,-3.82,-3.8182,-3.8256,-3.8366,-3.8075,-3.7998,-3.748,-3.7406,-3.6582,-3.5781,-3.5765,-3.5989,-3.5811,-3.5999,-3.5859,-3.6113,-3.6204,-3.6324,-3.6437,-3.6362,-3.6524,-3.6535,-3.6174,-3.6045,-3.584,-3.5196,-3.4342,-3.3729,-3.4101,-3.4005,-3.3326,-3.2682,-3.2344,-3.2256,-3.1512,-3.0806,-3.0228,-2.9673,-2.9326,-2.9167,-2.9206,-2.9213,-2.919,-2.9167,-2.9183,-2.9183,-2.9206,-2.9183,-2.9206,-2.9259,-2.9305,-2.935,-2.9412,-2.9496,-2.9496,-2.9243,-2.9304,-2.9262,-2.9134,-2.9028,-2.896,-2.8614,-2.8107,-2.809,-2.7685,-2.7364,-2.742,-2.7358,-2.7098,-2.6854,-2.6743,-2.6661,-2.6648,-2.6327,-2.6042,-2.5979,-2.5934,-2.6325,-2.677,-2.6459,-2.6332,-2.6611,-2.6447,-2.6204,-2.6246,-2.6219,-2.6277,-2.6351,-2.6404,-2.6219,-2.588,-2.5591,-2.5199,-2.4894,-2.4264,-2.3631,-2.3888,-2.4162,-2.3517,-3.8583,-3.8274,-3.8572,-3.8655,-3.8616,-3.86,-3.86,-3.8572,-3.8532,-3.8476,-3.8432,-3.827,-3.8,-3.7901,-3.7996,-3.825,-3.8513,-3.8819,-3.8809,-3.8748,-3.8701,-3.859,-3.8104,-3.8088,-3.7589,-3.7044,-3.7015,-3.6476,-3.5653,-3.5746,-3.6101,-3.6472,-3.6658,-3.6999,-3.7307,-3.7452,-3.73,-3.7196,-3.684,-3.6603,-3.6538,-3.5814,-3.5017,-3.4569,-3.4809,-3.484,-3.4229,-3.3815,-3.355,-3.3334,-3.2482,-3.1806,-3.1242,-3.0599,-2.9793,-2.9234,-2.9084,-2.9068,-2.9029,-2.9052,-2.9114,-2.9114,-2.9114,-2.9114,-2.9114,-2.9167,-2.919,-2.9213,-2.9213,-2.9298,-2.9298,-2.9298,-2.9321,-2.9389,-2.9412,-2.9434,-2.9416,-2.9188,-2.887,-2.8437,-2.7973,-2.7842,-2.8151,-2.8037,-2.7769,-2.7575,-2.7417,-2.7324,-2.7243,-2.674,-2.6259,-2.6435,-2.6432,-2.6581,-2.6938,-2.6747,-2.6558,-2.672,-2.6584,-2.6346,-2.614,-2.6148,-2.61,-2.6099,-2.6142,-2.6147,-2.6286,-2.6051,-2.5529,-2.5072,-2.4736,-2.4399,-2.408,-2.3762,-2.3125,-3.8087,-3.7612,-3.8194,-3.8386,-3.8332,-3.8447,-3.8431,-3.8332,-3.8303,-3.8194,-3.8129,-3.8171,-3.8044,-3.7917,-3.8067,-3.8306,-3.8446,-3.8872,-3.8976,-3.8955,-3.8972,-3.8942,-3.8884,-3.8837,-3.8433,-3.781,-3.753,-3.6878,-3.5884,-3.5802,-3.615,-3.6622,-3.711,-3.7592,-3.7939,-3.8008,-3.8221,-3.7958,-3.7523,-3.707,-3.6738,-3.6434,-3.5696,-3.4863,-3.5399,-3.5474,-3.4784,-3.4614,-3.4413,-3.408,-3.3414,-3.2679,-3.2295,-3.1703,-3.0681,-2.9555,-2.9297,-2.9202,-2.9187,-2.8975,-2.8998,-2.8998,-2.9021,-2.9037,-2.9037,-2.9037,-2.9037,-2.9045,-2.9045,-2.9045,-2.906,-2.9068,-2.9121,-2.919,-2.9236,-2.9282,-2.9321,-2.9248,-2.9232,-2.8812,-2.8303,-2.8324,-2.8635,-2.878,-2.8544,-2.8361,-2.8183,-2.7872,-2.769,-2.702,-2.6679,-2.6979,-2.7091,-2.7068,-2.7164,-2.718,-2.7109,-2.7263,-2.6919,-2.6538,-2.6294,-2.6113,-2.6008,-2.5913,-2.5809,-2.5872,-2.6188,-2.6383,-2.5866,-2.5464,-2.5363,-2.4828,-2.3893,-2.3311,-2.2781,-3.7071,-3.7059,-3.77,-3.7966,-3.809,-3.8592,-3.8482,-3.8028,-3.8027,-3.759,-3.7382,-3.7374,-3.752,-3.763,-3.8171,-3.8697,-3.9073,-3.9224,-3.9232,-3.9127,-3.9149,-3.909,-3.8942,-3.8915,-3.8635,-3.8177,-3.7636,-3.7125,-3.6522,-3.6487,-3.6685,-3.6946,-3.7336,-3.7634,-3.7592,-3.7931,-3.8107,-3.7931,-3.7777,-3.7384,-3.6928,-3.7211,-3.6616,-3.5915,-3.5962,-3.6118,-3.5435,-3.5292,-3.5047,-3.4368,-3.4089,-3.3222,-3.2191,-3.1826,-3.1285,-3.0585,-3.0123,-2.9878,-2.9791,-2.9461,-2.9147,-2.9202,-2.91,-2.8889,-2.8967,-2.8982,-2.8973,-2.8842,-2.8873,-2.8794,-2.8794,-2.8865,-2.892,-2.8904,-2.8881,-2.8943,-2.899,-2.8881,-2.892,-2.885,-2.8268,-2.8719,-2.9147,-2.9278,-2.9345,-2.9127,-2.8892,-2.8522,-2.8169,-2.7556,-2.6962,-2.7194,-2.732,-2.7278,-2.73,-2.7332,-2.7422,-2.763,-2.729,-2.6814,-2.6635,-2.6377,-2.5868,-2.5758,-2.5646,-2.5597,-2.5826,-2.5929,-2.5893,-2.5511,-2.4926,-2.4116,-2.3203,-2.2727,-2.2305,-3.7146,-3.714,-3.7654,-3.8137,-3.8464,-3.8775,-3.8728,-3.8527,-3.848,-3.8309,-3.8105,-3.8258,-3.8363,-3.8439,-3.8867,-3.9095,-3.9343,-3.9358,-3.9361,-3.9289,-3.9254,-3.9238,-3.9206,-3.9173,-3.8895,-3.8395,-3.7975,-3.7389,-3.7063,-3.6952,-3.7062,-3.7095,-3.7498,-3.7554,-3.7195,-3.7519,-3.761,-3.7596,-3.7581,-3.7454,-3.7295,-3.7358,-3.7107,-3.6058,-3.6701,-3.6545,-3.6108,-3.5963,-3.5824,-3.5357,-3.5121,-3.4589,-3.4014,-3.3799,-3.3477,-3.2654,-3.1714,-3.1042,-3.0504,-3.0212,-3.0024,-3.0097,-3.0042,-2.997,-2.9501,-2.9308,-2.8958,-2.8348,-2.8808,-2.8799,-2.84,-2.8359,-2.8334,-2.8319,-2.8367,-2.8391,-2.8391,-2.8391,-2.8328,-2.8328,-2.8288,-2.8543,-2.8787,-2.8756,-2.8795,-2.8824,-2.8728,-2.8579,-2.8462,-2.8306,-2.7731,-2.7252,-2.7337,-2.7359,-2.7413,-2.7451,-2.7451,-2.7612,-2.7657,-2.7264,-2.7094,-2.6776,-2.6184,-2.5709,-2.5529,-2.5524,-2.5538,-2.5505,-2.5505,-2.4933,-2.4297,-2.368,-2.303,-2.2053,-2.1779,-3.7357,-3.7301,-3.778,-3.8327,-3.8789,-3.8959,-3.891,-3.8741,-3.8541,-3.8479,-3.8613,-3.8769,-3.9013,-3.9122,-3.902,-3.8931,-3.8871,-3.9044,-3.9155,-3.9185,-3.9298,-3.9364,-3.9367,-3.9326,-3.9116,-3.8601,-3.8102,-3.7717,-3.7338,-3.6962,-3.6873,-3.6814,-3.7078,-3.708,-3.6909,-3.7028,-3.7164,-3.7043,-3.715,-3.7134,-3.7103,-3.7254,-3.6897,-3.6679,-3.6803,-3.6974,-3.6416,-3.6247,-3.6187,-3.5706,-3.5262,-3.4756,-3.4419,-3.4133,-3.3796,-3.3069,-3.2233,-3.164,-3.1029,-3.0685,-3.0844,-3.0832,-3.0791,-3.013,-2.9551,-2.9573,-2.9444,-2.8387,-2.8772,-2.863,-2.8147,-2.8067,-2.7986,-2.7861,-2.7715,-2.7715,-2.7725,-2.779,-2.7799,-2.7775,-2.7725,-2.764,-2.7815,-2.7913,-2.8061,-2.8328,-2.8424,-2.8472,-2.8456,-2.8425,-2.8011,-2.733,-2.7408,-2.7471,-2.7565,-2.7604,-2.7612,-2.7566,-2.7651,-2.7604,-2.738,-2.6941,-2.6382,-2.5938,-2.5573,-2.5255,-2.5144,-2.5131,-2.5086,-2.4716,-2.4305,-2.3738,-2.2984,-2.1928,-2.1463,-3.7389,-3.7424,-3.8127,-3.8432,-3.8537,-3.9127,-3.9028,-3.8531,-3.7891,-3.7699,-3.7824,-3.8137,-3.8452,-3.8452,-3.8422,-3.8197,-3.7689,-3.8197,-3.8482,-3.8766,-3.905,-3.9275,-3.9245,-3.917,-3.9215,-3.8901,-3.8182,-3.7868,-3.7764,-3.6862,-3.634,-3.5799,-3.6449,-3.6269,-3.6242,-3.6523,-3.6677,-3.6616,-3.6677,-3.6523,-3.6554,-3.6662,-3.6615,-3.6229,-3.6384,-3.6477,-3.5994,-3.595,-3.5705,-3.5155,-3.4926,-3.4514,-3.4197,-3.3968,-3.3577,-3.2931,-3.2497,-3.1885,-3.1255,-3.0618,-2.9996,-2.9875,-2.9909,-2.9946,-2.9396,-2.9151,-2.8967,-2.8847,-2.8971,-2.8724,-2.834,-2.8109,-2.7836,-2.7536,-2.7281,-2.721,-2.7236,-2.7261,-2.7287,-2.7246,-2.721,-2.7097,-2.7045,-2.7174,-2.7469,-2.7745,-2.7929,-2.7978,-2.7894,-2.7854,-2.7655,-2.7365,-2.747,-2.757,-2.7728,-2.7707,-2.7537,-2.7506,-2.757,-2.7588,-2.7485,-2.7024,-2.6591,-2.6094,-2.5681,-2.5198,-2.4721,-2.4635,-2.4558,-2.4642,-2.4244,-2.3262,-2.2754,-2.1998,-2.1779,-3.8392,-3.8093,-3.8736,-3.902,-3.905,-3.9305,-3.9275,-3.902,-3.8751,-3.8377,-3.7973,-3.7868,-3.7793,-3.7793,-3.7823,-3.7913,-3.8003,-3.8227,-3.8332,-3.8616,-3.9005,-3.8886,-3.8676,-3.8556,-3.8556,-3.8227,-3.7629,-3.721,-3.7015,-3.6641,-3.6163,-3.5872,-3.6094,-3.5972,-3.601,-3.6068,-3.6226,-3.6305,-3.6289,-3.6196,-3.6086,-3.6149,-3.6196,-3.6008,-3.5928,-3.6006,-3.5785,-3.5657,-3.5411,-3.5149,-3.4964,-3.4612,-3.429,-3.4196,-3.3777,-3.3061,-3.2658,-3.1961,-3.1348,-3.088,-3.0833,-3.0746,-3.0562,-3.0085,-2.952,-2.9581,-2.916,-2.8987,-2.9029,-2.8927,-2.8209,-2.7843,-2.7532,-2.7178,-2.6963,-2.6898,-2.6922,-2.7035,-2.7035,-2.7125,-2.6842,-2.6566,-2.6525,-2.6498,-2.6841,-2.7167,-2.7331,-2.7433,-2.7357,-2.7346,-2.7244,-2.7192,-2.7269,-2.7295,-2.7444,-2.7433,-2.7397,-2.7423,-2.7473,-2.7397,-2.7346,-2.7302,-2.6852,-2.6322,-2.5699,-2.5131,-2.4619,-2.4167,-2.404,-2.4158,-2.344,-2.2325,-2.1984,-2.2026,-2.2034,-3.8826,-3.8482,-3.9125,-3.9388,-3.9388,-3.9388,-3.9388,-3.9343,-3.914,-3.8736,-3.8093,-3.7764,-3.7434,-3.724,-3.715,-3.7135,-3.7375,-3.7599,-3.7883,-3.8153,-3.8332,-3.8302,-3.8033,-3.7913,-3.8033,-3.7599,-3.7225,-3.6926,-3.6956,-3.6432,-3.5938,-3.5804,-3.604,-3.5965,-3.5704,-3.5636,-3.5782,-3.5799,-3.5784,-3.5688,-3.5479,-3.5608,-3.5447,-3.5335,-3.5285,-3.5219,-3.5055,-3.4905,-3.4872,-3.478,-3.4732,-3.4795,-3.4795,-3.4688,-3.4343,-3.3634,-3.2883,-3.2015,-3.1317,-3.1051,-3.1131,-3.0866,-3.0749,-3.0264,-2.9968,-2.987,-2.9407,-2.8978,-2.9212,-2.914,-2.8304,-2.8097,-2.7797,-2.7527,-2.7271,-2.717,-2.7142,-2.7198,-2.7099,-2.7057,-2.6832,-2.6902,-2.6958,-2.6972,-2.682,-2.6973,-2.6803,-2.6893,-2.6907,-2.6881,-2.6893,-2.6907,-2.6959,-2.6985,-2.7011,-2.7037,-2.7049,-2.7049,-2.7074,-2.7089,-2.7037,-2.7052,-2.6993,-2.6509,-2.5834,-2.5081,-2.4522,-2.4097,-2.3857,-2.3739,-2.2981,-2.2299,-2.2505,-2.2591,-2.2194,-3.8422,-3.8467,-3.9125,-3.9388,-3.9388,-3.9388,-3.9388,-3.932,-3.8691,-3.8078,-3.7599,-3.7868,-3.7449,-3.6701,-3.6507,-3.6417,-3.6342,-3.6626,-3.706,-3.7569,-3.8078,-3.8003,-3.7943,-3.7913,-3.7883,-3.7958,-3.736,-3.6896,-3.727,-3.6357,-3.5774,-3.5795,-3.6127,-3.6082,-3.5576,-3.5309,-3.5148,-3.4953,-3.4986,-3.4854,-3.4754,-3.4986,-3.4754,-3.4501,-3.4505,-3.4505,-3.4298,-3.4162,-3.4128,-3.4094,-3.3957,-3.3922,-3.3902,-3.373,-3.3342,-3.2778,-3.2568,-3.1771,-3.0573,-3.0406,-3.0411,-3.0401,-3.0282,-3.0074,-2.9749,-2.962,-2.9623,-2.9233,-2.9487,-2.9332,-2.8916,-2.8579,-2.8215,-2.7919,-2.7666,-2.7426,-2.7427,-2.7413,-2.7343,-2.7286,-2.7539,-2.775,-2.7765,-2.7668,-2.7187,-2.6899,-2.6485,-2.6381,-2.6476,-2.6513,-2.6618,-2.6645,-2.6686,-2.6671,-2.6698,-2.6709,-2.6709,-2.6695,-2.6709,-2.675,-2.675,-2.6724,-2.6637,-2.6477,-2.5789,-2.481,-2.4405,-2.4038,-2.371,-2.337,-2.3252,-2.2896,-2.3111,-2.2999,-2.2437,-3.8377,-3.8452,-3.9125,-3.9388,-3.9388,-3.9388,-3.9388,-3.9194,-3.8302,-3.7614,-3.7255,-3.6881,-3.6327,-3.5908,-3.5983,-3.6028,-3.6297,-3.6776,-3.733,-3.7479,-3.8123,-3.8108,-3.8018,-3.7943,-3.7928,-3.7569,-3.6926,-3.6851,-3.736,-3.6503,-3.6403,-3.6558,-3.6473,-3.6261,-3.5895,-3.5606,-3.5421,-3.4905,-3.475,-3.4616,-3.4264,-3.4385,-3.4283,-3.3917,-3.3991,-3.3888,-3.3709,-3.3605,-3.357,-3.357,-3.3466,-3.3431,-3.3431,-3.3326,-3.3227,-3.289,-3.2721,-3.2047,-3.1152,-3.0729,-3.0119,-2.9924,-2.9775,-2.9758,-2.9617,-2.9602,-2.9602,-2.9602,-2.9571,-2.9434,-2.9336,-2.8888,-2.8508,-2.8368,-2.8115,-2.7791,-2.7694,-2.7708,-2.768,-2.7651,-2.7791,-2.7918,-2.7974,-2.8172,-2.7837,-2.7513,-2.7173,-2.6588,-2.654,-2.6424,-2.6406,-2.642,-2.642,-2.6406,-2.6406,-2.6418,-2.6418,-2.6418,-2.6433,-2.6433,-2.6433,-2.6433,-2.6146,-2.5942,-2.5247,-2.4523,-2.3975,-2.3467,-2.3225,-2.2987,-2.2907,-2.2834,-2.2782,-2.2642,-2.2342,-3.8317,-3.8781,-3.923,-3.9388,-3.9388,-3.9388,-3.9388,-3.9224,-3.8467,-3.7988,-3.7629,-3.6866,-3.6432,-3.6297,-3.6207,-3.6312,-3.6851,-3.718,-3.7659,-3.7764,-3.8272,-3.8212,-3.8033,-3.7958,-3.7913,-3.7524,-3.7172,-3.7029,-3.7625,-3.693,-3.6837,-3.7048,-3.7084,-3.6837,-3.6412,-3.6045,-3.537,-3.4825,-3.4549,-3.4448,-3.4196,-3.4128,-3.404,-3.3813,-3.3709,-3.357,-3.3501,-3.3396,-3.3276,-3.3276,-3.3276,-3.3276,-3.3276,-3.3276,-3.3276,-3.3108,-3.2583,-3.208,-3.1604,-3.084,-3.034,-3.0127,-2.9704,-2.9586,-2.9677,-2.9663,-2.9488,-2.9446,-2.9509,-2.9509,-2.938,-2.8904,-2.8895,-2.8755,-2.8657,-2.8348,-2.826,-2.8272,-2.8288,-2.8248,-2.825,-2.8264,-2.828,-2.8422,-2.851,-2.8203,-2.7909,-2.7272,-2.6619,-2.6433,-2.6248,-2.6165,-2.6179,-2.6165,-2.6165,-2.6138,-2.6165,-2.6152,-2.6138,-2.6111,-2.6179,-2.615,-2.5767,-2.5355,-2.4796,-2.4138,-2.335,-2.2855,-2.2767,-2.2686,-2.2595,-2.2533,-2.2425,-2.2367,-2.2265,-3.8177,-3.9298,-3.9388,-3.9358,-3.9328,-3.9245,-3.9254,-3.9358,-3.9284,-3.8901,-3.8367,-3.8167,-3.7644,-3.7345,-3.7315,-3.73,-3.7375,-3.7449,-3.7823,-3.8108,-3.8257,-3.8182,-3.8182,-3.7998,-3.8142,-3.8048,-3.7704,-3.7465,-3.7985,-3.7482,-3.7334,-3.7484,-3.7543,-3.731,-3.688,-3.6362,-3.5516,-3.4966,-3.4506,-3.4375,-3.4162,-3.4059,-3.3902,-3.3709,-3.357,-3.3466,-3.3396,-3.3312,-3.3276,-3.3276,-3.3276,-3.3276,-3.3276,-3.3276,-3.3276,-3.3052,-3.2361,-3.2166,-3.1972,-3.1219,-3.1034,-3.0798,-2.9914,-2.9845,-2.9849,-2.9756,-2.9529,-2.9376,-2.9352,-2.9257,-2.9156,-2.9223,-2.9289,-2.9261,-2.9261,-2.9115,-2.9004,-2.9018,-2.9035,-2.9025,-2.9028,-2.9063,-2.9055,-2.9145,-2.8834,-2.8624,-2.8264,-2.7661,-2.7017,-2.644,-2.6215,-2.5948,-2.5948,-2.5948,-2.5948,-2.5948,-2.5839,-2.5839,-2.5811,-2.577,-2.5839,-2.5714,-2.5352,-2.4879,-2.4446,-2.3814,-2.3069,-2.2654,-2.2475,-2.2381,-2.2348,-2.25,-2.2499,-2.2499,-2.2396,-3.8631,-3.9373,-3.9388,-3.9125,-3.8646,-3.8197,-3.8512,-3.9305,-3.8931,-3.8527,-3.8377,-3.7898,-3.7749,-3.7419,-3.7389,-3.7449,-3.7614,-3.7853,-3.8138,-3.8362,-3.8601,-3.8901,-3.8874,-3.8698,-3.8767,-3.8495,-3.818,-3.7925,-3.8376,-3.8047,-3.7938,-3.8186,-3.8002,-3.7717,-3.7368,-3.6947,-3.6089,-3.5285,-3.4757,-3.4351,-3.4157,-3.4005,-3.3799,-3.364,-3.3501,-3.3396,-3.3312,-3.3276,-3.3276,-3.3276,-3.3276,-3.3276,-3.3276,-3.3276,-3.3276,-3.3072,-3.2701,-3.2477,-3.238,-3.1763,-3.1487,-3.1626,-3.0781,-3.0121,-3.0047,-2.991,-2.9587,-2.9393,-2.9204,-2.9099,-2.9099,-2.9162,-2.9194,-2.9194,-2.9194,-2.9194,-2.9099,-2.9067,-2.9099,-2.9131,-2.9162,-2.9194,-2.9289,-2.9247,-2.8983,-2.8869,-2.8563,-2.798,-2.7358,-2.672,-2.6162,-2.584,-2.5757,-2.5784,-2.5839,-2.5866,-2.5647,-2.5508,-2.5439,-2.5314,-2.5147,-2.4996,-2.4764,-2.4231,-2.3464,-2.3102,-2.2813,-2.2466,-2.2152,-2.2188,-2.2191,-2.2416,-2.2564,-2.248,-2.2513,-3.8521,-3.9343,-3.9388,-3.917,-3.8745,-3.8186,-3.8493,-3.9107,-3.8656,-3.8512,-3.8736,-3.8422,-3.8197,-3.8272,-3.8287,-3.8287,-3.8317,-3.8616,-3.8841,-3.896,-3.9164,-3.9218,-3.925,-3.9141,-3.8994,-3.8766,-3.8517,-3.8238,-3.859,-3.8516,-3.8337,-3.8323,-3.824,-3.7999,-3.768,-3.7346,-3.6845,-3.6012,-3.5247,-3.4591,-3.4209,-3.398,-3.3779,-3.3605,-3.348,-3.3396,-3.3276,-3.3276,-3.3276,-3.3276,-3.3276,-3.3192,-3.3157,-3.3122,-3.3051,-3.2846,-3.2676,-3.2613,-3.2544,-3.2179,-3.2193,-3.2165,-3.1654,-3.1108,-3.0419,-3.0109,-2.9712,-2.9369,-2.9146,-2.8958,-2.9004,-2.9004,-2.894,-2.8908,-2.8972,-2.9035,-2.9004,-2.894,-2.894,-2.8972,-2.9004,-2.9035,-2.9067,-2.9081,-2.9099,-2.9006,-2.8768,-2.8243,-2.7547,-2.6808,-2.6174,-2.5689,-2.5661,-2.5661,-2.5647,-2.5522,-2.53,-2.5048,-2.495,-2.4794,-2.454,-2.4205,-2.3914,-2.3151,-2.2247,-2.2062,-2.2049,-2.2008,-2.1842,-2.1899,-2.1953,-2.2065,-2.2185,-2.2193,-2.23,-3.8,-3.9228,-3.9256,-3.9116,-3.9196,-3.859,-3.8546,-3.8883,-3.8347,-3.8659,-3.9152,-3.9307,-3.9137,-3.8952,-3.8967,-3.9047,-3.8988,-3.9143,-3.9158,-3.9322,-3.9277,-3.9228,-3.8995,-3.9031,-3.8797,-3.8686,-3.8583,-3.8347,-3.8383,-3.8329,-3.824,-3.8202,-3.8202,-3.8078,-3.7953,-3.7635,-3.7119,-3.6561,-3.5762,-3.5002,-3.4384,-3.4031,-3.3836,-3.3654,-3.3536,-3.3417,-3.3312,-3.3276,-3.3241,-3.3192,-3.3108,-3.2988,-3.2917,-3.281,-3.2704,-3.2632,-3.2489,-3.2503,-3.2467,-3.2205,-3.2218,-3.2273,-3.2237,-3.1721,-3.1083,-3.0331,-2.9874,-2.9383,-2.9121,-2.8835,-2.8812,-2.8844,-2.8844,-2.8812,-2.8812,-2.8812,-2.878,-2.8748,-2.8716,-2.8683,-2.8541,-2.8573,-2.8573,-2.8554,-2.8411,-2.872,-2.8561,-2.8084,-2.753,-2.6725,-2.6165,-2.5556,-2.563,-2.5519,-2.5104,-2.495,-2.4808,-2.4609,-2.4494,-2.425,-2.3946,-2.3522,-2.3019,-2.2579,-2.2207,-2.1452,-2.1207,-2.1444,-2.1665,-2.1663,-2.169,-2.1708,-2.1758,-2.1782,-2.182,-3.7457,-3.8219,-3.7879,-3.7879,-3.8001,-3.6903,-3.6924,-3.7609,-3.7207,-3.7791,-3.8782,-3.8907,-3.8907,-3.8907,-3.8907,-3.8958,-3.9068,-3.9031,-3.9141,-3.9053,-3.9053,-3.8671,-3.8501,-3.8501,-3.8389,-3.8277,-3.8202,-3.8165,-3.8075,-3.8075,-3.8165,-3.8165,-3.8052,-3.7938,-3.7915,-3.7589,-3.729,-3.6871,-3.641,-3.5546,-3.4754,-3.4398,-3.4158,-3.3712,-3.341,-3.3178,-3.3037,-3.2931,-3.2895,-3.281,-3.281,-3.2775,-3.2739,-3.2561,-3.2489,-3.2453,-3.2322,-3.2264,-3.2155,-3.2059,-3.2023,-3.1986,-3.19,-3.1846,-3.1402,-3.0626,-2.9977,-2.9476,-2.9048,-2.8763,-2.8587,-2.8651,-2.8651,-2.8651,-2.8587,-2.8554,-2.849,-2.8457,-2.8392,-2.8262,-2.8085,-2.8052,-2.8052,-2.7973,-2.7842,-2.7709,-2.7543,-2.7215,-2.6896,-2.6308,-2.591,-2.5487,-2.5677,-2.5501,-2.4849,-2.4379,-2.4205,-2.4089,-2.3943,-2.3679,-2.3369,-2.2959,-2.2569,-2.268,-2.24,-2.1553,-2.1094,-2.14,-2.1553,-2.1553,-2.1549,-2.1623,-2.1313,-2.1226,-2.1212,-3.6991,-3.7663,-3.7413,-3.7353,-3.7327,-3.6555,-3.6603,-3.7114,-3.6916,-3.7215,-3.7919,-3.806,-3.8159,-3.8285,-3.8375,-3.8375,-3.8486,-3.8523,-3.8323,-3.8285,-3.8323,-3.7985,-3.7834,-3.7848,-3.7711,-3.7582,-3.7505,-3.7467,-3.7477,-3.7323,-3.7285,-3.7376,-3.7337,-3.7352,-3.738,-3.7376,-3.7234,-3.6959,-3.675,-3.6137,-3.5153,-3.4635,-3.419,-3.3662,-3.3254,-3.2951,-3.2846,-3.2739,-3.2725,-3.2668,-3.2632,-3.2538,-3.2467,-3.2372,-3.2322,-3.2264,-3.2169,-3.195,-3.1753,-3.1643,-3.1495,-3.1296,-3.1283,-3.1119,-3.0566,-2.9858,-2.9746,-2.9252,-2.8532,-2.8191,-2.821,-2.8229,-2.8099,-2.802,-2.7855,-2.7709,-2.7676,-2.7676,-2.761,-2.7577,-2.7477,-2.7464,-2.7477,-2.7443,-2.7343,-2.733,-2.704,-2.6803,-2.6426,-2.6046,-2.5617,-2.5224,-2.5292,-2.4842,-2.3968,-2.3679,-2.3603,-2.3484,-2.3424,-2.2992,-2.2653,-2.2399,-2.2181,-2.2152,-2.1955,-2.1435,-2.1182,-2.1473,-2.1571,-2.1588,-2.1572,-2.1559,-2.1186,-2.0837,-2.0778,-3.6448,-3.7271,-3.7159,-3.7144,-3.7102,-3.6858,-3.6911,-3.7081,-3.6925,-3.6794,-3.6847,-3.6922,-3.7116,-3.7491,-3.7658,-3.7606,-3.7682,-3.7886,-3.763,-3.7386,-3.7295,-3.7078,-3.7028,-3.7003,-3.7003,-3.6964,-3.6847,-3.6677,-3.6531,-3.6492,-3.6466,-3.6269,-3.6229,-3.6282,-3.6559,-3.6677,-3.6501,-3.6565,-3.6456,-3.6317,-3.5527,-3.4627,-3.4172,-3.3681,-3.3063,-3.2624,-3.2547,-3.2511,-3.2497,-3.2209,-3.1992,-3.1946,-3.1813,-3.1703,-3.1776,-3.1666,-3.1445,-3.1172,-3.0934,-3.0947,-3.052,-3.0241,-3.0329,-3.0139,-2.963,-2.9353,-2.9228,-2.8841,-2.8152,-2.7807,-2.7794,-2.7676,-2.7509,-2.7348,-2.7134,-2.6939,-2.6939,-2.6939,-2.6905,-2.6858,-2.679,-2.679,-2.6824,-2.6837,-2.6803,-2.6824,-2.6722,-2.6517,-2.6283,-2.5934,-2.5564,-2.4959,-2.4618,-2.3992,-2.328,-2.319,-2.3271,-2.3078,-2.295,-2.2388,-2.2031,-2.2092,-2.191,-2.1426,-2.1162,-2.1186,-2.1281,-2.1484,-2.1552,-2.1655,-2.1592,-2.1533,-2.134,-2.0998,-2.0566,-3.5547,-3.6071,-3.6191,-3.6455,-3.6638,-3.6031,-3.6018,-3.6457,-3.6125,-3.5951,-3.5951,-3.575,-3.6017,-3.7081,-3.6964,-3.6964,-3.712,-3.7236,-3.7183,-3.7014,-3.6727,-3.6387,-3.6203,-3.6296,-3.6427,-3.6348,-3.6282,-3.6308,-3.5856,-3.5896,-3.6004,-3.5965,-3.5991,-3.5871,-3.5656,-3.575,-3.5845,-3.5899,-3.5696,-3.5453,-3.534,-3.464,-3.4307,-3.3505,-3.239,-3.1954,-3.17,-3.1589,-3.122,-3.0884,-3.072,-3.0884,-3.0897,-3.0784,-3.0733,-3.0859,-3.0633,-3.0292,-3.0088,-3.0063,-2.9665,-2.9471,-2.9537,-2.942,-2.8999,-2.8637,-2.8498,-2.83,-2.7738,-2.7384,-2.7265,-2.7005,-2.6801,-2.669,-2.6515,-2.643,-2.6405,-2.6371,-2.6289,-2.6117,-2.5943,-2.6013,-2.607,-2.6047,-2.5921,-2.5943,-2.5908,-2.5734,-2.5699,-2.5531,-2.5434,-2.4888,-2.4238,-2.3689,-2.3225,-2.3132,-2.309,-2.285,-2.2635,-2.2323,-2.2153,-2.2188,-2.1903,-2.1572,-2.1434,-2.15,-2.1566,-2.159,-2.1711,-2.1783,-2.165,-2.1557,-2.1395,-2.116,-2.0725]},{"header":{"parameterUnit":"m.s-1","parameterCategory":1,"la1":31.0,"la2":29.5877,"lo1":-88.7671,"lo2":-86.6584,"dy":0.0162,"dx":0.0185,"nx":115,"ny":88,"refTime":"2023-08-24T12:00:00:Z","depth":0,"parameterNumber":3,"parameterNumberName":"V-component_of_WINDS"},"data":[0.0,0.0,0.0,0.0,0.0,0.0,0.0,0.0,0.0,0.0,0.0,0.0,0.0,0.0,0.0,0.0,0.0,0.0,0.0,0.0,0.0,0.0,0.0,0.0,0.0,0.0,0.0,0.0,0.0,0.0,0.0,0.0,0.0,0.0,0.0,0.0,0.0,0.0,0.0,0.0,0.0,0.0,0.0,0.0,0.0,0.0,0.0,0.0,0.0,0.0,0.0,0.0,0.0,0.0,0.0,0.0,0.0,0.0,0.0,0.0,0.0,0.0,0.0,0.0,0.0,0.0,0.0,0.0,0.0,0.0,0.0,0.0,0.0,0.0,0.0,0.0,0.0,0.0,0.0,0.0,0.0,0.0,0.0,0.0,0.0,0.0,0.0,0.0,0.0,0.0,0.0,0.0,0.0,0.0,0.0,0.0,0.0,0.0,0.0,0.0,0.0,0.0,0.0,0.0,0.0,0.0,0.0,0.0,0.0,0.0,0.0,0.0,0.0,0.0,0.0,0.0,0.0,0.0,0.0,0.0,0.0,0.0,0.0,0.0,0.0,0.0,0.0,0.0,0.0,0.0,0.0,0.0,0.0,0.0,0.0,0.0,0.0,0.0,0.0,0.0,0.0,0.0,0.0,0.0,0.0,0.0,0.0,0.0,0.0,0.0,0.0,0.0,0.0,0.0,0.0,0.0,0.0,0.0,0.0,0.0,0.0,0.0,0.0,0.0,0.0,0.0,0.0,0.0,0.0,0.0,0.0,0.0,0.0,0.0,0.0,0.0,0.0,0.0,0.0,0.0,0.0,0.0,0.0,0.0,0.0,0.0,0.0,0.0,0.0,0.0,0.0,0.0,0.0,0.0,0.0,0.0,0.0,0.0,0.0,0.0,0.0,0.0,0.0,0.0,0.0,0.0,0.0,0.0,0.0,0.0,0.0,0.0,0.0,0.0,0.0,0.0,0.0,0.0,0.0,0.0,0.0,0.0,0.0,0.0,0.0,0.0,0.0,0.0,0.0,0.0,0.0,0.0,0.0,0.0,0.0,0.0,0.0,0.0,0.0,0.0,0.0,0.0,0.0,0.0,0.0,0.0,0.0,0.0,0.0,0.0,0.0,0.0,0.0,0.0,0.0,0.0,0.0,0.0,0.0,0.0,0.0,0.0,0.0,0.0,0.0,0.0,0.0,0.0,0.0,0.0,0.0,0.0,0.0,0.0,0.0,0.0,0.0,0.0,0.0,0.0,0.0,0.0,0.0,0.0,0.0,0.0,0.0,0.0,0.0,0.0,0.0,0.0,0.0,0.0,0.0,0.0,0.0,0.0,0.0,0.0,0.0,0.0,0.0,0.0,0.0,0.0,0.0,0.0,0.0,0.0,0.0,0.0,0.0,0.0,0.0,0.0,0.0,0.0,0.0,0.0,0.0,0.0,0.0,0.0,0.0,0.0,0.0,0.0,0.0,0.0,0.0,0.0,0.0,0.0,0.0,0.0,0.0,0.0,0.0,0.0,0.0,0.0,0.0,0.0,0.0,0.0,0.0,0.0,0.0,0.0,0.0,0.0,0.0,0.0,0.0,0.0,0.0,0.0,0.0,0.0,0.0,0.0,0.0,0.0,0.0,0.0,0.0,0.0,0.0,0.0,0.0,0.0,0.0,0.0,0.0,0.0,0.0,0.0,0.0,0.0,0.0,0.0,0.0,0.0,0.0,0.0,0.0,0.0,0.0,0.0,0.0,0.0,0.0,0.0,0.0,0.0,0.0,0.0,0.0,0.0,0.0,0.0,0.0,0.0,0.0,0.0,0.0,0.0,0.0,0.0,0.0,0.0,0.0,0.0,0.0,0.0,0.0,0.0,0.0,0.0,0.0,0.0,0.0,0.0,0.0,0.0,0.0,0.0,0.0,0.0,0.0,0.0,0.0,0.0,0.0,0.0,0.0,0.0,0.0,0.0,0.0,0.0,0.0,0.0,0.0,0.0,0.0,0.0,0.0,0.0,0.0,0.0,0.0,0.0,0.0,0.0,0.0,0.0,0.0,0.0,0.0,0.0,0.0,0.0,0.0,0.0,0.0,0.0,0.0,0.0,0.0,0.0,0.0,0.0,0.0,0.0,0.0,0.0,0.0,0.0,0.0,0.0,0.0,0.0,0.0,0.0,0.0,0.0,0.0,0.0,0.0,0.0,0.0,0.0,0.0,0.0,0.0,0.0,0.0,0.0,0.0,0.0,0.0,0.0,0.0,0.0,0.0,0.0,0.0,0.0,0.0,0.0,0.0,0.0,0.0,0.0,0.0,0.0,0.0,0.0,0.0,0.0,0.0,0.0,0.0,0.0,0.0,0.0,0.0,0.0,0.0,0.0,0.0,0.0,0.0,0.0,0.0,0.0,0.0,0.0,0.0,0.0,0.0,0.0,0.0,0.0,0.0,0.0,0.0,0.0,0.0,0.0,0.0,0.0,0.0,0.0,0.0,0.0,0.0,0.0,0.0,0.0,0.0,0.0,0.0,0.0,0.0,0.0,0.0,0.0,0.0,0.0,0.0,0.0,0.0,0.0,0.0,0.0,0.0,0.0,0.0,0.0,0.0,0.0,0.0,0.0,0.0,0.0,0.0,0.0,0.0,0.0,0.0,0.0,0.0,0.0,0.0,0.0,0.0,0.0,0.0,0.0,0.0,0.0,0.0,0.0,0.0,0.0,0.0,0.0,0.0,0.0,0.0,0.0,0.0,0.0,0.0,0.0,0.0,0.0,0.0,0.0,0.0,0.0,0.0,0.0,0.0,0.0,0.0,0.0,0.0,0.0,0.0,0.0,0.0,0.0,0.0,0.0,0.0,0.0,0.0,0.0,0.0,0.0,0.0,0.0,0.0,0.0,0.0,0.0,0.0,0.0,0.0,0.0,0.0,0.0,0.0,0.0,0.0,0.0,0.0,0.0,0.0,0.0,0.0,0.0,0.0,0.0,0.0,0.0,0.0,0.0,0.0,0.0,0.0,0.0,0.0,0.0,0.0,0.0,0.0,0.0,0.0,0.0,0.0,0.0,0.0,0.0,0.0,0.0,0.0,0.0,0.0,0.0,0.0,0.0,0.0,0.0,0.0,0.0,0.0,0.0,0.0,0.0,0.0,0.0,0.0,0.0,0.0,0.0,0.0,0.0,0.0,0.0,0.0,0.0,0.0,0.0,0.0,0.0,0.0,0.0,0.0,0.0,0.0,0.0,0.0,0.0,0.0,0.0,0.0,0.0,0.0,0.0,0.0,0.0,0.0,0.0,0.0,0.0,0.0,0.0,0.0,0.0,0.0,0.0,0.0,0.0,0.0,0.0,0.0,0.0,0.0,0.0,0.0,0.0,0.0,0.0,0.0,0.0,0.0,0.0,0.0,0.0,0.0,0.0,0.0,0.0,0.0,0.0,0.0,0.0,0.0,0.0,0.0,0.0,0.0,0.0,0.0,0.0,0.0,0.0,0.0,0.0,0.0,0.0,0.0,0.0,0.0,0.0,0.0,0.0,0.0,0.0,0.0,0.0,0.0,0.0,0.0,0.0,0.0,0.0,0.0,0.0,0.0,0.0,0.0,0.0,0.0,0.0,0.0,0.0,0.0,0.0,0.0,0.0,0.0,0.0,0.0,0.0,0.0,0.0,0.0,0.0,0.0,0.0,0.0,0.0,0.0,0.0,0.0,0.0,0.0,0.0,0.0,0.0,0.0,0.0,0.0,0.0,0.0,0.0,0.0,0.0,0.0,0.0,0.0,0.0,0.0,0.0,0.0,0.0,0.0,0.0,0.0,0.0,0.0,0.0,0.0,0.0,0.0,0.0,0.0,0.0,0.0,0.0,0.0,0.0,0.0,0.0,0.0,0.0,0.0,0.0,0.0,0.0,0.0,0.0,0.0,0.0,0.0,0.0,0.0,0.0,0.0,0.0,0.0,0.0,0.0,0.0,0.0,0.0,0.0,0.0,0.0,0.0,0.0,0.0,0.0,0.0,0.0,0.0,0.0,0.0,0.0,0.0,0.0,0.0,0.0,0.0,0.0,0.0,0.0,0.0,0.0,0.0,0.0,0.0,0.0,0.0,0.0,0.0,0.0,0.0,0.0,0.0,0.0,0.0,0.0,0.0,0.0,0.0,0.0,0.0,0.0,0.0,0.0,0.0,0.0,0.0,0.0,0.0,0.0,0.0,0.0,0.0,0.0,0.0,0.0,0.0,0.0,0.0,0.0,0.0,0.0,0.0,0.0,0.0,0.0,0.0,0.0,0.0,0.0,0.0,0.0,0.0,-0.2795,0.0,0.0,0.0,0.0,0.0,0.0,0.0,0.0,0.0,0.0,0.0,0.0,0.0,0.0,0.0,0.0,0.0,0.0,0.0,0.0,0.0,0.0,0.0,0.0,0.0,0.0,0.0,0.0,0.0,0.0,0.0,0.0,0.0,0.0,0.0,0.0,0.0,0.0,0.0,0.0,0.0,0.0,0.0,0.0,0.0,0.0,0.0,0.0,0.0,0.0,0.0,0.0,0.0,0.0,0.0,0.0,0.0,0.0,0.0,0.0,0.0,0.0,0.0,0.0,0.0,0.0,0.0,0.0,0.0,0.0,0.0,0.0,0.0,0.0,0.0,0.0,0.0,0.0,0.0,0.0,0.0,0.0,0.0,0.0,0.0,0.0,0.0,0.0,0.0,0.0,0.0,0.0,0.0,0.0,0.0,0.0,0.0,0.0,0.0,0.0,0.0,0.0,0.0,0.0,0.0,0.0,0.0,0.0,0.0,0.0,-0.3039,-0.3039,-0.2891,-0.2726,-0.2474,0.0,0.0,0.0,0.0,0.0,0.0,0.0,0.0,0.0,0.0,0.0,0.0,0.0,0.0,0.0,0.0,0.0,0.0,0.0,0.0,0.0,0.0,0.0,0.0,0.0,0.0,0.0,0.0,0.0,0.0,0.0,0.0,0.0,0.0,0.0,0.0,0.0,0.0,0.0,0.0,0.0,0.0,0.0,0.0,0.0,0.0,0.0,0.0,0.0,0.0,0.0,0.0,0.0,0.0,0.0,0.0,0.0,0.0,0.0,0.0,0.0,0.0,0.0,0.0,0.0,0.0,0.0,0.0,0.0,0.0,0.0,0.0,0.0,0.0,0.0,0.0,0.0,0.0,0.0,0.0,0.0,0.0,0.0,0.0,0.0,0.0,0.0,0.0,0.0,0.0,0.0,0.0,0.0,0.0,0.0,0.0,0.0,0.0,0.0,0.0,0.0,0.0,0.0,0.0,0.0,0.0,0.0,0.0,0.0,0.0,0.0,0.0,-0.259,-0.2374,-0.2159,0.0,0.0,0.0,0.0,0.0,0.0,0.0,0.0,0.0,0.0,0.0,0.0,0.0,0.0,0.0,0.0,0.0,0.0,0.0,0.0,0.0,0.0,0.0,0.0,0.0,0.0,0.0,0.0,0.0,0.0,0.0,0.0,0.0,0.0,0.0,0.0,0.0,0.0,0.0,0.0,0.0,0.0,0.0,0.0,0.0,0.0,0.0,0.0,0.0,0.0,0.0,0.0,0.0,0.0,0.0,0.0,0.0,0.0,0.0,0.0,0.0,0.0,0.0,0.0,0.0,0.0,0.0,0.0,0.0,0.0,0.0,0.0,0.0,0.0,0.0,0.0,0.0,0.0,0.0,0.0,0.0,0.0,0.0,0.0,0.0,0.0,0.0,0.0,0.0,0.0,0.0,0.0,0.0,0.0,0.0,0.0,0.0,0.0,0.0,0.0,0.0,0.0,0.0,0.0,0.0,0.0,0.0,0.0,0.0,0.0,-0.2507,-0.2441,-0.2424,0.0,-0.1792,0.0,0.0,0.0,0.0,0.0,0.0,0.0,0.0,0.0,0.0,0.0,0.0,0.0,0.0,0.0,0.0,0.0,0.0,0.0,0.0,0.0,0.0,0.0,0.0,0.0,0.0,0.0,0.0,0.0,0.0,0.0,0.0,0.0,0.0,0.0,0.0,0.0,0.0,0.0,0.0,0.0,0.0,0.0,0.0,0.0,0.0,0.0,0.0,0.0,0.0,0.0,0.0,0.0,0.0,0.0,0.0,0.0,0.0,0.0,0.0,0.0,0.0,0.0,0.0,0.0,0.0,0.0,0.0,0.0,0.0,0.0,0.0,0.0,0.0,0.0,0.0,0.0,0.0,0.0,0.0,0.0,0.0,0.0,0.0,0.0,0.0,0.0,0.0,0.0,0.0,0.0,0.0,0.0,0.0,0.0,0.0,0.0,0.0,0.0,0.0,0.0,0.0,0.0,0.0,0.0,0.0,0.0,0.0,0.0,0.0,-0.2331,-0.2231,-0.1992,-0.169,0.0,0.0,0.0,0.0,0.0,0.0,0.0,0.0,0.0,0.0,0.0,0.0,0.0,0.0,0.0,0.0,0.0,0.0,0.0,0.0,0.0,0.0,0.0,0.0,0.0,0.0,0.0,0.0,0.0,0.0,0.0,0.0,0.0,0.0,0.0,0.0,0.0,0.0,0.0,0.0,0.0,0.0,0.0,0.0,0.0,0.0,0.0,0.0,0.0,0.0,0.0,0.0,0.0,0.0,0.0,0.0,0.0,0.0,0.0,0.0,0.0,0.0,0.0,0.0,0.0,0.0,0.0,0.0,0.0,0.0,0.0,0.0,0.0,0.0,0.0,0.0,0.0,0.0,0.0,0.0,0.0,0.0,0.0,0.0,0.0,0.0,0.0,0.0,0.0,0.0,0.0,0.0,0.0,0.0,0.0,0.0,0.0,0.0,0.0,0.0,0.0,0.0,0.0,0.0,0.0,0.0,0.0,0.0,0.0,0.0,-0.218,-0.2148,-0.1977,-0.1613,-0.1312,-0.1111,0.0,0.0,0.0,0.0,0.0,0.0,0.0,0.0,0.0,0.0,0.0,0.0,0.0,0.0,0.0,0.0,0.0,0.0,0.0,0.0,0.0,0.0,0.0,0.0,0.0,0.0,0.0,0.0,0.0,0.0,0.0,0.0,0.0,0.0,0.0,0.0,0.0,0.0,0.0,0.0,0.0,0.0,0.0,0.0,0.0,0.0,0.0,0.0,0.0,0.0,0.0,0.0,0.0,0.0,0.0,0.0,0.0,0.0,0.0,0.0,0.0,0.0,0.0,0.0,0.0,0.0,0.0,0.0,0.0,0.0,0.0,0.0,0.0,0.0,0.0,0.0,0.0,0.0,0.0,0.0,0.0,0.0,0.0,0.0,0.0,0.0,0.0,0.0,0.0,0.0,0.0,0.0,0.0,0.0,0.0,0.0,0.0,0.0,0.0,0.0,0.0,0.0,0.0,0.0,0.0,0.0,0.0,0.0,-0.1997,-0.2052,-0.1981,-0.1707,-0.138,-0.1189,0.0,0.0,0.0,0.0,0.0,0.0,0.0,0.0,0.0,0.0,0.0,0.0,0.0,0.0,0.0,0.0,0.0,0.0,0.0,0.0,0.0,0.0,0.0,0.0,0.0,0.0,0.0,0.0,0.0,0.0,0.0,0.0,0.0,0.0,0.0,0.0,0.0,0.0,0.0,0.0,0.0,0.0,0.0,0.0,0.0,0.0,0.0,0.0,0.0,0.0,0.0,0.0,0.0,0.0,0.0,0.0,0.0,0.0,0.0,0.0,0.0,0.0,0.0,0.0,0.0,0.0,0.0,0.0,0.0,0.0,0.0,0.0,0.0,0.0,0.0,0.0,0.0,0.0,0.0,0.0,0.0,0.0,0.0,0.0,0.0,0.0,0.0,0.0,0.0,0.0,0.0,0.0,0.0,0.0,0.0,0.0,0.0,0.0,0.0,0.0,0.0,0.0,0.0,0.0,0.0,0.0,0.0,0.0,0.0,-0.1696,-0.1688,-0.1612,-0.1392,-0.1185,-0.094,0.0,0.0,0.0,0.0,0.0,0.0,0.0,0.0,0.0,0.0,0.0,0.0,0.0,0.0,0.0,0.0,0.0,0.0,0.0,0.0,0.0,0.0,0.0,0.0,0.0,0.0,0.0,0.0,0.0,0.0,0.0,0.0,0.0,0.0,0.0,0.0,0.0,0.0,0.0,0.0,0.0,0.0,0.0,0.0,0.0,0.0,0.0,0.0,0.0,0.0,0.0,0.0,0.0,0.0,0.0,0.0,0.0,0.0,0.0,0.0,0.0,0.0,0.0,0.0,0.0,0.0,0.0,0.0,0.0,0.0,0.0,0.0,0.0,0.0,0.0,0.0,0.0,0.0,0.0,0.0,0.0,0.0,0.0,0.0,0.0,0.0,0.0,0.0,0.0,0.0,0.0,0.0,0.0,0.0,0.0,0.0,0.0,0.0,0.0,0.0,0.0,0.0,0.0,0.0,0.0,0.0,0.0,0.0,0.0,-0.1473,0.0,-0.1382,-0.1201,-0.0997,-0.0761,0.0,0.0,0.0,0.0,0.0,0.0,0.0,0.0,0.0,0.0,0.0,0.0,0.0,0.0,0.0,0.0,0.0,0.0,0.0,0.0,0.0,0.0,0.0,0.0,0.0,0.0,0.0,0.0,0.0,0.0,0.0,0.0,0.0,0.0,0.0,0.0,0.0,0.0,0.0,0.0,0.0,0.0,0.0,0.0,0.0,0.0,0.0,0.0,0.0,0.0,0.0,0.0,0.0,0.0,0.0,0.0,0.0,0.0,0.0,0.0,0.0,0.0,0.0,0.0,0.0,0.0,0.0,0.0,0.0,0.0,0.0,0.0,0.0,0.0,0.0,0.0,0.0,0.0,0.0,0.0,0.0,0.0,0.0,0.0,0.0,0.0,0.0,0.0,0.0,0.0,0.0,0.0,0.0,0.0,0.0,0.0,0.0,0.0,0.0,0.0,0.0,0.0,0.0,0.0,0.0,0.0,0.0,0.0,-0.1632,-0.1408,-0.1389,-0.1318,-0.1199,-0.0867,-0.0674,0.0,0.0,0.0,0.0,0.0,0.0,0.0,0.0,0.0,0.0,0.0,0.0,0.0,0.0,0.0,0.0,0.0,0.0,0.0,0.0,0.0,0.0,0.0,0.0,0.0,0.0,0.0,0.0,0.0,0.0,0.0,0.0,0.0,0.0,0.0,0.0,0.0,0.0,0.0,0.0,0.0,0.0,0.0,0.0,0.0,0.0,0.0,0.0,0.0,0.0,0.0,0.0,0.0,0.0,0.0,0.0,0.0,0.0,0.0,0.0,0.0,0.0,0.0,0.0,0.0,0.0,0.0,0.0,0.0,0.0,0.0,0.0,0.0,0.0,0.0,0.0,0.0,0.0,0.0,0.0,0.0,0.0,0.0,0.0,0.0,0.0,0.0,0.0,0.0,0.0,0.0,0.0,0.0,0.0,0.0,0.0,0.0,0.0,0.0,0.0,0.0,0.0,0.0,0.0,0.0,0.0,0.0,0.0,0.0,-0.1051,-0.0959,-0.086,-0.0733,-0.0617,-0.05,0.0,0.0,0.0,0.0,0.0,0.0,0.0,0.0,0.0,0.0,0.0,0.0,0.0,0.0,0.0,0.0,0.0,0.0,0.0,0.0,0.0,0.0,0.0,0.0,0.0,0.0,0.0,0.0,0.0,0.0,0.0,0.0,0.0,0.0,0.0,0.0,0.0,0.0,0.0,0.0,0.0,0.0,0.0,0.0,0.0,0.0,0.0,0.0,0.0,0.0,0.0,0.0,0.0,0.0,0.0,0.0,0.0,0.0,0.0,0.0,0.0,0.0,0.0,0.0,0.0,0.0,0.0,0.0,0.0,0.0,0.0,0.0,0.0,0.0,0.0,0.0,0.0,0.0,0.0,0.0,0.0,0.0,0.0,0.0,0.0,0.0,0.0,0.0,0.0,0.0,0.0,0.0,0.0,0.0,0.0,0.0,0.0,0.0,0.0,0.0,0.0,0.0,0.0,0.0,0.0,0.0,0.0,0.0,0.0,-0.072,-0.0627,-0.0527,-0.0348,-0.028,-0.0218,-0.0121,0.0,0.0,0.0,0.0,0.0,0.0,0.0,0.0,0.0,0.0,0.0,0.0,0.0,0.0,0.0,0.0,0.0,0.0,0.0,0.0,0.0,0.0,0.0,0.0,0.0,0.0,0.0,0.0,0.0,0.0,0.0,0.0,0.0,0.0,0.0,0.0,0.0,0.0,0.0,0.0,0.0,0.0,0.0,0.0,0.0,0.0,0.0,0.0,0.0,0.0,0.0,0.0,0.0,0.0,0.0,0.0,0.0,0.0,0.0,0.0,0.0,0.0,0.0,0.0,0.0,0.0,0.0,0.0,0.0,0.0,0.0,0.0,0.0,0.0,0.0,0.0,0.0,0.0,0.0,0.0,0.0,0.0,0.0,0.0,0.0,0.0,0.0,0.0,0.0,0.0,0.0,0.0,0.0,0.0,0.0,0.0,0.0,0.0,0.0,0.0,0.0,0.0,0.0,0.0,0.0,0.0,0.0,0.0,-0.0401,-0.0389,-0.0284,-0.0106,0.0096,0.0155,0.0,0.0,0.0,0.0,0.0,0.0,0.0,0.0,0.0,0.0,0.0,0.0,0.0,0.0,0.0,0.0,0.0,0.0,0.0,0.0,0.0,0.0,0.0,0.0,0.0,0.0,0.0,0.0,0.0,0.0,0.0,0.0,0.0,0.0,0.0,0.0,0.0,0.0,0.0,0.0,0.0,0.0,0.0,0.0,0.0,0.0,0.0,0.0,0.0,0.0,0.0,0.0,0.0,0.0,0.0,0.0,0.0,0.0,0.0,0.0,0.0,0.0,0.0,0.0,0.0,0.0,0.0,0.0,0.0,0.0,0.0,0.0,0.0,0.0,0.0,0.0,0.0,0.0,0.0,0.0,0.0,0.0,0.0,0.0,0.0,0.0,0.0,0.0,0.0,0.0,0.0,0.0,0.0,0.0,0.0,0.0,0.0,0.0,0.0,0.0,0.0,0.0,0.0,0.0,0.0,0.0,0.0,0.0,0.0,-0.04,-0.0199,-0.0083,-0.0027,0.0202,0.0285,0.0,0.0,0.0,0.0,0.0,0.0,0.0,0.0,0.0,0.0,0.0,0.0,0.0,0.0,0.0,0.0,0.0,0.0,0.0,0.0,0.0,0.0,0.0,0.0,0.0,0.0,0.0,0.0,0.0,0.0,0.0,0.0,0.0,0.0,0.0,0.0,0.0,0.0,0.0,0.0,0.0,0.0,0.0,0.0,0.0,0.0,0.0,0.0,0.0,0.0,0.0,0.0,0.0,0.0,0.0,0.0,0.0,0.0,0.0,0.0,0.0,0.0,0.0,0.0,0.0,0.0,0.0,0.0,0.0,0.0,0.0,0.0,0.0,0.0,0.0,0.0,0.0,0.0,0.0,0.0,0.0,0.0,0.0,0.0,0.0,0.0,0.0,0.0,0.0,0.0,0.0,0.0,0.0,0.0,0.0,0.0,0.0,0.0,0.0,0.0,0.0,0.0,0.0,0.0,0.0,0.0,0.0,0.0,0.0,-0.0088,0.0087,0.0285,0.0501,0.0619,0.0583,0.0,0.0,0.0,0.0,0.0,0.0,0.0,0.0,0.0,0.0,0.0,0.0,0.0,0.0,0.0,0.0,0.0,0.0,0.0,0.0,0.0,0.0,0.0,0.0,0.0,0.0,0.0,0.0,0.0,0.0,0.0,0.0,0.0,0.0,0.0,0.0,0.0,0.0,0.0,0.0,0.0,0.0,0.0,0.0,0.0,0.0,0.0,0.0,0.0,0.0,0.0,0.0,0.0,0.0,0.0,0.0,0.0,0.0,0.0,0.0,0.0,0.0,0.0,0.0,0.0,0.0,0.0,0.0,0.0,0.0,0.0,0.0,0.0,0.0,0.0,0.0,0.0,0.0,0.0,0.0,0.0,0.0,0.0,0.0,0.0,0.0,0.0,0.0,0.0,0.0,0.0,0.0,0.0,0.0,0.0,0.0,0.0,0.0,0.0,0.0,0.0,0.0,0.0,0.0,0.0,0.0,0.0,0.0,0.0374,0.0295,0.0374,0.069,0.1211,0.1111,0.096,0.0,0.0,0.0,0.0,0.0,0.0,0.0,0.0,0.0,0.0,0.0,0.0,0.0,0.0,0.0,0.0,0.0,0.0,0.0,0.0,0.0,0.0,0.0,0.0,0.0,0.0,0.0,0.0,0.0,0.0,0.0,0.0,0.0,0.0,0.0,0.0,0.0,0.0,0.0,0.0,0.0,0.0,0.0,0.0,0.0,0.0,0.0,0.0,0.0,0.0,0.0,0.0,0.0,0.0,0.0,0.0,0.0,0.0,0.0,0.0,0.0,0.0,0.0,0.0,0.0,0.0,0.0,0.0,0.0,0.0,0.0,0.0,0.0,0.0,0.0,0.0,0.0,0.0,0.0,0.0,0.0,0.0,0.0,0.0,0.0,0.0,0.0,0.0,0.0,0.0,0.0,0.0,0.0,0.0,0.0,0.0,0.0,0.0,0.0,0.0,0.0,0.0,0.0,0.0,0.0,0.0,0.0,0.0,0.036,0.0305,0.0425,0.0759,0.1342,0.1269,0.1263,0.0,0.0,0.0,0.0,0.0,0.0,0.0,0.0,0.0,0.0,0.0,0.0,0.0,0.0,0.0,0.0,0.0,0.0,0.0,0.0,0.0,0.0,0.0,0.0,0.0,0.0,0.0,0.0,0.0,0.0,0.0,0.0,0.0,0.0,0.0,0.0,0.0,0.0,0.0,0.0,0.0,0.0,0.0,0.0,0.0,0.0,0.0,0.0,-0.114,0.0,0.0,0.0,0.0,0.0,0.0,0.0,0.0,0.0,0.0,0.0,0.0,0.0,0.0,0.0,0.0,0.0,0.0,0.0,0.0,0.0,0.0,0.0,0.0,0.0,0.0,0.0,0.0,0.0,0.0,0.0,0.0,0.0,0.0,0.0,0.0,0.0,0.0,0.0,0.0,0.0,0.0,0.0,0.0,0.0,0.0,0.0,0.0,0.0,0.0,0.0,0.0,0.0,0.0,0.0,0.0,0.0,0.0,0.0,0.0656,0.0812,0.0952,0.1307,0.1891,0.1893,0.1833,0.0,0.0,0.0,0.0,0.0,0.0,0.0,0.0,0.0,0.0,0.0,0.0,0.0,0.0,0.0,0.0,0.0,0.0,0.0,0.0,0.0,0.0,0.0,0.0,0.0,0.0,0.0,0.0,0.0,0.0,0.0,0.0,0.0,0.0,0.0,0.0,0.0,0.0,0.0,0.0,0.0,0.0,0.0,0.0,0.0,0.0,0.0,0.0,0.0,0.0,0.0,0.0,0.0,0.0,0.0,0.0,0.0,0.0,0.0,0.0,0.0,0.0,0.0,0.0,0.0,0.0,0.0,0.0,0.0,0.0,0.0,0.0,0.0,0.0,0.0,0.0,0.0,0.0,0.0,0.0,0.0,0.0,0.0,0.0,0.0,0.0,0.0,0.0,0.0,0.0,0.0,0.0,0.0,0.0,0.0,0.0,0.0,0.0,0.0,0.0,0.0,0.0,0.0,0.0,0.0,0.0,0.0,0.0866,0.1129,0.1436,0.1604,0.2001,0.2583,0.2565,0.2483,0.239,0.0,0.0,0.0,0.0,0.0,0.0,0.0,0.0,0.0,0.0,0.0,0.0,0.0,0.0,0.0,0.0,0.0,0.0,0.0,0.0,0.0,0.0,0.0,0.0,0.0,0.0,0.0,0.0,0.0,0.0,0.0,0.0,0.0,0.0,0.0,0.0,0.0,0.0,-0.1495,-0.0811,0.0,0.0,0.0,0.0,0.0,0.0,0.0,0.0,-0.1314,0.0,0.0,0.0,0.0,0.0,0.0,0.0,0.0,0.0,0.0,0.0,0.0,0.0,0.0,0.0,0.0,0.0,0.0,0.0,0.0,0.0,0.0,0.0,0.0,0.0,0.0,0.0,0.0,0.0,0.0,0.0,0.0,0.0,0.0,0.0,0.0,0.0,0.0,0.0,0.0,0.0,0.0,0.0,0.0,0.0,0.0,0.0,0.0,0.0,0.0,0.0,0.0,0.0,0.0,0.0,0.0,0.0932,0.1496,0.1716,0.1586,0.196,0.2485,0.3051,0.2813,0.2852,0.3143,0.0,0.0,0.0,0.0,0.0,0.0,0.0,0.0,0.0,0.0,0.0,0.0,0.0,0.0,0.0,0.0,0.0,0.0,0.0,0.0,0.0,0.0,0.0,0.0,0.0,0.0,0.0,0.0,0.0,0.0,0.0,0.0,0.0,0.0,0.0,0.0,0.0,0.0,0.0,-0.0599,-0.0224,0.0,0.0,0.0,0.0,0.0,0.0,0.0,0.0,-0.132,0.0,0.0,0.0,0.0,0.0,0.0,0.0,0.0,0.0,0.0,0.0,0.0,0.0,0.0,0.0,0.0,0.0,0.0,0.0,0.0,0.0,0.0,0.0,0.0,0.0,0.0,0.0,0.0,0.0,0.0,0.0,0.0,0.0,0.0,0.0,0.0,0.0,0.0,0.0,0.0,0.0,0.0,0.0,0.0,0.0,0.0,0.0,0.0,0.0,0.0,0.0,0.0,0.0,0.0,0.0,0.1437,0.1698,0.1934,0.2174,0.2464,0.2812,0.3183,0.3111,0.3133,0.0,0.0,0.0,0.0,0.0,0.0,0.0,0.0,0.0,0.0,0.0,0.0,0.0,0.0,0.0,0.0,0.0,0.0,0.0,0.0,0.0,0.0,0.0,0.0,0.0,0.0,0.0,0.0,0.0,0.0,0.0,0.0,0.0,0.0,0.0,0.0,0.0,0.0,0.0,0.0,-0.0762,-0.0423,-0.0059,0.0,0.0,0.0,0.0,0.0,0.0,-0.1046,-0.1184,0.0,0.0,0.0,0.0,0.0,0.0,0.0,0.0,0.0,0.0,0.0,0.0,0.0,0.0,0.0,0.0,0.0,0.0,0.0,0.0,0.0,0.0,0.0,0.0,0.0,0.0,0.0,0.0,0.0,0.0,0.0,0.0,0.0,0.0,0.0,0.0,0.0,0.0,0.0,0.0,0.0,0.0,0.0,0.0,0.0,0.0,0.0,0.0,0.0,0.0,0.0,0.0,0.0,0.0,0.0,0.1934,0.2096,0.2418,0.2906,0.3091,0.3259,0.3444,0.35,0.3479,0.0,0.0,0.0,0.0,0.0,0.0,0.0,0.0,0.0,0.0,0.0,0.0,0.0,0.0,0.0,0.0,0.0,0.0,0.0,0.0,0.0,0.0,0.0,0.0,0.0,0.0,0.0,0.0,0.0,0.0,0.0,0.0,0.0,0.0,0.0,0.0,0.0,0.0,0.0,0.0,0.0,-0.0597,-0.0139,-0.0299,0.0,0.0,0.0,0.0,-0.0912,-0.0912,0.0,0.0,0.0,0.0,0.0,0.0,0.0,0.0,0.0,0.0,0.0,0.0,0.0,0.0,0.0,0.0,0.0,0.0,0.0,0.0,0.0,0.0,0.0,0.0,0.0,0.0,0.0,0.0,0.0,0.0,0.0,0.0,0.0,0.0,0.0,0.0,0.0,0.0,0.0,0.0,0.0,0.0,0.0,0.0,0.0,0.0,0.0,0.0,0.0,0.0,0.0,0.0,0.0,0.0,0.0,0.0,0.2461,0.3281,0.3698,0.3668,0.3907,0.4134,0.4343,0.4089,0.3928,0.0,0.0,0.0,0.0,0.0,0.0,0.0,0.0,0.0,0.0,0.0,0.0,0.0,0.0,0.0,0.0,0.0,0.0,0.0,0.0,0.0,0.0,0.0,0.0,0.0,0.0,0.0,0.0,0.0,0.0,0.0,0.0,0.0,0.0,0.0,0.0,0.0,0.0,0.0,0.0,0.0,-0.0479,-0.0063,-0.0188,-0.036,0.0,0.0,-0.0921,-0.136,-0.0885,0.0,0.0,0.0,0.0,0.0,0.0,0.0,0.0,0.0,0.0,0.0,0.0,0.0,0.0,0.0,0.0,0.0,0.0,0.0,0.0,0.0,0.0,0.0,0.0,0.0,0.0,0.0,0.0,0.0,0.0,0.0,0.0,0.0,0.0,0.0,0.0,0.0,0.0,0.0,0.0,0.0,0.0,0.0,0.0,0.0,0.0,0.0,0.0,0.0,0.0,0.0,0.0,0.0,0.0,0.0,0.2736,0.2975,0.3539,0.3938,0.418,0.4197,0.4201,0.4207,0.4139,0.401,0.0,0.0,0.0,0.0,0.0,0.0,0.0,0.0,0.0,0.0,0.0,0.0,0.0,0.0,0.0,0.0,0.0,0.0,0.0,0.0,0.0,0.0,0.0,0.0,0.0,0.0,0.0,0.0,0.0,0.0,0.0,0.0,0.0,0.0,0.0,0.0,0.0,0.0,0.0,0.0,0.0,0.0,-0.021,-0.0147,0.0,0.0,0.0,-0.0515,-0.0845,0.0,0.0,0.0,0.0,0.0,0.0,0.0,0.0,0.0,0.0,0.0,0.0,0.0,0.0,0.0,0.0,0.0,0.0,0.0,0.0,0.0,0.0,0.0,0.0,0.0,0.0,0.0,0.0,0.0,0.0,0.0,0.0,0.0,0.0,0.0,0.0,0.0,0.0,0.0,0.0,0.0,0.0,0.0,0.0,0.0,0.0,0.0,0.0,0.0,0.0,0.0,0.0,0.0,0.0,0.0,0.0,0.0,0.35,0.3842,0.4241,0.4705,0.4533,0.4374,0.4228,0.4287,0.0,0.0,0.0,0.0,0.0,0.0,0.0,0.0,0.0,0.0,0.0,0.0,0.0,0.0,0.0,0.0,0.0,0.0,0.0,0.0,0.0,0.0,0.0,0.0,0.0,0.0,0.0,0.1143,0.0,0.0,0.0,0.0,0.0,0.0,0.0,0.0,0.0,0.0,0.0,0.0,0.0,0.0,-0.0635,-0.0281,-0.0065,0.0043,0.0,0.0,-0.0151,-0.0286,0.0,0.0081,0.0,0.0,0.0,0.0,0.0,0.0,0.0,0.0,0.0,0.0,0.0,0.0,0.0,0.0,0.0,0.0,0.0,0.0,0.0,0.0,0.0,0.0,0.0,0.0,0.0,0.0,0.0,0.0,0.0,0.0,0.0,0.0,0.0,0.0,0.0,0.0,0.0,0.0,0.0,0.0,0.0,0.0,0.0,0.0,0.0,0.0,0.0,0.0,0.0,0.0,0.0,0.0,0.0,0.0,0.0,0.4052,0.4559,0.4983,0.5306,0.5144,0.4979,0.4835,0.4672,0.4687,0.0,0.0,0.0,0.0,0.0,0.0,0.0,0.0,0.0,0.0,0.0,0.0,0.0,0.0,0.0,0.0,0.0,0.0,0.0,0.0,0.0,0.0,0.0,0.0,0.0,0.0,0.0,0.0,0.0,0.0,0.0,0.0,0.0,0.0,0.0,0.0,0.0,0.0,0.0,0.0,0.0,-0.0302,-0.014,0.0069,0.0245,0.0,0.0,-0.0155,-0.0042,0.0446,0.0579,-0.0189,0.0,0.0,0.0,0.0,0.0,0.0,0.0,0.0,0.0,0.0,0.0,0.0,0.0,0.0,0.0,0.0,0.0,0.0,0.0,0.0,0.0,0.0,0.0,0.0,0.0,0.0,0.0,0.0,0.0,0.0,0.0,0.0,0.0,0.0,0.0,0.0,0.0,0.0,0.0,0.0,0.0,0.0,0.0,0.0,0.0,0.0,0.0,0.0,0.0,0.0,0.0,0.0,0.0,0.4098,0.4429,0.4808,0.5153,0.5391,0.5304,0.5091,0.4843,0.4982,0.5022,0.0,0.0,0.0,0.0,0.0,0.0,0.0,0.0,0.0,0.0,0.0,0.0,0.0,0.0,0.0,0.0,0.0,0.0,0.0,0.0,0.0,0.0,0.0,0.0,0.0,0.0,0.0,0.0,0.1871,0.1835,0.1626,0.0,0.0,0.0,0.0,0.0,0.0,0.0,0.0,0.0,0.0,0.0159,0.0183,0.0203,0.0,0.0,-0.0135,-0.0383,-0.0363,-0.0043,0.0084,-0.0315,-0.0493,0.0,0.0,0.0,0.0,0.0,0.0,0.0,0.0,0.0,0.0,0.0,0.0,0.0,0.0,0.0,0.0,0.0,0.0,0.0,0.0,0.0,0.0,0.0,0.0,0.0,0.0,0.0,0.0,0.0,0.0,0.0,0.0,0.0,0.0,0.0,0.0,0.0,0.0,0.0,0.0,0.0,0.0,0.0,0.0,0.0,0.0,0.0,0.0,0.0,0.0,0.0,0.0,0.4525,0.4667,0.5029,0.5285,0.5454,0.5454,0.528,0.494,0.514,0.5239,0.0,0.0,0.0,0.0,0.0,0.0,0.0,0.0,0.0,0.0,0.0,0.0,0.0,0.0,0.0,0.0,0.0,0.0,0.0,0.0,0.0,0.0,0.0,0.0,0.0,0.0,0.0,0.0,0.2492,0.2487,0.2171,0.0,0.0,0.0,0.0,0.0,0.0,0.0,0.0,0.0,0.0,0.049,0.0302,0.0186,0.0163,0.014,-0.0141,-0.0286,-0.0048,0.0,-0.0045,-0.0212,0.0,0.0,0.0,0.0,0.0,0.0,0.0,0.0,0.0,0.0,0.0,0.0,0.0,0.0,0.0,0.0,0.0,0.0,0.0,0.0,0.0,0.0,0.0,0.0,0.0,0.0,0.0,0.0,0.0,0.0,0.4322,0.0,0.0,0.0,0.0,0.0,0.0,0.0,0.0,0.0,0.0,0.0,0.0,0.0,0.0,0.0,0.0,0.0,0.0,0.0,0.0,0.0,0.0,0.5035,0.4901,0.5292,0.5531,0.5603,0.5717,0.5593,0.5188,0.5199,0.5369,0.5662,0.0,0.0,0.0,0.0,0.0,0.0,0.0,0.0,0.0,0.0,0.0,0.0,0.0,0.0,0.0,0.0,0.0,0.0,0.0,0.0,0.0,0.0,0.0,0.0,0.0,0.0,0.3606,0.3423,0.3177,0.0,0.0,0.0,0.0,0.0,0.0,0.0,0.0,0.0,0.0,0.0613,0.067,0.0099,0.0,0.015,0.0426,0.0155,0.0236,0.1138,0.0829,0.0397,0.0,0.0,0.0,0.0,0.0,0.0,0.0,0.0,0.0,0.0,0.0,0.0,0.0,0.0,0.0,0.0,0.0,0.0,0.0,0.0,0.0,0.0,0.0,0.0,0.0,0.0,0.0,0.5751,0.5844,0.0,0.0,0.0,0.0,0.0,0.0,0.0,0.0,0.0,0.0,0.0,0.6627,0.7353,0.0,0.0,0.0,0.0,0.0,0.0,0.0,0.0,0.0,0.0,0.0,0.0,0.558,0.5686,0.5701,0.5786,0.5938,0.5935,0.5775,0.5408,0.5526,0.5721,0.5966,0.0,0.0,0.0,0.0,0.0,0.0,0.0,0.0,0.0,0.0,0.0,0.0,0.0,0.0,0.0,0.0,0.0,0.0,0.0,0.0,0.0,0.0,0.0,0.0,0.0,0.4159,0.0,0.0,0.0,0.0,0.0,0.0,0.0,0.0,0.0,0.0,0.0,0.08,0.0801,0.1166,0.1261,0.0731,0.063,0.0625,0.0,0.0,0.0,0.0,0.0,0.0,0.0,0.0,0.0,0.0,0.0,0.0,0.0,0.0,-0.1499,-0.1727,-0.2066,-0.2349,-0.2466,0.0,0.0,0.0,0.0,0.0,0.0,0.0,0.0,0.0,0.0,0.0,0.0,0.0,0.0,0.6738,0.0,0.6875,0.0,0.0,0.0,0.0,0.0,0.0,0.0,0.0,0.7073,0.7488,0.7478,0.8278,0.8762,0.0,0.875,0.8372,0.0,0.0,0.0,0.0,0.0,0.0,0.0,0.0,0.6191,0.6287,0.6174,0.6133,0.6173,0.6133,0.6065,0.5885,0.6151,0.6181,0.5961,0.655,0.6981,0.0,0.0,0.0,0.0,0.0,0.0,0.0,0.0,0.0,0.0,0.0,0.0,0.0,0.0,0.0,0.0,0.0,0.0,0.0,0.0,0.0,0.0,0.0,0.4997,0.0,0.0,0.0,0.0,0.0,0.0,0.0,0.0,0.0,0.2034,0.1798,0.1707,0.1612,0.177,0.1719,0.1155,0.0,0.0,0.0,0.0,0.0,0.0,0.0,0.0516,0.0391,0.0355,0.0463,0.0775,0.0501,0.0179,-0.0045,0.0,0.0,-0.1096,-0.1457,-0.1757,-0.1962,-0.2384,-0.2701,-0.2699,-0.2736,-0.279,0.0,0.0,0.0,0.0,0.0,0.0,0.0,0.0,0.7328,0.7431,0.0,0.7766,0.0,0.0,0.0,0.0,0.0,0.659,0.0,0.0,0.7766,0.7966,0.8369,0.884,0.9051,0.9087,0.9502,0.961,0.9342,0.8057,0.0,0.0,0.0,0.0,0.0,0.0,0.6862,0.6768,0.6722,0.6581,0.6386,0.6406,0.6476,0.6632,0.6972,0.6725,0.5848,0.6856,0.7336,0.706,0.7676,0.0,0.0,0.0,0.0,0.0,0.0,0.0,0.0,0.0,0.0,0.0,0.0,0.0,0.0,0.0,0.0,0.0,0.0,0.0,0.0,0.5853,0.0,0.0,0.0,0.0,0.0,0.0,0.0,0.0,0.0,0.0,0.3297,0.2813,0.2558,0.2566,0.0,0.0,0.0,0.0,0.1139,0.1158,0.1032,0.1143,0.17,0.1276,0.0921,0.112,0.0,0.0,0.0881,0.0829,0.0694,0.0537,0.0412,-0.0064,-0.1265,-0.1325,-0.1366,-0.1789,-0.2037,-0.2216,-0.2262,-0.2286,-0.2437,0.9714,0.0,0.0,0.0,0.0,0.8823,0.8963,0.8758,0.9611,0.9693,0.9169,0.9278,0.0,0.0,0.0,0.0,0.0,0.0,0.8019,0.826,0.9034,0.9328,0.9174,0.9833,1.0146,1.0153,1.0283,1.0184,0.9896,0.9489,0.8902,0.817,0.0,0.0,0.0,0.0,0.758,0.771,0.7204,0.7024,0.7284,0.7174,0.7106,0.7181,0.7144,0.6966,0.6629,0.695,0.7225,0.7343,0.7509,0.0,0.0,0.0,0.0,0.0,0.0,0.0,0.0,0.0,0.0,0.0,0.0,0.0,0.0,0.0,0.0,0.0,0.0,0.0,0.6507,0.6345,0.6363,0.0,0.0,0.0,0.0,0.0,0.0,0.0,0.0,0.0,0.4961,0.4029,0.3172,0.0,0.0,0.2665,0.2132,0.2069,0.2113,0.2153,0.2007,0.0,0.193,0.1994,0.1961,0.1836,0.1649,0.1517,0.1342,0.1325,0.1277,0.112,0.1043,0.0773,0.0067,-0.0277,-0.0452,-0.0694,-0.0878,-0.1081,-0.1245,-0.1388,-0.1528,1.118,1.0238,1.0089,0.9826,0.959,1.0168,1.0276,1.0072,1.0783,1.0795,1.0308,1.0372,1.01,0.9623,0.9209,0.0,0.0,0.0,0.8875,0.8916,0.9797,1.0082,0.9854,1.0506,1.0807,1.0782,1.0782,1.065,1.0386,1.0503,1.0227,0.9586,0.0,0.0,0.8616,0.8432,0.8463,0.8675,0.8203,0.8058,0.8284,0.8137,0.7967,0.7721,0.7841,0.7672,0.7135,0.7364,0.7528,0.7596,0.7791,0.8098,0.0,0.0,0.0,0.0,0.0,0.0,0.0,0.0,0.0,0.0,0.0,0.7194,0.0,0.0,0.0,0.0,0.6759,0.7139,0.7239,0.7196,0.0,0.0,0.0,0.0,0.0,0.0,0.0,0.6401,0.5993,0.5645,0.5431,0.4804,0.4037,0.3239,0.3228,0.3167,0.2836,0.0,0.2806,0.2898,0.2691,0.2501,0.2397,0.2503,0.253,0.2301,0.2175,0.2017,0.1756,0.1687,0.1638,0.1524,0.1457,0.1299,0.0918,0.0666,0.0332,-0.0104,-0.029,-0.0435,-0.0601,-0.0746,-0.094,1.2438,1.2114,1.1779,1.146,1.1199,1.1417,1.1386,1.1199,1.1252,1.1169,1.1005,1.1124,1.1009,1.0653,1.0122,0.0,1.0219,0.9685,0.9575,0.9764,1.0245,1.0441,1.0401,1.0863,1.1097,1.1097,1.1097,1.1005,1.0834,1.1098,1.1107,1.08,0.9916,0.9355,0.9143,0.9343,0.9502,0.9658,0.9447,0.932,0.9248,0.9173,0.8883,0.8342,0.887,0.8614,0.75,0.8001,0.8133,0.7745,0.8329,0.8517,0.8261,0.0,0.0,0.0,0.0,0.0,0.0,0.0,0.0,0.0,0.0,0.0,0.0,0.0,0.0,0.0,0.7782,0.0,0.7871,0.8259,0.0,0.0,0.0,0.7767,0.7466,0.7013,0.6685,0.6504,0.0,0.0,0.5253,0.5327,0.5066,0.4098,0.3783,0.3625,0.3475,0.3339,0.3321,0.3467,0.3166,0.2959,0.2968,0.2906,0.2789,0.2591,0.2435,0.229,0.2067,0.191,0.1839,0.1794,0.1727,0.1591,0.1457,0.134,0.1052,0.0156,-0.0067,-0.0134,-0.0156,-0.0378,-0.0533,1.3705,1.3513,1.3441,1.2769,1.1813,1.2264,1.2296,1.2054,1.2385,1.2243,1.1752,1.1754,1.1636,1.1342,1.0855,1.0923,1.1368,1.0894,1.0802,1.1044,1.0958,1.0927,1.0926,1.1059,1.1097,1.1097,1.1097,1.1087,1.1016,1.0954,1.096,1.1016,1.1027,1.1065,1.1076,1.0604,1.0533,1.0888,1.03,0.9959,0.9888,0.9636,0.942,0.9362,0.909,0.8735,0.825,0.8447,0.8323,0.7745,0.8114,0.8342,0.8364,0.912,0.0,0.0,0.0,0.0,0.0,0.0,0.0,0.0,0.0,0.825,0.8475,0.0,0.8943,0.0,0.8089,0.7997,0.8445,0.8478,0.0,0.0,0.8595,0.8693,0.861,0.8165,0.7957,0.8119,0.7622,0.7138,0.6731,0.6482,0.6143,0.5492,0.4725,0.4214,0.4147,0.3848,0.3801,0.4087,0.3696,0.3382,0.3605,0.3441,0.3169,0.2923,0.2876,0.2692,0.231,0.2152,0.2064,0.1975,0.1839,0.1749,0.1705,0.1705,0.1569,0.1232,0.0806,0.047,0.0358,0.0246,0.0112,1.4355,1.4378,1.434,1.3984,1.3367,1.32,1.3019,1.2867,1.3112,1.2943,1.2426,1.228,1.2186,1.2106,1.1616,1.1517,1.1747,1.1358,1.1277,1.1393,1.1262,1.1287,1.151,1.1374,1.1382,1.1486,1.1518,1.1518,1.1486,1.139,1.1425,1.1633,1.1689,1.1832,1.2133,1.1844,1.1811,1.2009,1.1441,1.0951,1.0544,1.0201,1.0108,1.0184,0.978,0.9559,0.9565,0.9572,0.9449,0.9204,0.9101,0.9124,0.9329,0.9938,1.0181,0.0,0.0,0.0,0.0,0.0,0.0,0.0,0.0,0.0,0.0,0.0,0.9657,0.9368,0.8768,0.8657,0.9148,0.9073,0.9003,0.9004,0.891,0.8873,0.8924,0.841,0.8184,0.8546,0.7989,0.7466,0.723,0.695,0.6666,0.6238,0.5676,0.5222,0.504,0.4762,0.4647,0.4727,0.4404,0.419,0.432,0.4015,0.3676,0.3451,0.3173,0.2884,0.2558,0.2402,0.2308,0.2219,0.2105,0.2016,0.2016,0.1973,0.1908,0.1817,0.1547,0.1232,0.103,0.0828,0.0694,1.4788,1.49,1.49,1.4955,1.5026,1.4112,1.3667,1.3623,1.3616,1.3403,1.3116,1.2792,1.2742,1.2935,1.2406,1.2116,1.2046,1.1664,1.1521,1.1521,1.1478,1.1671,1.2047,1.1848,1.1831,1.2062,1.2094,1.2102,1.2094,1.2102,1.2199,1.238,1.2078,1.2174,1.267,1.2902,1.2946,1.2871,1.254,1.1994,1.1307,1.1071,1.1002,1.1103,1.0783,1.0736,1.0969,1.0825,1.0806,1.1014,1.0546,1.0306,1.0442,1.0952,1.101,0.0,1.1557,0.0,0.0,0.0,0.0,0.0,0.0,0.0,0.0,1.0067,1.0125,1.0096,0.9682,0.9521,0.9795,0.9706,0.9574,0.941,0.9008,0.8791,0.8923,0.8361,0.8126,0.856,0.809,0.7628,0.7507,0.7236,0.703,0.689,0.6675,0.6381,0.609,0.5765,0.5477,0.5277,0.5234,0.5109,0.4922,0.458,0.4263,0.4046,0.362,0.3138,0.3064,0.2812,0.2655,0.2627,0.2547,0.2429,0.2333,0.225,0.2211,0.2158,0.2062,0.1928,0.1658,0.1389,0.1232,1.5655,1.5452,1.5444,1.5324,1.5103,1.4904,1.4653,1.438,1.4106,1.3954,1.3871,1.3525,1.356,1.38,1.3287,1.3189,1.3384,1.2919,1.2704,1.2689,1.2385,1.2339,1.2383,1.2365,1.2372,1.2431,1.2572,1.2639,1.2632,1.2539,1.2639,1.294,1.2713,1.278,1.3181,0.0,0.0,0.0,1.2639,1.2468,1.2346,1.2562,1.2704,1.2727,1.2095,0.0,1.1551,1.1464,1.1192,1.0719,1.0948,0.0,0.0,0.0,0.0,0.0,0.0,0.0,0.0,0.0,0.0,0.0,1.1012,1.0738,1.0075,1.059,1.0873,1.0677,1.0577,1.034,0.9996,0.994,0.9768,0.9442,0.9405,0.9397,0.9334,0.9284,0.9309,0.922,0.924,0.9095,0.8663,0.8346,0.8108,0.7989,0.7606,0.7288,0.7187,0.641,0.5933,0.5955,0.5887,0.5673,0.5281,0.5062,0.493,0.4861,0.4542,0.4253,0.4257,0.3821,0.3426,0.3307,0.3202,0.296,0.2569,0.2621,0.2683,0.2478,0.242,0.2304,0.1995,0.1794,0.1682,1.6062,0.0,1.599,1.5963,0.0,1.5701,1.5529,1.5342,1.4811,1.4581,1.4477,1.4037,1.3984,1.4222,1.3686,1.3535,1.3686,1.3242,1.3058,1.3043,1.2878,1.2886,1.3035,1.2871,1.2886,1.3043,1.3146,1.3187,1.3187,1.3119,1.3214,1.3438,1.3022,1.2887,1.3051,1.2945,1.284,1.278,1.275,1.2581,1.2388,1.2367,1.2515,1.2735,1.2245,0.0,0.0,0.0,0.0,0.0,0.0,0.0,0.0,1.1399,0.0,1.1195,1.1616,1.1773,1.1515,1.149,1.1328,1.104,1.0947,1.0763,1.0466,1.0663,1.0706,1.0556,1.0477,1.0294,1.0048,1.0007,0.9905,0.971,0.9721,0.9655,0.9606,0.9726,0.9748,0.9653,0.9583,0.9448,0.9217,0.8893,0.8704,0.8683,0.8549,0.8253,0.7929,0.7171,0.6594,0.6551,0.6327,0.6164,0.6018,0.5723,0.5565,0.5529,0.5179,0.4843,0.4664,0.4303,0.3915,0.3666,0.3529,0.3372,0.3181,0.3213,0.3236,0.3097,0.2944,0.2766,0.2557,0.2339,0.2127,1.6286,1.6443,1.6443,1.6566,1.6665,1.638,1.6301,1.623,0.0,0.0,0.0,1.4584,1.4429,1.4511,1.406,1.38,1.373,1.3412,1.3282,1.329,1.3256,1.3435,1.368,1.3386,1.3401,1.3695,1.3703,1.3738,1.3738,1.3738,1.3801,1.382,1.3214,1.2858,1.2726,1.2383,1.2383,1.275,1.282,1.2687,1.2274,1.2119,1.2227,1.2641,1.2302,1.2375,1.2909,1.2745,1.2775,1.2981,1.2506,1.229,1.2438,1.2245,1.215,1.2287,1.2572,1.2452,1.1944,1.1918,1.1631,1.0973,1.0801,1.0753,1.0836,1.0522,1.0342,1.0316,1.0187,1.0076,1.0076,1.011,1.0076,1.0058,0.9947,0.9877,0.9814,0.9836,0.9874,0.9834,0.9638,0.9474,0.9508,0.9253,0.9053,0.9085,0.9075,0.9087,0.8539,0.7786,0.7187,0.7009,0.6793,0.6652,0.6707,0.6485,0.6218,0.6195,0.5752,0.5289,0.5008,0.4743,0.4481,0.4246,0.408,0.4051,0.3964,0.3961,0.3949,0.3904,0.3608,0.3328,0.3251,0.3016,0.2738,1.6656,1.6648,1.6648,1.6689,1.6689,1.6642,1.6618,1.6562,1.5889,1.5611,1.5564,1.5516,1.5334,1.5073,1.4832,1.4571,1.4291,1.405,1.3956,1.3948,1.3948,1.3978,1.4024,1.3986,1.3978,1.406,1.4212,1.4291,1.4283,1.4283,1.4319,1.4233,1.3564,1.304,1.2679,1.2553,1.2553,1.2639,1.2909,1.3036,1.2957,1.3542,1.386,1.3901,1.3507,1.3383,1.3496,1.3106,1.295,1.2989,1.3075,1.2879,1.2375,1.2389,1.2254,1.1921,1.1924,1.1955,1.1989,1.1989,1.1936,1.1831,1.1685,1.1331,1.0629,1.0522,1.0462,1.047,1.046,1.0445,1.0411,1.0419,1.0368,1.0265,1.0239,1.011,0.9851,0.9792,0.9776,0.969,0.9782,0.9824,0.9748,0.9522,0.9363,0.9315,0.9208,0.9015,0.8814,0.809,0.7522,0.7413,0.7381,0.7306,0.7171,0.7085,0.6923,0.6945,0.6543,0.6257,0.6333,0.5978,0.5607,0.5505,0.5352,0.5252,0.4909,0.4909,0.4835,0.468,0.4433,0.4207,0.401,0.3906,0.3576,1.6894,1.7212,1.7253,1.7456,1.774,1.7408,1.7253,1.7229,1.6909,1.6489,1.5991,1.58,1.5632,1.5443,1.5186,1.4975,1.4817,1.4511,1.4346,1.4346,1.4382,1.4346,1.4389,1.4382,1.4382,1.4382,1.4461,1.4497,1.4489,1.4533,1.4497,1.4458,1.4098,1.3765,1.3493,1.3452,1.3355,1.3151,1.2931,1.2821,1.2821,1.3147,1.3323,1.3331,1.3161,1.3071,1.3165,1.2979,1.2928,1.2989,1.3103,1.2989,1.2712,1.2575,1.2423,1.2307,1.2116,1.2056,1.2223,1.2139,1.2092,1.2008,1.1952,1.1765,1.1355,1.1126,1.0947,1.078,1.0783,1.0695,1.052,1.0496,1.0462,1.0411,1.0342,1.0239,1.0084,0.9903,0.9766,0.9721,0.9727,0.9727,0.9734,0.9697,0.9673,0.9639,0.9418,0.9236,0.9221,0.8713,0.8203,0.794,0.7886,0.774,0.7474,0.7359,0.7327,0.7306,0.7144,0.6973,0.696,0.6611,0.6365,0.5994,0.5919,0.5788,0.5466,0.5474,0.5452,0.5387,0.5135,0.4941,0.4823,0.4634,0.4164,1.7449,1.77,1.7853,1.8215,1.8616,1.8135,1.7934,1.7934,1.7934,1.7491,1.6771,1.6493,1.6252,1.6,1.5788,1.5514,1.5298,1.4962,1.4843,1.4843,1.4843,1.4835,1.4843,1.4835,1.4843,1.4835,1.4835,1.4835,1.4835,1.4835,1.4784,1.4661,1.4509,1.4359,1.4181,1.4173,1.4056,1.3734,1.3217,1.2843,1.2691,1.2683,1.2683,1.2683,1.2691,1.2752,1.2836,1.2836,1.2897,1.2981,1.3011,1.3011,1.3003,1.2799,1.2739,1.2823,1.2665,1.2618,1.2702,1.2553,1.2476,1.2419,1.2334,1.2314,1.2305,1.2041,1.1635,1.1275,1.1187,1.1075,1.0841,1.0751,1.0719,1.0727,1.0551,1.0457,1.0415,1.0112,0.9903,0.9851,0.9758,0.9706,0.9691,0.9788,0.9881,0.9844,0.9673,0.9522,0.9535,0.9375,0.906,0.8667,0.8468,0.8267,0.7821,0.772,0.7643,0.757,0.7499,0.7344,0.7139,0.7047,0.6912,0.6502,0.6372,0.6367,0.6231,0.6145,0.614,0.6103,0.5898,0.5689,0.5575,0.525,0.4716,1.8527,1.7838,1.8402,1.8656,1.8745,1.8656,1.8616,1.8616,1.8625,1.8567,1.8417,1.8448,1.7904,1.715,1.7005,1.6486,1.571,1.5632,1.5593,1.5593,1.5578,1.5616,1.5577,1.5554,1.5578,1.5593,1.5585,1.5561,1.5561,1.5569,1.5327,1.4896,1.4727,1.4527,1.4264,1.4231,1.4197,1.4156,1.409,1.3719,1.2999,1.2958,1.2958,1.2958,1.2958,1.2989,1.2989,1.2989,1.2981,1.2989,1.3011,1.3011,1.3042,1.3152,1.3278,1.3391,1.3545,1.3656,1.3647,1.3498,1.3434,1.3605,1.3331,1.3211,1.3314,1.3039,1.2557,1.1951,1.1752,1.1627,1.1456,1.1388,1.1348,1.1289,1.1071,1.0893,1.0762,1.0452,1.0187,0.9999,1.0034,0.9921,0.9814,0.9818,0.9838,0.9895,0.9835,0.9797,0.989,0.9882,0.9735,0.936,0.9234,0.8931,0.8443,0.8317,0.8155,0.7715,0.7538,0.7605,0.7601,0.7512,0.7386,0.7345,0.7252,0.7192,0.7166,0.716,0.6918,0.6837,0.6666,0.6467,0.618,0.5842,0.5282,1.9656,1.9587,1.9629,1.9712,1.9794,1.9411,1.9244,1.9244,1.9244,1.9244,1.9292,1.9648,1.9152,1.8083,1.76,1.7139,1.6754,1.6171,1.5881,1.5881,1.5758,1.5674,1.5674,1.5674,1.5674,1.5712,1.5797,1.5881,1.588,1.5786,1.572,1.5579,1.533,1.5168,1.5137,1.5137,1.5061,1.4799,1.479,1.4537,1.4024,1.3574,1.3364,1.3339,1.3126,1.308,1.3172,1.318,1.3202,1.3277,1.3307,1.3346,1.3467,1.3549,1.364,1.3782,1.3881,1.392,1.3911,1.3851,1.383,1.3929,1.3799,1.3739,1.3791,1.3619,1.3284,1.2873,1.2456,1.2086,1.1748,1.1672,1.1636,1.1499,1.1368,1.1289,1.1225,1.1025,1.0802,1.0516,1.057,1.0436,1.0053,0.9921,0.9903,0.9864,0.9841,0.9882,0.9827,0.9895,0.9883,0.9771,0.9727,0.9491,0.892,0.8862,0.877,0.8629,0.8548,0.8583,0.8477,0.8284,0.8129,0.8047,0.7814,0.7624,0.744,0.7434,0.7327,0.73,0.7198,0.6982,0.6756,0.6544,0.6127,2.0338,2.0516,2.0419,2.0494,2.0566,2.0079,1.9883,1.9874,1.9883,1.9883,1.9923,2.0401,2.0089,1.9216,1.8394,1.7935,1.7586,1.6879,1.6483,1.6366,1.6249,1.6163,1.6163,1.628,1.628,1.6241,1.6608,1.6685,1.6558,1.6417,1.6438,1.649,1.6146,1.6076,1.6289,1.6175,1.5974,1.5806,1.5677,1.5546,1.5349,1.4713,1.4155,1.3752,1.3355,1.3194,1.3354,1.3393,1.3476,1.3571,1.361,1.37,1.383,1.3899,1.3989,1.4109,1.4109,1.4079,1.407,1.401,1.401,1.407,1.404,1.401,1.404,1.395,1.386,1.3747,1.3322,1.2864,1.2229,1.2143,1.2077,1.1917,1.1853,1.1752,1.1716,1.1574,1.1328,1.1072,1.1082,1.0976,1.0409,1.028,1.0253,0.9944,0.9941,0.9866,0.9717,0.9754,0.9811,0.9825,0.9938,0.9749,0.9251,0.9184,0.9291,0.9181,0.9082,0.9089,0.9227,0.8899,0.8767,0.8595,0.823,0.7967,0.7919,0.7814,0.7565,0.7499,0.743,0.7328,0.7166,0.7068,0.6942,2.0568,1.986,2.0323,2.0576,2.0566,2.0527,2.0527,2.0479,2.0518,2.0518,2.0518,2.0605,2.0566,2.0411,1.9719,1.8939,1.8078,1.7906,1.7679,1.7357,1.7301,1.7334,1.7342,1.7706,1.769,1.7372,1.802,1.8214,1.7863,1.7757,1.7708,1.7686,1.7292,1.7297,1.7484,1.6925,1.6821,1.7079,1.6731,1.6713,1.7058,1.6431,1.5373,1.432,1.3725,1.3545,1.3558,1.3679,1.3769,1.3808,1.389,1.398,1.401,1.4178,1.4327,1.4417,1.4357,1.4297,1.4297,1.416,1.416,1.4267,1.4219,1.41,1.4318,1.4189,1.421,1.444,1.4335,1.3933,1.3159,1.295,1.2901,1.2871,1.2624,1.2409,1.2268,1.2024,1.1724,1.1527,1.1451,1.1292,1.086,1.0925,1.0666,1.0287,1.0234,1.0264,0.9937,0.9732,0.9728,0.9712,0.978,0.979,0.9474,0.9471,0.9301,0.9226,0.9275,0.911,0.9099,0.9136,0.9189,0.9135,0.8745,0.8497,0.8429,0.8212,0.7868,0.7719,0.7665,0.7578,0.7451,0.7338,0.7242,2.1225,2.0628,2.0877,2.083,2.0615,2.0615,2.0615,2.0595,2.0741,2.078,2.078,2.078,2.078,2.078,2.0411,1.9893,1.9222,1.8834,1.8554,1.8402,1.8304,1.8224,1.8256,1.8385,1.8385,1.8353,1.8674,1.8873,1.882,1.8548,1.8398,1.8346,1.8155,1.8063,1.7989,1.7709,1.7619,1.76,1.7281,1.7235,1.737,1.6883,1.6384,1.5891,1.4859,1.4426,1.4588,1.429,1.4053,1.3929,1.398,1.404,1.4207,1.4327,1.4446,1.4515,1.4654,1.4764,1.4764,1.4834,1.4913,1.4981,1.4951,1.4893,1.4951,1.4863,1.4824,1.4903,1.4824,1.4529,1.427,1.389,1.358,1.3433,1.3107,1.2835,1.2745,1.263,1.2416,1.2035,1.174,1.1483,1.1534,1.1453,1.1224,1.0918,1.0922,1.0766,1.0428,1.0276,1.0113,0.9929,0.9829,0.9811,0.9705,0.9792,0.9791,0.9728,0.9713,0.9733,0.971,0.9414,0.9404,0.9374,0.9088,0.885,0.8743,0.8777,0.8398,0.8236,0.8147,0.7972,0.7678,0.7703,0.7599,2.15,2.1253,2.1224,2.1046,2.0809,2.0809,2.0809,2.0799,2.0945,2.1022,2.0984,2.0984,2.0984,2.0984,2.0848,2.0644,2.0255,1.9627,1.9231,1.9112,1.8944,1.8895,1.8895,1.9015,1.9015,1.8975,1.9271,1.9508,1.9678,1.9464,1.9332,1.9304,1.9164,1.9029,1.9009,1.8754,1.8521,1.8383,1.8097,1.7904,1.7901,1.7568,1.7488,1.7465,1.6421,1.567,1.5557,1.5095,1.4758,1.4617,1.4522,1.4517,1.4645,1.4894,1.502,1.5059,1.5392,1.5512,1.5397,1.5536,1.5557,1.542,1.5439,1.5439,1.541,1.5352,1.5352,1.5381,1.5323,1.5245,1.5245,1.4893,1.4449,1.4151,1.3782,1.358,1.3489,1.348,1.3232,1.2784,1.2313,1.2094,1.2089,1.2104,1.1906,1.1599,1.1495,1.132,1.1064,1.0721,1.0532,1.0272,1.039,1.0318,1.0295,1.0411,1.0112,1.0006,0.9953,1.0073,1.0066,0.9764,0.9597,0.9555,0.941,0.9162,0.9123,0.9192,0.9093,0.8871,0.878,0.8623,0.8364,0.8142,0.8054,2.1207,2.1207,2.1225,2.1207,2.1177,2.1128,2.1167,2.1177,2.1205,2.1205,2.1205,2.1205,2.1215,2.1215,2.1128,2.1167,2.0925,2.0264,1.9784,1.9499,1.942,1.942,1.946,1.9784,1.9775,1.9499,1.999,2.0372,2.0518,2.0479,2.0469,2.0498,2.0259,2.0287,2.0707,1.9979,1.9666,1.9585,1.9143,1.8917,1.9019,1.8616,1.8597,1.9007,1.8222,1.7325,1.6475,1.61,1.5898,1.5843,1.5545,1.54,1.5469,1.582,1.6095,1.6153,1.6498,1.6507,1.6224,1.6186,1.6088,1.5752,1.5634,1.5731,1.5623,1.5642,1.5729,1.5874,1.5902,1.5999,1.6163,1.5885,1.54,1.501,1.4745,1.4597,1.4469,1.4469,1.4222,1.3618,1.3159,1.2838,1.2606,1.2817,1.2861,1.2347,1.2084,1.2003,1.1876,1.1407,1.0806,1.0818,1.1067,1.1189,1.1138,1.1044,1.0551,1.0177,1.0113,1.012,1.0118,0.9947,0.9937,0.9875,0.9632,0.9418,0.9379,0.9453,0.9387,0.9214,0.9215,0.9119,0.8846,0.8605,0.858,2.1487,2.1225,2.1215,2.1215,2.1215,2.1215,2.1215,2.1215,2.132,2.1387,2.1387,2.1387,2.1397,2.1359,2.1292,2.1215,2.1167,2.0896,2.0731,2.0605,2.0566,2.0566,2.0615,2.0693,2.0722,2.0654,2.0809,2.0925,2.1012,2.1002,2.1012,2.1001,2.1054,2.106,2.1057,2.0775,2.0632,2.0405,1.9848,1.9572,1.9656,1.9273,1.9171,1.9441,1.9183,1.8863,1.8555,1.76,1.705,1.6897,1.6457,1.6218,1.6327,1.6667,1.6938,1.6989,1.7276,1.743,1.7328,1.741,1.7315,1.696,1.6846,1.6661,1.6308,1.6324,1.6371,1.64,1.6371,1.6428,1.6467,1.6345,1.5972,1.5498,1.5128,1.4922,1.4824,1.4617,1.444,1.4231,1.3881,1.364,1.3519,1.3743,1.3639,1.3409,1.3255,1.3185,1.2923,1.2544,1.2282,1.2157,1.2231,1.2078,1.1944,1.1868,1.1651,1.1107,1.0843,1.0612,1.0506,1.0346,1.0312,1.0161,0.9899,0.9777,0.9749,0.971,0.9687,0.9543,0.9412,0.9288,0.9156,0.9052,0.897,2.2097,2.17,2.168,2.1578,2.1436,2.1436,2.1425,2.1436,2.154,2.1617,2.1617,2.1617,2.1617,2.1578,2.1474,2.1425,2.1436,2.1425,2.1436,2.1397,2.1244,2.1215,2.1215,2.1215,2.1244,2.132,2.131,2.1359,2.1436,2.1436,2.1436,2.1474,2.155,2.154,2.1415,2.1377,2.1236,2.0915,2.0483,2.018,1.9996,1.9693,1.9619,1.9713,1.9704,1.9747,1.9715,1.8961,1.8316,1.7915,1.7461,1.7224,1.7245,1.7637,1.7894,1.7957,1.8207,1.8386,1.826,1.8342,1.8243,1.7839,1.7683,1.7411,1.7026,1.6945,1.6797,1.6694,1.6655,1.6666,1.6666,1.6591,1.6402,1.6077,1.573,1.542,1.5323,1.503,1.4854,1.4765,1.4508,1.43,1.421,1.4249,1.424,1.4201,1.4093,1.4057,1.3776,1.3516,1.3265,1.3139,1.3129,1.2943,1.2691,1.266,1.2689,1.2227,1.1732,1.1443,1.1248,1.1018,1.0906,1.0551,1.0287,1.0253,1.023,1.0201,1.0136,0.9911,0.9702,0.9665,0.9571,0.9319,0.9223,2.2956,2.2563,2.2532,2.2265,2.1924,2.1873,2.1862,2.1821,2.1807,2.1769,2.1769,2.1852,2.1811,2.1828,2.1803,2.1814,2.1769,2.1731,2.1731,2.1655,2.1474,2.1282,2.132,2.132,2.1397,2.1512,2.1512,2.1617,2.1693,2.1731,2.1807,2.1731,2.1731,2.1807,2.1721,2.1797,2.1532,2.1211,2.1093,2.0746,2.0208,2.0107,2.008,1.9986,1.9997,2.0041,2.0009,1.989,1.9576,1.8966,1.8488,1.8318,1.8359,1.8711,1.8935,1.8956,1.936,1.9307,1.9062,1.9009,1.8795,1.8356,1.8134,1.7798,1.7597,1.7399,1.7234,1.7091,1.7031,1.6988,1.6999,1.6896,1.6789,1.6609,1.6335,1.6163,1.6066,1.5681,1.5439,1.5352,1.503,1.4736,1.4677,1.4775,1.4736,1.463,1.4435,1.4484,1.4491,1.4272,1.3811,1.3809,1.4043,1.389,1.3679,1.3638,1.368,1.3467,1.2912,1.2493,1.2011,1.1685,1.1407,1.1058,1.0751,1.0747,1.0636,1.0527,1.045,1.0276,1.0175,1.0151,1.0023,0.9799,0.966,2.3422,2.3018,2.3008,2.2936,2.278,2.248,2.2315,2.2263,2.1952,2.1869,2.188,2.217,2.2139,2.1869,2.217,2.2149,2.1901,2.1807,2.1807,2.1807,2.1693,2.1617,2.1655,2.1617,2.1655,2.1693,2.1703,2.1741,2.1769,2.1807,2.1807,2.1807,2.1807,2.1807,2.1807,2.1807,2.1756,2.159,2.1407,2.1324,2.1221,2.1012,2.0846,2.0651,2.062,2.0445,2.0162,2.0118,1.9857,1.938,1.9511,1.9424,1.9153,1.95,1.9706,1.9749,1.9846,1.9911,1.9814,1.9738,1.9543,1.9163,1.8924,1.8761,1.8294,1.8243,1.8156,1.8089,1.807,1.8037,1.7965,1.7587,1.719,1.6786,1.6584,1.6413,1.6306,1.6085,1.5912,1.5874,1.5691,1.5546,1.5488,1.5459,1.5488,1.5439,1.5342,1.5292,1.5226,1.5187,1.4782,1.4917,1.5071,1.4886,1.476,1.4709,1.465,1.4604,1.4196,1.3681,1.3021,1.2357,1.2045,1.1692,1.1379,1.1301,1.094,1.0685,1.0609,1.0608,1.0478,1.0412,1.0494,1.0411,1.0297,2.3898,2.3525,2.3515,2.3401,2.3174,2.2904,2.278,2.2739,2.2511,2.2455,2.2567,2.2696,2.2714,2.2535,2.2577,2.2512,2.2213,2.2005,2.1987,2.2025,2.1959,2.1883,2.1807,2.1769,2.1807,2.1807,2.1807,2.1769,2.1807,2.1807,2.1807,2.1807,2.1807,2.1845,2.1959,2.1921,2.1959,2.2021,2.1881,2.185,2.1788,2.1707,2.1471,2.121,2.1025,2.0675,2.0292,2.0248,2.003,1.9813,1.9954,1.9976,1.9758,1.9943,2.0118,2.0118,2.0118,2.0118,2.0118,2.0118,1.9987,1.9704,1.9551,1.9247,1.8933,1.8809,1.8668,1.8585,1.8588,1.8588,1.8481,1.7984,1.753,1.7255,1.6831,1.6555,1.6516,1.6381,1.6285,1.621,1.6105,1.6,1.599,1.5933,1.5914,1.5885,1.5788,1.5787,1.5817,1.5827,1.5798,1.574,1.5653,1.5381,1.5245,1.5177,1.5079,1.5059,1.4924,1.4513,1.3938,1.3135,1.2802,1.2482,1.2094,1.1763,1.1455,1.1132,1.0962,1.0917,1.0752,1.0672,1.0761,1.0844,1.0763,2.4312,2.395,2.395,2.3712,2.3391,2.3318,2.3297,2.3297,2.3173,2.3262,2.3363,2.3366,2.3395,2.3516,2.3211,2.299,2.2895,2.258,2.2488,2.2505,2.2467,2.2304,2.2095,2.1877,2.1845,2.1845,2.1845,2.1883,2.1921,2.1883,2.1883,2.1921,2.1921,2.1959,2.2101,2.2149,2.2214,2.2327,2.236,2.2269,2.2159,2.2103,2.1984,2.1655,2.1255,2.0962,2.0666,2.0555,2.0401,2.0216,2.0183,2.0194,2.015,2.0183,2.0183,2.0216,2.0216,2.0216,2.0183,2.0216,2.0216,2.0095,1.9777,1.9527,1.9503,1.9304,1.9076,1.9067,1.8851,1.8897,1.8755,1.8284,1.8019,1.7849,1.7377,1.7009,1.6821,1.6711,1.6591,1.6459,1.6267,1.621,1.6153,1.6077,1.6029,1.622,1.6163,1.6134,1.6116,1.6087,1.6029,1.6,1.5875,1.5759,1.5633,1.5575,1.543,1.5342,1.5254,1.4964,1.4648,1.4062,1.3708,1.3368,1.3086,1.2663,1.2184,1.1877,1.1583,1.1267,1.1141,1.1023,1.0938,1.1046,1.1058,2.4445,2.4363,2.4405,2.4301,2.4198,2.3888,2.3774,2.3753,2.3553,2.355,2.3642,2.4037,2.4066,2.3839,2.4019,2.3917,2.3658,2.3477,2.3488,2.3477,2.3477,2.3175,2.2773,2.2258,2.1942,2.1997,2.2035,2.2111,2.2214,2.2214,2.2262,2.2283,2.2288,2.2311,2.2391,2.2492,2.2338,2.2451,2.2574,2.2654,2.2632,2.2683,2.2539,2.2127,2.1704,2.1441,2.1335,2.1096,2.093,2.0831,2.0697,2.0596,2.0551,2.054,2.054,2.054,2.054,2.054,2.0572,2.054,2.0572,2.0518,2.0385,2.0416,2.0416,2.0166,2.0025,2.0026,1.9887,1.9614,1.9319,1.9147,1.8853,1.8548,1.8333,1.8156,1.7965,1.7294,1.6846,1.6768,1.6669,1.6648,1.6648,1.6602,1.6545,1.6591,1.6534,1.6477,1.6392,1.6316,1.6288,1.6249,1.6192,1.6097,1.6152,1.6045,1.5859,1.5702,1.5556,1.5439,1.5138,1.4907,1.4535,1.4279,1.4092,1.3607,1.2975,1.264,1.2337,1.1959,1.1664,1.1685,1.1687,1.1599,1.1583,2.4625,2.4828,2.47,2.4743,2.4797,2.4609,2.4514,2.4472,2.4376,2.4353,2.4519,2.4795,2.4927,2.5047,2.5068,2.4956,2.4668,2.4292,2.4175,2.4199,2.4124,2.3974,2.3852,2.3136,2.2661,2.2379,2.2252,2.2327,2.2365,2.2445,2.2492,2.2722,2.2743,2.2962,2.3185,2.3223,2.3337,2.3399,2.3335,2.3264,2.3226,2.3211,2.2992,2.2559,2.2207,2.202,2.1827,2.1674,2.1643,2.1576,2.134,2.099,2.0735,2.0701,2.0701,2.0701,2.0701,2.0701,2.0669,2.0701,2.0669,2.0701,2.0701,2.0701,2.0701,2.0604,2.0572,2.054,2.0431,2.0234,2.0023,1.9725,1.9483,1.9234,1.8981,1.88,1.8498,1.7819,1.7312,1.7257,1.7019,1.6966,1.6952,1.7031,1.6892,1.6789,1.6736,1.6669,1.6648,1.6602,1.6591,1.6563,1.6495,1.6493,1.6614,1.6509,1.6321,1.6122,1.5951,1.5817,1.5603,1.5467,1.5351,1.5003,1.4649,1.427,1.3717,1.34,1.3167,1.2959,1.2779,1.268,1.26,1.2541,1.2552,2.4828,2.52,2.5031,2.5031,2.52,2.5179,2.5168,2.5179,2.5242,2.5262,2.5591,2.5454,2.5859,2.6345,2.6418,2.6289,2.6208,2.5849,2.5769,2.5464,2.5223,2.4959,2.4754,2.4196,2.3691,2.288,2.2836,2.2798,2.2836,2.2772,2.3148,2.3296,2.3349,2.3595,2.4097,2.4234,2.4187,2.424,2.4084,2.393,2.3804,2.3707,2.3342,2.2942,2.2866,2.2695,2.2468,2.2327,2.2306,2.2456,2.2049,2.1484,2.1034,2.0788,2.0797,2.0797,2.083,2.0818,2.0818,2.0797,2.0797,2.0765,2.0797,2.0797,2.0797,2.0765,2.0722,2.069,2.0646,2.0625,2.0656,2.0312,2.0003,1.9818,1.9485,1.9224,1.8951,1.8461,1.8218,1.7976,1.7736,1.7573,1.7523,1.7523,1.7248,1.7045,1.6974,1.6942,1.6953,1.6839,1.6793,1.6733,1.6637,1.6827,1.6961,1.6819,1.6622,1.6653,1.6438,1.6251,1.6107,1.5951,1.5767,1.5409,1.5032,1.4715,1.441,1.4086,1.3914,1.3886,1.3546,1.311,1.3159,1.344,1.3323,2.5115,2.52,2.5158,2.52,2.52,2.52,2.5242,2.5242,2.5464,2.5559,2.5696,2.6282,2.6678,2.7042,2.7911,2.8385,2.8461,2.8189,2.7858,2.7303,2.6971,2.6606,2.5639,2.5469,2.5083,2.4765,2.4409,2.4218,2.4098,2.4168,2.4131,2.4244,2.4248,2.4385,2.4462,2.4469,2.4578,2.4701,2.4572,2.4484,2.4403,2.4133,2.3824,2.3508,2.3657,2.359,2.3335,2.3097,2.2965,2.2955,2.2685,2.2228,2.1761,2.1362,2.1209,2.1094,2.1074,2.1031,2.1063,2.1094,2.1106,2.1106,2.1074,2.1106,2.1074,2.0967,2.0903,2.0839,2.0786,2.0701,2.0701,2.0619,2.0566,2.049,2.04,2.0279,2.0137,1.9712,1.9138,1.8814,1.8542,1.8284,1.8235,1.8151,1.7978,1.7816,1.7701,1.7647,1.7596,1.7302,1.6953,1.6871,1.6761,1.7055,1.7302,1.7101,1.6937,1.7117,1.7011,1.6774,1.66,1.6423,1.6181,1.5872,1.5592,1.5329,1.5017,1.4738,1.4439,1.4264,1.3833,1.3404,1.3584,1.3775,1.3407,2.5538,2.5999,2.5591,2.5464,2.5559,2.5549,2.5549,2.5591,2.5686,2.577,2.6045,2.6797,2.7545,2.8045,2.9024,2.975,2.9888,2.9586,2.9179,2.8672,2.8572,2.8295,2.7368,2.7357,2.7247,2.71,2.6708,2.6018,2.549,2.5088,2.5161,2.5243,2.5076,2.4956,2.5164,2.5262,2.5278,2.5326,2.526,2.5156,2.5112,2.4787,2.4462,2.4318,2.4487,2.4509,2.419,2.4065,2.3931,2.3832,2.3276,2.2845,2.2491,2.2181,2.1795,2.1435,2.1276,2.1265,2.1285,2.1253,2.1201,2.1201,2.1201,2.1201,2.1201,2.1094,2.1063,2.1031,2.1031,2.0946,2.0946,2.0946,2.0914,2.0818,2.0786,2.0754,2.0645,2.0391,2.0028,1.959,1.9091,1.8868,1.8899,1.8823,1.8731,1.86,1.845,1.8344,1.8289,1.7952,1.7546,1.7705,1.7745,1.7803,1.8042,1.7872,1.7662,1.777,1.7763,1.7521,1.7302,1.7184,1.6828,1.6467,1.6177,1.5944,1.5638,1.5383,1.5,1.4658,1.4498,1.4301,1.4149,1.3997,1.3655,2.6238,2.7015,2.6496,2.632,2.6468,2.661,2.6599,2.6468,2.651,2.6496,2.6451,2.7542,2.8409,2.9094,3.0077,3.0812,3.0856,3.0507,3.0247,2.9891,2.9837,2.9747,2.9501,2.9466,2.9159,2.8816,2.8603,2.8106,2.6796,2.6251,2.6204,2.6183,2.5864,2.5716,2.6075,2.5939,2.6146,2.6149,2.6092,2.5957,2.5784,2.5571,2.5228,2.4983,2.5308,2.5304,2.4926,2.4861,2.4773,2.4534,2.4055,2.3471,2.3302,2.3087,2.2599,2.192,2.158,2.151,2.1499,2.1391,2.136,2.136,2.1328,2.134,2.134,2.134,2.134,2.1296,2.1296,2.1296,2.1308,2.1265,2.1158,2.1063,2.0999,2.0935,2.0914,2.0814,2.0803,2.0315,1.968,1.9512,1.968,1.9642,1.9572,1.9355,1.9234,1.9066,1.8986,1.8788,1.8594,1.8847,1.8925,1.8822,1.8888,1.89,1.8762,1.8781,1.8762,1.8625,1.8326,1.8073,1.7709,1.7396,1.6881,1.6641,1.6324,1.5931,1.5503,1.5262,1.5278,1.4992,1.4463,1.418,1.396,2.7557,2.7736,2.8152,2.835,2.8379,2.8752,2.8736,2.8332,2.8267,2.807,2.7662,2.8807,2.9446,3.0,3.1257,3.2184,3.2496,3.2406,3.1841,3.1193,3.1071,3.0609,2.9747,2.9525,3.0049,3.0096,2.9803,2.881,2.7961,2.762,2.7519,2.7463,2.7064,2.6782,2.6876,2.6498,2.6313,2.6498,2.6513,2.6359,2.6158,2.6298,2.6058,2.5796,2.583,2.5882,2.5627,2.5524,2.5463,2.52,2.5052,2.4583,2.4038,2.3874,2.3682,2.3152,2.2596,2.2108,2.2094,2.185,2.1716,2.1707,2.1681,2.167,2.1729,2.1839,2.1883,2.1635,2.1659,2.1698,2.1698,2.1506,2.14,2.1388,2.142,2.1368,2.1305,2.142,2.14,2.1396,2.0869,2.058,2.0552,2.0501,2.0405,2.0206,1.9996,1.9879,1.977,1.9655,1.9544,1.9757,1.9849,1.9774,1.9744,1.9767,1.9741,1.9754,1.9691,1.9616,1.9396,1.912,1.8924,1.8543,1.7958,1.7306,1.6892,1.6479,1.6023,1.5786,1.5727,1.5143,1.4393,1.427,1.4244,2.9415,2.8822,2.8763,2.8869,2.9182,2.9418,2.9383,2.9164,2.9129,2.8999,2.9041,3.0025,3.0928,3.1546,3.2469,3.2805,3.3086,3.3099,3.2882,3.2388,3.2215,3.1988,3.1749,3.151,3.1637,3.123,3.1096,3.0548,2.9614,2.9,2.8826,2.8657,2.8193,2.7725,2.7586,2.701,2.6951,2.7003,2.6992,2.6901,2.6787,2.6832,2.6713,2.6198,2.6542,2.6491,2.6295,2.6129,2.6088,2.5866,2.5693,2.5362,2.5055,2.4953,2.4829,2.4495,2.428,2.3712,2.2934,2.2509,2.2369,2.2271,2.228,2.2278,2.2383,2.2795,2.2829,2.2247,2.2356,2.2399,2.2339,2.2106,2.2137,2.2125,2.2063,2.2032,2.2032,2.2032,2.2082,2.2082,2.2101,2.1803,2.1545,2.1522,2.1404,2.1135,2.0968,2.0907,2.0869,2.085,2.0708,2.0629,2.0647,2.0617,2.061,2.0592,2.0592,2.0572,2.0512,2.0452,2.0417,2.0223,2.0001,1.9594,1.902,1.8333,1.7634,1.7163,1.6881,1.6542,1.6158,1.5711,1.5243,1.4666,1.4724,3.0863,3.0004,2.9716,2.981,3.0169,3.0301,3.0332,3.02,3.0044,2.9996,3.0236,3.1046,3.2017,3.2682,3.2742,3.2667,3.2616,3.2835,3.2855,3.288,3.3048,3.3031,3.2814,3.2925,3.2749,3.239,3.183,3.1439,3.0916,3.0267,2.9726,2.9613,2.8838,2.8517,2.813,2.7713,2.7563,2.7725,2.7615,2.7603,2.758,2.7441,2.7365,2.7265,2.7295,2.7359,2.7193,2.7191,2.7207,2.6968,2.6875,2.6669,2.653,2.6548,2.6345,2.607,2.5928,2.545,2.4461,2.3759,2.3295,2.3181,2.3203,2.3329,2.3559,2.4216,2.4434,2.3505,2.356,2.3548,2.3306,2.3034,2.2917,2.2916,2.2847,2.2847,2.2804,2.2756,2.2713,2.2743,2.2804,2.2937,2.2725,2.2604,2.2421,2.2082,2.1959,2.1896,2.1885,2.1861,2.1885,2.1739,2.1704,2.1656,2.1536,2.1518,2.1476,2.144,2.1362,2.1422,2.1488,2.1287,2.0986,2.054,2.0025,1.9511,1.8948,1.8343,1.777,1.7346,1.6979,1.6699,1.6243,1.5605,1.5416,3.1373,3.1333,3.171,3.1893,3.198,3.2614,3.2459,3.1833,3.1443,3.1215,3.1249,3.1789,3.2051,3.2265,3.224,3.2051,3.1625,3.2051,3.229,3.2528,3.2767,3.2955,3.293,3.2867,3.2905,3.2641,3.2039,3.1775,3.1687,3.0726,3.0223,2.9774,2.9319,2.9044,2.8764,2.8407,2.8207,2.8287,2.8271,2.8407,2.8367,2.8259,2.8159,2.856,2.8426,2.8371,2.8824,2.8724,2.8592,2.8341,2.8282,2.8262,2.8064,2.8126,2.7925,2.7571,2.7389,2.6933,2.6226,2.5128,2.4562,2.4463,2.4546,2.4685,2.4886,2.5173,2.5236,2.5076,2.4963,2.486,2.4528,2.4167,2.3827,2.3726,2.3663,2.3446,2.3416,2.3386,2.3357,2.3374,2.3446,2.3607,2.3666,2.3518,2.3203,2.2871,2.2616,2.2555,2.2689,2.2707,2.295,2.2962,2.2897,2.2777,2.2554,2.2487,2.2448,2.2424,2.2376,2.254,2.2758,2.2426,2.1969,2.1558,2.1076,2.068,2.0153,1.929,1.859,1.8151,1.7736,1.7291,1.6991,1.6502,1.6598,3.2215,3.1964,3.2503,3.2742,3.2767,3.298,3.2955,3.2742,3.2516,3.2202,3.1863,3.1775,3.1712,3.1712,3.1738,3.1813,3.1888,3.2077,3.2164,3.2403,3.2729,3.2629,3.2453,3.2353,3.2353,3.2077,3.1574,3.1223,3.106,3.0746,3.0344,2.99,2.9754,2.9719,2.9487,2.9013,2.8816,2.8685,2.8736,2.8791,2.8897,2.8819,2.8791,2.8964,2.9094,2.9028,2.9238,2.9394,2.9386,2.9363,2.9403,2.9366,2.9351,2.9401,2.9169,2.8803,2.864,2.8339,2.7734,2.6608,2.5757,2.5799,2.5987,2.6153,2.6175,2.6576,2.6488,2.633,2.6138,2.6046,2.5849,2.5236,2.4736,2.4633,2.4491,2.4272,2.4187,2.4236,2.4236,2.437,2.4275,2.429,2.4305,2.4334,2.3956,2.3616,2.3395,2.3275,2.3365,2.3407,2.3526,2.3586,2.3497,2.3467,2.3233,2.3275,2.3348,2.3318,2.3258,2.3348,2.3407,2.3369,2.2934,2.2531,2.1998,2.1369,2.0704,1.9966,1.938,1.8917,1.8313,1.7678,1.7448,1.7364,1.7605,3.2579,3.229,3.283,3.3124,3.3124,3.3124,3.3124,3.3086,3.2842,3.2503,3.1964,3.1687,3.1411,3.1248,3.1173,3.116,3.1361,3.1549,3.1788,3.2014,3.2164,3.2139,3.1913,3.1813,3.1913,3.1549,3.1235,3.0984,3.1009,3.057,3.0156,3.0043,3.0308,3.0245,2.9827,2.9573,2.9365,2.9314,2.9302,2.9419,2.9639,2.9484,2.9678,2.9781,2.9871,2.9947,3.0139,3.0343,3.0381,3.0367,3.0392,3.038,3.038,3.0354,3.0184,2.9954,2.9738,2.953,2.876,2.7775,2.6884,2.6832,2.7025,2.713,2.7341,2.7793,2.7603,2.726,2.7181,2.7173,2.6977,2.6373,2.5921,2.5838,2.5654,2.5448,2.5421,2.5418,2.5381,2.5397,2.5351,2.5362,2.536,2.5373,2.4792,2.4393,2.4028,2.3897,2.391,2.394,2.3897,2.391,2.3852,2.3822,2.3793,2.3763,2.3721,2.3721,2.3691,2.3704,2.3763,2.3776,2.3725,2.3299,2.2706,2.1995,2.127,2.0535,2.0063,1.9656,1.9071,1.8546,1.8635,1.8623,1.8459,3.224,3.2277,3.283,3.3124,3.3124,3.3124,3.3124,3.2993,3.2466,3.1951,3.1549,3.1775,3.1424,3.0796,3.0633,3.0557,3.0495,3.0733,3.1097,3.1524,3.1951,3.1888,3.1838,3.1813,3.1788,3.1851,3.1348,3.0959,3.1273,3.0507,3.0018,3.0235,3.0719,3.0681,2.9918,3.0023,3.0152,3.0317,3.0279,3.0432,3.0545,3.0279,3.0545,3.0861,3.0797,3.0797,3.1086,3.1235,3.1272,3.131,3.1458,3.1495,3.1545,3.173,3.1571,3.1173,3.111,3.0614,2.9718,2.8478,2.7928,2.7736,2.7809,2.7861,2.8293,2.8541,2.8481,2.7985,2.8228,2.8079,2.7863,2.7538,2.7128,2.6844,2.66,2.637,2.6256,2.6242,2.6118,2.6064,2.6421,2.6681,2.6637,2.6428,2.5743,2.5194,2.4751,2.4547,2.4474,2.4347,2.4232,2.4203,2.4187,2.4173,2.4144,2.4102,2.4102,2.4089,2.4102,2.4086,2.4086,2.4115,2.4037,2.3893,2.3169,2.2242,2.1639,2.1081,2.0566,2.0093,1.9991,1.9685,1.9826,1.9686,1.9291,3.2202,3.2265,3.283,3.3124,3.3124,3.3124,3.3124,3.296,3.2139,3.1562,3.126,3.0947,3.0482,3.0131,3.0193,3.0231,3.0457,3.0859,3.1323,3.1449,3.1989,3.1976,3.1901,3.1838,3.1825,3.1524,3.0984,3.0922,3.1348,3.0698,3.0817,3.1086,3.1427,3.1313,3.093,3.0816,3.0791,3.0611,3.0609,3.0761,3.1123,3.096,3.1073,3.1559,3.1421,3.1532,3.178,3.189,3.1927,3.1927,3.2036,3.2073,3.2073,3.2182,3.2087,3.1762,3.1599,3.0948,3.0215,2.9416,2.8895,2.8646,2.8379,2.8425,2.86,2.8587,2.8587,2.8587,2.8619,2.8424,2.8329,2.7836,2.747,2.7335,2.7091,2.6779,2.6627,2.664,2.6613,2.6586,2.6779,2.6901,2.6955,2.7087,2.659,2.6109,2.5673,2.5012,2.4749,2.4587,2.4463,2.4476,2.4476,2.4463,2.4463,2.4421,2.4421,2.4421,2.4434,2.4434,2.4434,2.4434,2.4169,2.3929,2.3185,2.2471,2.1826,2.1223,2.082,2.0472,2.0356,2.0114,1.9936,1.977,1.955,3.2152,3.2541,3.2918,3.3124,3.3124,3.3124,3.3124,3.2986,3.2277,3.1876,3.1574,3.0934,3.057,3.0457,3.0382,3.047,3.0922,3.1198,3.1599,3.1687,3.2114,3.2064,3.1913,3.1851,3.1813,3.1486,3.1329,3.1347,3.1852,3.1402,3.1601,3.2135,3.245,3.2376,3.2002,3.168,3.1087,3.0878,3.0836,3.0949,3.1198,3.1272,3.1397,3.1669,3.178,3.1927,3.2,3.2109,3.2205,3.2205,3.2205,3.2205,3.2205,3.2205,3.2205,3.2042,3.1741,3.1251,3.0787,3.0506,3.0011,2.9671,2.9126,2.8884,2.8847,2.8833,2.8789,2.8748,2.8683,2.8683,2.862,2.8157,2.8026,2.789,2.7795,2.7495,2.753,2.7602,2.7557,2.7458,2.74,2.7414,2.7369,2.7447,2.7412,2.6999,2.66,2.588,2.515,2.492,2.4746,2.4721,2.4734,2.4721,2.4721,2.475,2.4721,2.4763,2.475,2.4778,2.4734,2.4708,2.4345,2.3956,2.3326,2.2657,2.187,2.1312,2.1091,2.0833,2.0614,2.0334,2.0015,1.9963,1.996,3.2106,3.3048,3.3124,3.3099,3.3074,3.293,3.3011,3.3099,3.3036,3.2641,3.2123,3.2026,3.1587,3.1336,3.1311,3.1298,3.1361,3.1424,3.1738,3.1976,3.2102,3.2039,3.2039,3.1955,3.2147,3.2138,3.206,3.2069,3.2514,3.2439,3.2669,3.309,3.3288,3.3227,3.2917,3.2383,3.163,3.1277,3.1001,3.1088,3.1235,3.1347,3.1545,3.178,3.1927,3.2036,3.2109,3.2169,3.2205,3.2205,3.2205,3.2205,3.2205,3.2205,3.2205,3.2128,3.194,3.1748,3.1556,3.1288,3.1169,3.0798,2.9914,2.9651,2.9397,2.9241,2.9082,2.8931,2.8844,2.894,2.8903,2.878,2.8657,2.863,2.863,2.8611,2.8752,2.8766,2.872,2.8647,2.8588,2.8497,2.8366,2.833,2.8089,2.7884,2.7414,2.6829,2.609,2.531,2.515,2.4948,2.4948,2.4948,2.4948,2.4948,2.5061,2.5061,2.509,2.5104,2.5061,2.505,2.4805,2.4395,2.3607,2.2997,2.267,2.2117,2.1515,2.1331,2.1394,2.089,2.0662,2.0662,2.0658,3.2416,3.3111,3.3124,3.283,3.2428,3.2051,3.2315,3.298,3.2667,3.2328,3.2202,3.18,3.1675,3.1399,3.1373,3.1424,3.1562,3.1763,3.2001,3.219,3.239,3.2641,3.2764,3.276,3.2891,3.2878,3.2826,3.2823,3.3286,3.3366,3.3491,3.3859,3.3918,3.3886,3.3573,3.3194,3.2424,3.1771,3.1364,3.1202,3.1299,3.1434,3.1656,3.1853,3.2,3.2109,3.2169,3.2205,3.2205,3.2205,3.2205,3.2205,3.2205,3.2205,3.2205,3.2359,3.2346,3.2406,3.2309,3.2041,3.1902,3.1903,3.1255,3.0451,3.0112,2.978,2.9523,2.9329,2.9077,2.9099,2.9099,2.9035,2.9004,2.9004,2.9004,2.9004,2.9099,2.9131,2.9099,2.9067,2.9035,2.9004,2.8908,2.8867,2.8606,2.8555,2.8253,2.7676,2.6944,2.6144,2.543,2.5228,2.5146,2.5118,2.5061,2.5033,2.5258,2.5397,2.5439,2.5536,2.5646,2.5603,2.5365,2.4766,2.3877,2.3767,2.3883,2.3213,2.2346,2.253,2.2582,2.1885,2.1365,2.1426,2.1504,3.2395,3.3086,3.3124,3.2867,3.2583,3.2398,3.2731,3.3033,3.2508,3.2315,3.2503,3.224,3.2051,3.2114,3.2127,3.2127,3.2152,3.2403,3.2591,3.2692,3.2935,3.3054,3.3227,3.3356,3.3377,3.3403,3.3482,3.3534,3.3843,3.4076,3.4217,3.4204,3.4356,3.4214,3.3927,3.3626,3.3248,3.2568,3.2016,3.1489,3.1415,3.1548,3.1706,3.189,3.205,3.2109,3.2205,3.2205,3.2205,3.2205,3.2205,3.2264,3.23,3.2336,3.2408,3.2561,3.2676,3.2684,3.2615,3.2674,3.2688,3.266,3.2423,3.1864,3.109,3.0573,3.0169,2.9821,2.9466,2.9212,2.9194,2.9194,2.9257,2.9289,2.9226,2.9162,2.9194,2.9257,2.9257,2.9226,2.9194,2.9162,2.9131,2.9145,2.9099,2.8943,2.8768,2.8491,2.7668,2.675,2.5947,2.541,2.5327,2.5272,2.5258,2.5356,2.5578,2.5825,2.5892,2.6014,2.6201,2.5899,2.5422,2.4772,2.4066,2.413,2.4274,2.3861,2.3269,2.3536,2.3593,2.2949,2.2478,2.2387,2.2446,3.2526,3.3283,3.3159,3.3114,3.3109,3.3398,3.3508,3.3356,3.2751,3.2655,3.3071,3.3129,3.3058,3.2975,3.2988,3.2983,3.2932,3.2991,3.3003,3.3142,3.3104,3.3283,3.3526,3.3484,3.3725,3.3852,3.3911,3.4001,3.4108,3.4285,3.4356,3.4397,3.4397,3.4361,3.4323,3.4035,3.379,3.3502,3.2842,3.2284,3.1715,3.1665,3.176,3.1867,3.1963,3.2059,3.2169,3.2205,3.2241,3.2264,3.2322,3.2417,3.2489,3.2596,3.2704,3.2775,3.2917,3.2931,3.2966,3.3059,3.3073,3.3129,3.3164,3.2848,3.2188,3.1203,3.0667,3.0163,2.9764,2.9471,2.9383,2.9352,2.9352,2.9383,2.9383,2.9383,2.9415,2.9446,2.9477,2.9509,2.962,2.9588,2.9588,2.9634,2.9744,2.9418,2.9383,2.9273,2.8695,2.7735,2.6918,2.612,2.5855,2.5855,2.577,2.5892,2.6028,2.6217,2.6324,2.6522,2.6771,2.6181,2.5398,2.5242,2.5155,2.457,2.4395,2.4291,2.4434,2.4593,2.4517,2.3951,2.364,2.3512,2.2994,3.4549,3.4262,3.3734,3.3292,3.3034,3.3301,3.3539,3.3567,3.3722,3.3656,3.3564,3.3598,3.3598,3.3598,3.3598,3.3569,3.3441,3.3484,3.3356,3.3428,3.3428,3.3839,3.4063,3.4063,3.4189,3.4314,3.4397,3.4439,3.4509,3.4509,3.4439,3.4439,3.4564,3.4688,3.4743,3.452,3.447,3.4233,3.3953,3.322,3.2551,3.2359,3.2414,3.2202,3.2123,3.225,3.2395,3.2503,3.2538,3.2596,3.2596,3.2632,3.2668,3.2846,3.2917,3.2952,3.3108,3.3192,3.3297,3.3417,3.3452,3.3486,3.3542,3.3485,3.3018,3.1923,3.111,3.059,3.008,2.9785,2.9602,2.954,2.954,2.954,2.9602,2.9634,2.9696,2.9727,2.9789,2.9913,3.0052,3.0083,3.0083,3.0129,3.0251,3.0372,3.0523,3.0425,3.0002,2.9218,2.8524,2.7693,2.6764,2.6581,2.6473,2.6431,2.659,2.6695,2.6826,2.706,2.7302,2.6881,2.6367,2.6555,2.646,2.5743,2.5363,2.5616,2.5743,2.5743,2.5568,2.5094,2.4845,2.4688,2.3818,3.5103,3.4815,3.4509,3.4228,3.4054,3.4313,3.4433,3.4459,3.4727,3.478,3.4594,3.4496,3.4358,3.4246,3.4176,3.4176,3.405,3.4008,3.4204,3.4246,3.4204,3.4579,3.4744,3.4758,3.4936,3.5046,3.5127,3.5168,3.5101,3.5264,3.5305,3.5237,3.5277,3.5291,3.5318,3.5237,3.5103,3.4768,3.4875,3.4443,3.3578,3.3301,3.2945,3.2649,3.2536,3.2593,3.2561,3.2668,3.2654,3.2739,3.2775,3.2895,3.2966,3.3086,3.3108,3.3192,3.3312,3.3521,3.3681,3.3785,3.3922,3.4079,3.4065,3.4109,3.4397,3.338,3.2321,3.1714,3.0463,3.0033,2.9988,2.9943,3.0066,3.0113,3.0266,3.0372,3.0403,3.0403,3.0463,3.0493,3.0583,3.0569,3.0583,3.0613,3.0703,3.0688,3.097,3.1175,3.0804,3.0563,2.9928,2.921,2.8213,2.7409,2.7091,2.706,2.7152,2.7255,2.7306,2.734,2.7419,2.7476,2.7452,2.7173,2.6931,2.6648,2.6451,2.6517,2.6638,2.66,2.6462,2.627,2.6046,2.5675,2.4762,3.5275,3.5291,3.5494,3.5481,3.544,3.5749,3.5723,3.5575,3.5736,3.5843,3.5817,3.5655,3.5454,3.5114,3.4964,3.4991,3.4909,3.4716,3.4937,3.5169,3.5237,3.5494,3.5602,3.5656,3.5656,3.5696,3.5817,3.5964,3.6056,3.6096,3.6149,3.6348,3.6387,3.6362,3.6084,3.5964,3.5948,3.5854,3.5826,3.5689,3.4988,3.4176,3.3581,3.3243,3.3063,3.2838,3.2832,3.2868,3.2854,3.3136,3.3346,3.3444,3.3597,3.3701,3.3632,3.3736,3.3942,3.4167,3.4356,3.437,3.4725,3.4942,3.4813,3.4901,3.5155,3.4673,3.3623,3.2742,3.1473,3.068,3.0665,3.0535,3.0686,3.0776,3.094,3.1058,3.1058,3.1058,3.1087,3.1102,3.116,3.116,3.1131,3.1146,3.1175,3.1131,3.1219,3.1393,3.1462,3.1321,3.0943,3.0277,2.9469,2.8719,2.7991,2.776,2.7794,2.7625,2.7655,2.7585,2.7573,2.7773,2.7668,2.7179,2.6965,2.6995,2.6995,2.7009,2.7155,2.7347,2.7023,2.677,2.6649,2.6222,2.5567,3.6891,3.6626,3.6508,3.6217,3.6004,3.6665,3.6733,3.6298,3.6601,3.6744,3.6744,3.694,3.6652,3.5575,3.5696,3.5696,3.5535,3.5413,3.544,3.5588,3.5856,3.6229,3.6441,3.6375,3.6189,3.6269,3.6362,3.6308,3.6727,3.6688,3.6638,3.6758,3.6705,3.6822,3.7003,3.694,3.6957,3.6931,3.6964,3.6873,3.6357,3.5404,3.4083,3.3725,3.3614,3.3599,3.3624,3.3728,3.407,3.4375,3.4495,3.4375,3.439,3.4491,3.4509,3.4423,3.4624,3.4924,3.5073,3.5121,3.5432,3.5593,3.5514,3.561,3.5652,3.5443,3.4725,3.4483,3.3351,3.2348,3.2065,3.1619,3.1588,3.1528,3.1599,3.1568,3.1538,3.1567,3.161,3.1752,3.1894,3.1838,3.1766,3.1809,3.1938,3.1894,3.1923,3.2064,3.2092,3.2025,3.1903,3.1289,3.0608,2.9847,2.9068,2.8566,2.845,2.8217,2.8014,2.7939,2.7975,2.8146,2.7972,2.7611,2.7496,2.7519,2.7541,2.7572,2.7726,2.7818,2.7401,2.7101,2.7079,2.6842,2.629]}]]